GFSNGP_850_rhum_000.txt.gz
RH
42 39 38 45 50 56 56 49 45 39 43 34 36 34 33 34 38 50 54 50 48 50 54 53 51 48 40 46 48 48 47 42 32 23 10 3 3 4 4 4 4 5 6 8
34 34 36 35 34 36 42 48 52 47 42 32 31 33 45 44 49 52 52 49 50 53 52 50 44 46 54 55 52 48 38 23 8 2 4 5 4 4 4 5 6 7 7 8
34 47 45 46 45 43 36 35 32 34 30 35 37 46 50 49 49 50 48 48 51 53 52 44 54 60 60 58 52 35 15 3 4 6 5 6 7 9 10 11 12 13 14 14
53 52 61 41 42 40 39 40 37 39 42 46 51 49 44 46 48 49 48 54 60 55 51 59 70 69 63 52 32 9 4 6 7 7 8 10 12 13 14 15 16 17 17 18
69 72 58 48 44 44 43 55 50 51 49 49 47 48 44 43 46 48 53 61 60 60 67 78 76 70 51 29 8 5 7 7 8 10 12 13 14 14 16 19 20 23 25 24
91 81 70 48 43 40 39 57 54 52 53 55 52 72 65 51 52 55 64 68 67 67 79 80 70 54 29 8 8 8 8 9 11 15 17 17 18 19 21 22 24 25 27 28
82 82 73 54 48 42 57 52 61 54 52 54 65 61 57 57 64 73 74 70 66 76 84 84 69 34 10 10 9 10 12 13 16 18 20 21 22 22 22 25 29 32 35 35
84 82 81 50 48 54 57 58 52 50 50 50 49 51 55 57 64 63 62 69 75 83 86 88 39 12 10 10 12 14 15 16 17 19 21 22 24 25 27 30 34 42 57 68
74 73 55 48 50 51 51 53 55 55 54 52 53 53 55 64 71 73 75 82 87 88 88 72 18 14 11 14 16 16 16 17 18 20 22 24 31 30 32 39 51 65 82 90
62 58 67 54 53 54 57 58 58 59 59 59 59 57 60 66 70 78 88 91 86 90 53 13 15 13 14 16 16 18 18 18 20 23 28 32 33 35 42 51 72 90 98 99
79 67 57 60 60 60 62 63 62 62 64 67 66 61 62 71 81 87 89 89 74 39 13 16 14 13 16 18 19 20 21 21 23 29 35 37 35 41 54 65 95 97 96 98
83 64 61 60 57 55 61 67 70 70 70 71 71 70 72 79 89 90 86 66 42 14 18 16 15 15 17 20 22 23 22 24 31 39 41 47 48 44 45 66 94 95 95 93
63 62 58 55 58 61 64 65 65 71 74 75 76 83 87 88 88 92 67 22 17 19 16 16 16 16 19 21 22 23 28 31 36 45 52 52 58 77 94 75 93 93 95 94
55 56 62 62 60 63 70 77 82 85 89 97 100 100 90 88 78 39 17 21 20 18 16 17 20 19 21 22 24 28 33 40 50 52 53 66 83 96 100 99 99 89 72 95
61 62 65 66 68 72 71 74 94 98 95 95 99 99 92 61 24 18 22 22 19 18 20 24 23 22 24 26 29 35 45 52 56 70 79 88 90 92 96 97 98 89 93 88
64 65 67 62 47 44 48 54 76 84 92 92 91 80 44 19 21 21 22 22 23 24 23 25 26 28 29 31 33 41 48 57 79 80 86 86 88 96 97 98 95 93 100 99
70 69 56 34 35 42 58 74 84 88 94 95 77 38 21 22 22 25 26 26 26 26 26 29 30 30 32 33 40 50 55 62 87 80 83 86 98 99 98 98 98 92 83 86
40 30 33 36 43 60 67 79 88 91 90 75 28 21 22 25 28 28 29 27 25 26 30 32 32 33 35 39 45 57 77 85 86 89 88 95 98 98 96 91 92 93 94 92
30 34 36 40 52 66 73 84 91 90 65 23 23 23 25 28 31 30 30 27 30 36 36 35 35 36 36 42 61 80 83 89 90 93 97 100 91 94 94 94 95 97 99 97
41 42 38 40 53 71 81 83 83 45 23 24 24 27 29 29 31 31 32 36 42 39 39 38 37 36 41 52 68 94 96 99 100 100 99 98 96 92 94 95 100 97 95 97
48 45 39 45 58 70 71 57 26 21 25 27 29 30 33 33 35 36 42 44 38 40 40 36 34 37 49 63 97 99 97 98 99 97 99 97 96 96 96 96 95 94 95 97
53 56 45 45 56 66 63 38 20 23 25 28 31 37 42 41 39 45 45 42 43 42 38 38 42 46 68 97 96 94 95 97 90 86 89 92 99 99 95 94 96 94 93 94
61 64 56 51 59 62 60 37 25 23 26 34 40 47 49 44 48 47 46 44 42 37 42 42 41 48 88 100 95 86 79 76 80 86 95 97 99 98 97 98 98 98 93 93
65 68 57 57 71 68 62 55 42 38 39 43 51 54 48 50 46 44 46 42 38 40 43 42 42 54 94 80 69 71 78 86 91 94 93 94 97 98 97 96 95 94 94 93
78 68 50 56 74 78 73 66 59 51 51 58 58 52 51 47 51 48 42 40 42 43 42 43 54 62 63 66 73 78 83 91 99 100 99 99 95 96 96 96 96 97 97 98
71 53 58 72 82 83 80 79 69 65 66 58 54 47 46 46 42 40 42 44 45 44 47 54 60 66 71 73 77 84 92 98 99 99 100 98 95 96 99 98 97 97 97 95
65 57 63 74 81 85 82 77 71 63 58 50 48 48 45 42 42 46 47 46 45 50 59 63 66 70 75 82 86 91 96 97 99 100 100 99 98 100 100 100 100 100 100 94

GFSNGP_850_rhum_003.txt.gz
RH
46 44 50 54 58 54 49 44 45 39 47 32 32 35 32 34 37 42 49 55 55 55 55 58 57 45 45 54 57 58 53 36 18 2 1 4 5 5 5 6 7 7 7 7
35 39 35 34 36 58 52 49 48 48 44 35 34 37 44 46 45 49 54 54 53 57 63 60 44 50 62 64 62 55 37 15 2 3 5 6 6 6 7 7 8 9 9 9
36 45 42 42 45 41 36 35 34 33 29 38 47 53 48 46 45 46 50 52 52 62 62 48 57 70 71 70 61 42 12 4 5 6 6 7 8 9 10 10 11 11 11 12
44 50 57 38 46 40 42 50 38 51 49 48 51 46 43 41 43 44 48 51 60 65 54 60 72 74 73 66 42 13 7 7 7 8 9 10 11 12 12 13 13 13 14 16
64 62 51 51 46 50 51 62 54 53 51 53 48 46 45 43 44 49 50 55 65 60 60 66 76 78 76 46 14 10 8 8 8 9 10 11 13 14 15 15 15 15 17 19
88 78 65 47 44 41 40 75 62 58 62 60 57 72 70 56 51 51 56 61 64 60 64 75 78 74 46 21 13 7 7 9 11 13 14 15 16 16 18 19 18 19 20 23
77 76 68 51 46 44 58 52 62 54 53 53 62 59 50 49 53 62 66 66 66 69 76 82 80 64 30 27 8 8 10 12 13 15 16 16 18 21 20 20 23 24 28 27
84 79 71 53 52 60 62 60 54 54 52 49 48 48 49 56 68 73 74 75 75 78 87 83 78 55 25 9 10 11 12 14 15 16 17 19 21 21 21 21 25 30 35 41
70 70 60 54 53 51 50 52 54 52 53 54 53 55 59 61 69 77 77 75 78 86 82 77 50 19 10 11 13 14 15 15 16 17 19 20 23 24 25 30 43 52 75 91
68 69 63 54 53 52 54 56 57 58 59 59 61 62 58 59 71 77 79 82 89 82 78 45 15 12 14 15 16 16 16 17 18 20 21 24 27 29 38 42 55 76 97 100
76 70 67 60 57 57 59 61 63 64 63 64 66 67 65 66 75 83 90 92 83 65 36 14 15 14 15 16 18 18 19 20 21 22 25 27 27 32 41 50 89 96 95 97
77 63 60 63 59 60 64 65 68 67 65 68 70 71 72 74 75 76 83 83 63 39 14 18 16 15 17 20 21 21 22 23 25 29 31 33 31 30 38 70 94 95 96 94
63 60 58 57 62 61 60 61 60 58 62 70 74 76 79 80 84 82 81 76 28 17 21 18 18 19 21 22 23 24 26 28 32 36 37 38 42 64 93 94 96 74 98 95
60 59 66 68 65 64 63 62 51 51 62 76 85 95 98 95 86 86 67 21 22 22 20 20 21 20 22 24 27 28 31 35 39 39 40 48 75 95 97 100 100 93 72 96
62 61 61 64 62 64 51 37 36 42 56 71 95 99 99 95 82 43 21 25 24 21 21 22 21 21 26 30 32 34 38 40 40 47 64 85 85 84 89 96 100 96 94 91
65 67 64 64 55 34 35 38 43 50 69 85 90 94 92 66 26 23 24 23 23 22 21 22 24 31 34 35 36 39 39 39 44 66 83 82 82 94 99 98 98 100 99 96
62 65 64 44 34 38 41 49 61 73 84 89 93 90 64 26 23 23 24 25 24 24 24 30 36 38 37 37 38 37 35 39 63 74 78 85 93 99 96 98 98 95 88 86
51 37 35 40 41 40 46 60 72 79 85 90 90 62 27 23 21 23 24 25 26 26 32 41 40 38 38 37 34 35 44 61 80 86 88 97 99 97 98 94 92 100 94 96
38 44 47 46 43 42 46 61 74 88 91 89 65 25 21 22 25 28 31 32 30 34 42 42 39 38 36 33 37 46 61 86 90 91 98 100 96 98 97 95 99 99 99 98
43 48 52 52 47 43 47 65 81 84 86 62 26 23 22 26 31 35 38 35 35 45 43 41 40 37 33 36 42 73 95 99 97 90 95 100 95 95 96 96 100 98 97 96
41 47 56 63 61 51 46 58 69 64 45 25 23 24 28 33 38 42 41 40 45 45 42 40 35 30 35 41 88 99 94 92 87 86 85 84 85 90 96 96 96 95 94 97
40 40 54 66 66 62 57 62 66 49 25 24 27 32 38 42 48 49 46 49 46 44 41 35 32 37 43 93 94 88 80 76 72 75 80 85 93 97 96 95 96 96 95 96
49 44 51 66 70 63 62 64 64 49 29 28 34 42 49 53 55 50 50 47 45 41 36 34 36 40 46 93 76 67 67 68 73 82 90 93 95 96 100 100 100 99 96 94
57 57 57 69 72 59 58 66 65 52 40 41 46 54 57 59 54 51 48 46 41 36 36 38 39 41 71 67 63 64 67 74 86 92 92 94 97 100 98 98 96 97 99 94
61 61 71 72 62 54 74 83 71 63 60 60 59 62 61 56 51 48 46 40 36 37 38 39 43 52 59 61 66 69 75 83 92 100 99 99 97 100 97 96 97 100 99 98
63 73 75 67 61 72 85 82 78 78 72 69 67 60 53 49 47 44 39 37 39 42 43 44 51 61 67 70 72 75 86 93 96 97 100 99 97 100 100 98 95 94 95 96
71 80 74 63 68 76 82 85 82 78 72 63 54 49 48 46 42 39 40 41 45 46 46 52 61 65 68 73 76 84 90 93 96 100 100 100 98 99 99 95 94 95 95 94

GFSNGP_850_rhum_009.txt.gz
RH
48 52 52 56 56 51 49 43 46 44 48 38 41 44 44 36 38 42 48 53 59 62 66 68 68 62 53 64 73 71 70 58 51 33 16 7 7 8 8 9 11 14 17 19
43 48 50 58 58 49 46 50 48 45 48 39 40 39 45 47 46 46 48 53 58 64 67 70 69 58 62 73 74 72 60 48 33 18 8 8 8 9 9 12 17 20 21 20
55 44 40 48 49 61 51 54 42 50 38 45 54 55 50 50 49 50 51 52 56 62 71 73 66 59 70 74 74 65 50 38 24 10 9 9 9 10 14 20 22 23 22 21
53 46 56 42 47 52 51 46 46 44 45 47 55 50 46 44 43 44 46 50 57 66 76 73 61 67 72 76 72 58 47 26 11 10 10 10 11 16 22 24 25 24 24 22
61 56 46 54 54 55 52 55 53 61 63 59 50 49 54 52 49 48 48 50 59 68 74 66 64 70 77 74 64 51 28 14 10 10 11 13 19 24 27 27 26 26 25 24
86 64 49 40 48 44 47 56 63 60 66 62 55 60 60 50 50 50 50 53 63 73 70 64 71 77 79 67 54 31 15 10 11 12 15 20 26 28 28 28 28 27 25 25
71 64 59 48 49 43 57 48 64 57 59 60 60 55 53 49 50 53 57 64 72 71 68 73 78 80 70 53 35 17 12 12 14 17 21 27 30 30 30 29 28 26 26 35
79 71 55 51 50 54 58 64 56 52 51 50 51 52 52 53 56 61 66 69 71 72 75 79 82 74 53 32 20 13 13 15 18 21 26 31 32 31 30 29 29 30 33 47
63 63 66 60 56 55 56 52 53 50 51 50 54 58 59 58 59 68 76 78 80 80 80 83 80 54 33 24 15 15 16 18 20 24 32 34 33 32 30 30 34 37 58 89
66 68 64 63 57 51 50 51 53 53 55 57 57 60 62 64 64 73 82 85 84 83 85 84 56 49 26 17 16 17 19 21 24 33 36 34 32 30 31 34 46 70 96 98
83 76 66 62 56 54 55 56 57 60 61 62 63 65 68 70 69 72 81 87 86 88 83 64 64 25 19 18 19 20 21 25 36 38 35 33 31 33 37 45 76 97 97 97
73 67 65 61 59 60 59 61 63 62 61 59 57 59 66 73 77 80 84 85 86 78 70 67 25 21 20 21 22 22 28 38 39 36 34 32 31 29 38 54 92 93 99 97
63 64 59 60 61 62 60 62 61 56 44 40 43 54 68 78 85 88 84 82 79 75 65 21 21 21 22 22 22 31 40 39 37 35 33 30 29 41 56 62 67 72 98 100
63 58 74 68 67 65 59 58 55 38 37 41 44 48 70 88 94 92 85 78 78 49 21 22 22 23 21 21 32 40 40 38 35 31 26 32 49 72 74 76 86 87 90 100
67 61 58 62 64 62 60 45 37 42 46 47 47 47 88 99 98 92 83 79 36 23 23 23 22 22 23 32 41 41 39 36 31 27 35 54 66 62 69 92 98 100 94 94
73 69 68 62 62 48 37 40 44 48 48 49 55 66 80 91 97 90 74 28 24 24 23 23 24 27 34 43 43 40 36 31 29 36 53 64 60 66 82 99 98 94 95 94
74 79 69 53 36 39 41 41 40 42 46 54 65 73 82 91 88 65 27 24 23 24 26 28 30 35 44 44 41 38 32 29 35 52 57 59 64 84 100 100 92 98 98 93
61 59 45 36 37 38 40 43 43 44 49 61 73 83 88 90 78 34 25 24 26 27 32 34 38 45 46 43 39 33 30 36 54 62 64 70 86 96 77 88 92 98 98 96
44 37 35 35 42 47 48 47 47 46 51 65 78 87 90 82 46 27 25 26 30 32 37 40 47 48 44 40 34 30 34 48 58 59 67 79 68 74 76 79 97 100 100 99
42 37 39 44 49 54 57 58 58 57 54 57 72 81 83 55 30 26 27 30 37 41 43 50 49 45 42 36 31 34 45 63 64 65 65 72 71 71 79 88 100 100 96 99
42 42 46 50 55 60 63 64 64 62 60 59 67 74 68 36 30 30 34 37 45 48 54 51 46 42 37 32 40 52 56 57 58 62 65 70 71 75 86 96 96 94 92 100
41 41 42 45 46 53 62 66 68 65 61 60 62 57 42 33 34 38 44 50 53 59 52 46 42 37 33 39 41 46 50 55 61 65 69 73 78 87 94 96 96 95 100 99
48 52 52 51 54 59 63 69 68 64 64 64 56 42 36 38 43 51 56 60 61 49 46 43 37 33 35 40 42 48 55 60 64 69 73 76 83 92 98 98 100 99 92 94
57 58 59 60 62 64 71 70 67 70 70 62 52 46 49 56 62 69 71 54 48 46 42 35 33 36 39 42 48 55 59 62 69 74 76 79 88 97 98 95 94 95 97 96
62 63 67 66 67 72 74 70 72 78 73 66 64 67 72 82 81 58 49 47 45 36 30 31 34 39 44 50 56 62 67 71 72 81 93 92 92 95 95 95 96 98 100 99
66 70 70 70 74 76 74 72 75 77 78 79 85 91 84 58 50 49 47 38 32 33 36 38 43 50 56 61 64 69 74 75 79 83 88 93 93 95 96 95 93 91 94 93
69 70 71 76 80 79 79 79 83 87 89 89 71 54 50 50 49 40 32 32 35 37 41 47 53 57 61 67 70 73 75 78 85 93 97 97 94 92 92 92 92 93 93 94

GFSNGP_850_rhum_012.txt.gz
RH
43 42 39 41 46 42 46 44 44 36 36 28 24 32 33 38 39 41 49 62 67 73 72 69 66 65 58 58 68 69 66 56 50 43 28 14 8 9 10 14 21 24 26 25
42 48 42 42 39 41 43 41 37 33 34 24 26 32 35 35 39 44 47 57 67 74 75 70 68 66 58 65 72 70 62 55 48 33 16 9 10 11 17 24 27 28 28 28
48 41 43 52 42 40 36 33 32 38 30 28 35 33 34 39 45 46 50 57 66 74 77 72 72 66 62 71 72 69 60 50 37 20 10 10 12 18 25 28 29 29 31 31
47 46 67 36 39 32 35 31 30 30 32 31 31 40 48 49 48 52 51 52 61 73 75 76 73 63 67 72 74 64 54 40 24 11 11 13 18 25 29 31 32 35 37 37
58 49 37 35 44 40 44 40 35 35 33 41 47 48 56 59 53 51 49 51 58 65 75 78 71 66 71 76 68 55 43 29 12 12 13 17 23 28 32 33 34 39 40 49
64 58 52 35 42 37 35 36 37 35 40 46 46 44 44 60 53 50 50 53 58 68 78 75 67 70 75 73 59 47 34 15 12 14 18 22 26 32 34 34 40 47 50 51
62 90 41 37 41 44 39 40 48 44 47 49 43 48 60 52 50 51 52 57 66 74 74 68 70 75 76 63 50 39 19 13 15 18 20 24 34 35 35 40 46 49 50 54
60 85 63 46 47 43 49 58 55 54 54 55 58 54 51 51 52 56 58 64 70 71 70 71 76 78 71 52 40 22 15 15 18 20 24 35 36 33 32 48 49 48 54 62
42 42 59 61 55 53 55 55 56 54 52 48 51 52 54 55 54 56 62 67 71 72 74 78 80 80 56 38 29 16 16 18 19 23 37 38 35 33 45 49 51 56 64 70
54 59 58 61 62 61 56 52 50 48 48 49 51 55 54 55 54 55 61 71 78 80 80 82 84 58 50 33 18 17 18 19 26 38 38 35 40 47 44 52 61 66 75 76
66 65 61 62 60 54 53 51 50 53 54 56 56 60 61 63 64 64 68 77 82 84 84 85 60 51 40 19 18 19 20 28 39 40 41 41 41 44 50 59 70 90 90 92
47 50 49 52 61 57 55 56 56 55 59 57 52 52 53 61 68 74 78 84 87 86 82 64 55 38 20 19 20 21 29 39 41 39 43 39 44 52 65 79 92 95 88 99
47 58 59 60 62 60 57 60 60 57 48 39 37 39 47 58 71 81 87 90 88 81 70 71 35 21 21 22 22 30 40 42 41 43 44 52 61 67 70 68 80 88 94 96
58 59 77 70 68 64 59 61 58 48 36 35 38 40 46 65 81 90 94 85 82 77 76 27 22 23 23 23 30 40 43 41 38 42 52 62 72 74 73 75 79 79 84 92
71 62 64 63 65 65 60 56 50 35 37 39 40 43 50 66 78 82 87 82 81 66 22 23 24 24 26 30 40 44 43 39 35 35 53 62 77 78 80 82 83 82 81 82
69 65 66 64 64 62 58 41 38 40 42 43 46 50 58 70 79 87 85 82 57 24 25 25 26 28 32 40 46 44 41 37 31 33 60 76 82 82 84 84 82 81 84 83
72 83 74 67 62 52 38 40 41 42 45 49 57 66 68 74 84 89 82 47 26 26 26 27 30 33 40 47 46 43 39 34 32 47 78 85 87 86 86 84 87 85 86 91
59 59 58 52 38 38 39 40 42 44 48 55 58 64 74 82 87 82 49 28 27 27 29 32 36 41 48 48 44 40 35 37 54 80 90 88 88 91 91 88 89 91 92 97
63 58 46 37 36 38 42 44 46 47 47 49 55 69 83 92 91 68 34 29 28 29 34 39 43 50 51 46 41 36 36 58 89 89 89 89 87 87 88 90 94 98 99 99
54 37 36 39 46 49 50 52 52 53 54 54 61 75 83 85 71 42 30 29 31 35 39 44 52 54 46 42 37 37 71 90 88 82 82 87 85 86 92 98 100 100 100 100
39 42 46 49 52 54 55 56 59 61 61 60 64 72 77 74 48 32 30 34 40 43 48 58 55 46 43 36 46 88 75 80 67 76 79 83 88 94 100 100 100 100 100 100
44 47 48 46 48 50 55 60 65 66 64 62 62 63 64 50 36 34 37 42 49 55 62 52 45 42 33 34 70 54 45 46 52 61 71 83 93 100 100 100 100 100 100 100
44 43 46 48 49 55 62 67 69 67 65 64 62 57 46 39 38 44 54 59 67 59 48 46 38 30 32 39 42 42 47 53 58 63 70 76 86 90 100 100 100 100 100 100
48 51 53 55 59 64 70 71 69 67 66 64 59 51 47 50 59 66 74 66 49 48 42 31 30 33 37 40 45 50 54 58 64 70 73 80 89 100 100 100 100 100 100 100
52 57 62 65 66 70 72 72 70 71 71 67 64 65 69 76 85 65 50 49 45 32 28 30 33 38 42 47 52 56 60 64 70 83 99 92 91 100 100 100 100 99 99 90
66 66 68 70 72 74 74 73 73 74 74 76 79 88 87 61 50 50 47 33 29 30 31 32 37 46 50 53 57 61 68 72 79 83 88 93 96 98 96 91 90 90 89 86
67 70 71 72 76 78 79 78 80 81 85 90 83 59 52 51 49 37 30 30 32 31 32 38 44 48 53 58 62 68 75 79 84 90 95 94 91 91 91 90 89 87 86 87

GFSNGP_850_rhum_015.txt.gz
RH
32 32 41 48 51 52 51 44 42 33 32 25 22 25 28 31 35 39 44 50 52 59 60 59 59 56 52 53 56 64 65 62 59 51 40 24 12 9 10 14 23 28 33 39
44 39 35 38 38 40 43 42 40 34 33 22 21 22 26 30 33 36 42 48 52 60 61 61 59 56 54 56 62 67 66 63 55 45 27 12 10 10 15 22 29 37 41 42
46 39 43 50 38 36 37 34 34 38 31 25 26 26 28 29 32 34 37 44 54 60 64 64 60 58 58 58 66 68 66 58 47 34 17 11 11 15 22 30 38 41 42 41
52 43 68 33 31 30 32 31 30 30 28 26 26 28 30 33 36 37 43 48 54 62 69 67 62 61 56 59 69 69 62 49 38 22 12 12 16 22 28 36 40 41 40 40
59 58 46 33 34 34 35 36 28 28 26 27 35 44 49 51 45 50 53 56 64 69 73 68 65 62 62 68 71 66 51 39 26 14 12 15 19 23 34 40 40 38 38 43
67 60 57 36 35 30 29 42 24 27 28 33 42 44 44 60 62 56 54 62 68 73 70 70 66 65 67 69 69 56 44 33 19 13 15 18 21 34 39 39 36 40 43 43
92 70 54 33 34 33 40 44 36 32 31 39 41 43 57 58 57 52 51 52 60 68 72 65 67 67 67 72 62 47 39 28 14 15 18 20 34 38 34 32 38 44 43 44
78 84 84 38 42 40 47 45 39 39 41 45 58 60 61 59 51 52 50 59 68 69 66 66 68 71 74 69 50 47 41 17 16 17 20 33 38 35 31 43 47 43 45 48
43 53 49 46 48 50 48 47 47 48 53 55 58 63 59 55 54 55 59 63 68 67 67 69 73 77 75 63 55 51 18 17 18 18 32 39 38 36 44 48 47 49 53 60
40 47 48 48 56 54 49 51 53 55 55 54 60 64 64 60 57 58 61 66 70 71 72 76 79 80 66 63 60 19 18 18 20 31 38 40 44 49 48 49 56 62 71 85
47 56 56 56 55 57 57 58 57 56 56 57 54 63 59 63 65 66 65 69 74 76 71 77 82 74 62 59 21 18 19 19 29 40 42 44 49 47 50 56 67 82 90 94
40 43 41 46 55 60 60 60 52 49 54 57 55 49 53 58 62 67 70 73 79 80 81 82 75 65 54 21 19 18 19 29 41 43 48 51 49 47 53 62 69 74 82 88
40 47 51 54 62 61 63 61 59 54 52 47 44 39 41 46 56 67 75 80 84 84 84 77 69 49 21 20 19 22 30 42 45 46 53 53 56 59 60 58 66 70 76 80
59 58 61 63 66 67 61 58 57 51 42 36 34 36 39 48 54 73 84 86 87 82 79 73 40 23 21 21 23 30 43 46 50 55 51 53 58 64 69 70 72 74 74 76
65 61 60 64 72 75 62 59 53 42 35 36 37 39 43 52 66 71 75 85 84 77 73 36 23 22 22 25 31 42 47 49 51 45 45 61 66 68 71 74 75 76 76 76
74 68 71 73 76 67 62 57 44 38 40 40 40 42 46 52 63 67 76 81 78 71 32 24 23 24 27 33 42 48 49 48 51 55 56 64 72 74 77 77 79 81 82 82
71 92 82 77 70 65 57 49 43 39 38 38 40 45 52 60 68 80 86 82 77 35 24 24 25 29 36 41 48 49 46 46 54 58 67 74 78 80 79 84 82 82 85 88
60 57 65 62 64 56 42 39 36 34 37 40 46 53 60 69 82 86 84 74 36 26 25 27 32 37 40 48 52 46 42 42 52 65 76 80 79 83 81 81 83 86 90 92
64 68 68 61 46 38 36 35 37 39 42 46 50 57 74 86 89 86 80 51 29 28 37 34 38 42 51 55 46 42 38 48 76 80 78 76 76 78 78 81 87 92 96 96
68 60 50 38 36 33 36 41 46 48 50 53 59 68 74 78 82 84 68 37 34 37 36 41 45 56 56 46 43 35 48 82 81 76 72 75 75 77 83 88 93 98 98 98
50 39 36 35 40 45 49 50 52 55 58 59 58 59 63 69 75 62 39 35 41 38 43 50 60 55 45 42 30 32 68 73 67 69 71 76 80 85 90 95 100 100 100 99
39 38 40 45 49 51 53 56 59 59 60 60 59 60 65 70 58 40 37 41 42 49 58 64 49 46 36 27 29 47 57 52 58 66 73 82 86 90 100 100 100 100 100 100
43 45 45 46 47 50 57 60 61 62 62 62 62 62 60 49 41 40 50 49 61 70 55 47 42 27 27 31 37 44 48 55 61 68 80 83 86 99 100 100 100 100 100 100
43 43 47 49 51 56 58 62 64 65 65 64 61 56 49 46 50 56 66 75 60 48 45 28 26 29 32 37 45 51 56 60 63 71 80 97 99 100 100 100 100 100 100 100
47 50 52 54 58 62 67 70 70 70 69 66 61 59 61 66 76 79 56 49 46 30 26 27 29 33 38 44 50 53 56 61 73 93 91 90 91 98 100 100 99 93 100 94
54 57 60 63 66 70 73 73 72 71 70 69 70 75 84 78 54 50 48 33 27 28 28 29 31 36 42 47 51 56 63 71 76 81 89 92 95 98 93 91 91 92 89 88
58 61 64 69 73 76 76 75 75 75 77 81 86 78 56 51 50 38 28 29 30 30 30 31 32 37 46 52 56 64 73 78 83 89 90 92 93 93 94 94 94 91 90 89

GFSNGP_850_rhum_018.txt.gz
RH
89 62 61 65 68 64 58 54 54 39 37 33 37 40 36 32 38 44 47 49 52 59 62 61 61 58 54 53 54 55 60 62 62 60 54 44 29 14 10 13 16 22 27 28
48 48 55 65 60 60 55 49 48 49 47 26 27 29 33 33 37 43 46 50 52 59 61 59 59 57 53 52 54 58 63 64 63 58 49 34 17 12 14 16 21 28 30 32
55 41 46 54 53 52 50 48 47 56 42 31 30 32 34 32 36 41 44 50 52 58 60 59 59 57 54 54 56 62 65 65 60 52 42 24 13 14 16 21 30 32 29 28
58 47 70 39 34 34 38 38 40 38 35 31 34 38 36 31 33 36 41 46 52 58 62 62 60 58 57 57 58 64 66 62 53 46 30 14 14 14 19 30 32 30 27 31
69 67 50 40 35 37 42 43 34 36 36 44 44 42 52 45 39 43 45 48 54 60 65 65 62 60 59 55 61 67 65 53 46 29 16 14 14 17 30 34 30 27 29 29
90 77 69 44 36 32 33 53 42 38 36 50 44 63 67 53 51 53 56 59 63 67 70 67 63 61 61 63 67 67 56 47 39 20 15 14 15 28 35 34 29 29 26 29
86 90 72 39 34 32 50 52 44 36 38 48 64 57 58 60 60 59 63 66 67 68 66 66 66 65 64 64 68 59 49 46 24 16 14 15 26 36 37 34 31 29 29 30
96 99 92 38 41 45 53 43 40 42 46 64 63 63 64 63 61 56 55 63 65 64 66 67 65 63 64 70 65 52 53 28 16 14 15 28 39 41 35 32 33 32 37 41
79 80 51 46 52 48 47 45 50 54 55 55 61 62 59 60 56 57 59 62 64 62 64 64 65 68 74 72 59 58 31 16 14 17 30 41 42 37 34 34 38 44 52 62
47 53 54 52 52 50 48 50 53 53 55 54 58 57 57 56 56 56 59 60 61 63 66 68 73 77 76 62 61 34 17 14 18 31 42 42 38 34 37 40 49 57 70 77
56 58 56 53 52 52 52 54 55 55 54 54 52 57 52 54 53 53 56 64 67 69 70 74 79 79 64 61 41 18 15 19 31 42 43 41 36 36 40 43 59 70 73 76
56 47 46 54 55 55 55 56 56 54 59 58 50 58 60 66 67 65 67 70 74 70 71 75 80 70 64 43 18 16 20 29 41 44 44 40 38 36 34 43 64 73 76 79
49 47 46 56 58 58 58 57 56 51 50 51 55 50 47 50 62 68 70 75 78 78 80 80 73 68 43 20 18 21 28 37 42 46 44 41 39 39 42 38 60 68 76 79
50 51 63 60 63 62 59 62 56 53 47 39 36 39 39 42 55 64 72 78 81 83 82 76 70 38 21 19 22 27 32 41 48 47 43 42 42 53 61 68 68 64 70 81
55 54 57 62 65 65 61 58 51 43 38 36 38 36 37 41 50 59 68 79 85 81 76 71 36 22 21 24 27 29 36 48 48 44 46 50 52 57 66 69 77 78 77 78
64 62 64 66 70 67 62 54 43 40 39 39 37 38 41 45 51 60 69 78 78 75 74 38 24 24 26 28 30 34 48 50 44 49 58 49 52 60 69 78 78 81 83 82
70 84 77 78 73 70 58 49 39 39 40 36 37 42 48 54 62 70 77 78 77 76 40 26 26 27 29 31 35 49 53 44 42 44 47 49 59 72 79 77 79 81 80 86
60 56 66 65 69 60 52 45 41 38 35 40 44 49 56 63 66 74 80 80 76 40 29 28 29 30 33 38 50 54 44 40 37 46 49 61 69 76 67 74 76 81 86 89
62 63 72 71 61 52 43 39 35 37 40 42 47 52 57 66 70 74 79 71 40 32 30 30 32 34 40 55 53 44 36 28 39 56 56 53 60 68 68 76 82 91 94 94
74 71 69 60 47 37 34 36 38 38 42 46 49 55 60 67 79 85 77 49 38 34 32 34 38 46 60 50 44 30 26 33 48 48 45 56 62 70 77 79 93 94 93 100
67 62 47 38 36 37 37 40 39 42 49 53 54 56 62 71 76 72 54 39 37 37 38 44 59 60 47 40 24 25 27 34 40 44 52 62 69 73 79 83 89 95 100 100
47 39 36 35 36 42 46 47 48 51 54 56 58 62 65 68 66 53 41 37 40 44 58 65 49 46 30 24 25 26 32 39 46 53 62 69 76 84 88 93 100 100 100 100
37 35 38 40 40 43 50 54 55 56 58 61 62 62 61 56 48 41 42 51 60 71 54 47 34 24 24 24 27 32 39 45 52 60 68 73 81 93 100 99 100 100 100 100
41 42 41 44 45 49 51 59 62 64 64 63 61 58 54 49 49 54 65 75 58 48 39 23 23 23 24 27 31 37 45 52 58 67 79 97 93 93 95 98 97 100 98 92
40 43 45 48 51 58 63 67 68 67 66 64 61 59 58 63 73 78 57 49 43 26 22 23 24 25 26 29 37 46 53 61 71 87 90 91 89 90 94 96 95 94 100 91
47 48 52 58 60 65 68 70 68 68 68 67 67 71 78 80 58 50 46 31 23 24 26 27 27 27 29 36 48 57 66 75 83 85 89 89 92 95 94 92 92 93 89 87
55 57 59 63 70 72 72 72 72 71 72 74 80 83 63 51 49 39 26 25 27 29 30 29 27 29 39 51 60 69 77 79 84 87 91 94 90 91 93 94 93 90 90 85

GFSNGP_850_rhum_024.txt.gz
RH
95 90 97 83 76 80 98 84 98 74 63 58 45 46 56 57 63 67 70 70 66 66 67 63 60 59 56 52 48 46 47 52 56 60 61 58 52 39 21 14 14 25 30 27
98 90 95 98 90 81 93 92 97 93 59 37 45 47 60 60 62 65 68 68 65 64 65 65 63 62 58 54 50 50 50 54 59 62 59 53 45 29 16 14 24 32 30 24
100 85 90 100 90 96 92 88 91 76 44 44 45 46 62 60 58 60 62 62 62 61 62 64 64 62 60 56 53 52 52 57 62 60 54 48 35 18 13 23 34 32 26 26
91 89 79 45 52 62 70 59 52 47 43 42 46 57 49 54 53 55 57 59 60 60 62 63 64 63 60 56 54 53 54 60 62 55 50 44 20 14 24 35 34 29 27 27
97 92 61 44 44 50 63 60 46 55 50 57 56 48 56 48 51 50 52 54 55 56 59 62 63 62 59 55 53 53 58 62 58 54 48 23 14 25 38 38 33 30 29 28
96 90 74 47 41 37 38 62 48 44 59 60 54 58 63 52 49 51 53 53 54 58 60 62 63 60 57 55 54 56 63 61 55 51 26 14 24 39 40 38 33 32 28 24
89 96 80 58 42 40 49 49 51 53 53 54 54 57 63 63 56 52 53 54 58 60 61 62 61 57 56 57 56 63 63 54 53 28 14 24 39 42 41 37 33 30 24 21
93 96 87 47 38 37 46 60 64 66 62 62 73 70 66 63 60 59 58 61 62 62 62 60 58 58 59 58 64 63 57 56 29 15 23 38 42 44 41 36 33 25 21 23
80 79 59 52 50 52 48 54 62 65 63 54 72 70 66 66 65 64 64 65 64 64 63 61 61 61 64 65 67 62 58 27 16 22 37 42 46 45 39 34 26 21 32 43
70 59 56 52 52 50 48 48 54 58 61 60 65 69 70 70 70 70 70 69 68 66 64 63 61 61 68 72 65 60 30 16 20 33 40 46 48 43 37 28 22 32 48 62
67 59 56 54 52 51 53 53 56 61 59 60 60 64 59 60 60 60 60 60 60 60 61 61 62 70 73 66 60 31 17 20 29 37 43 48 47 40 33 24 32 60 66 78
73 52 49 52 54 54 53 57 57 55 60 56 48 48 50 51 51 52 55 58 60 62 65 68 73 75 67 58 29 18 20 28 32 38 47 49 42 35 23 26 29 33 38 75
49 48 49 54 59 57 55 58 57 51 50 49 48 42 43 48 53 54 57 60 64 67 72 76 78 69 60 31 20 21 27 30 34 46 51 44 37 28 32 25 28 30 38 48
48 50 68 63 65 60 54 57 52 51 49 44 45 49 49 52 61 62 66 68 68 70 75 78 70 63 33 22 23 26 29 32 44 52 45 37 28 34 36 37 40 39 44 52
54 48 49 58 62 62 57 57 57 58 56 57 54 47 49 55 63 68 71 73 74 76 77 71 64 37 25 24 27 30 32 44 53 46 35 28 33 32 34 39 42 44 46 48
60 58 62 61 64 63 58 57 53 59 51 48 45 48 51 53 59 67 73 76 76 77 72 63 37 26 25 27 30 33 46 55 46 31 23 28 31 34 38 43 48 50 51 59
66 80 71 70 66 66 59 52 43 43 41 37 37 42 47 52 60 68 75 76 74 72 61 35 27 26 28 32 36 49 56 44 27 22 28 32 35 38 46 51 54 56 59 62
50 52 59 57 63 62 56 45 41 39 35 35 40 44 47 51 56 68 71 71 70 59 33 30 29 31 35 39 55 54 40 23 20 24 28 30 36 44 49 54 58 65 67 68
60 58 63 63 64 57 47 44 40 35 37 40 45 52 59 64 68 71 73 72 58 36 33 34 35 37 47 60 50 35 21 21 23 26 30 35 41 46 52 60 67 73 77 80
67 67 67 66 59 48 44 41 36 39 44 48 54 60 66 69 71 72 69 51 40 38 37 37 42 59 60 44 26 20 20 23 25 29 34 42 47 54 62 68 76 80 81 85
74 74 69 60 52 46 40 37 36 42 54 56 54 59 62 70 74 68 58 46 40 40 42 54 65 50 37 21 21 22 23 25 28 33 40 48 55 62 70 76 78 85 86 86
78 69 60 54 46 42 41 42 42 48 56 60 60 60 64 70 65 53 45 42 42 50 67 59 44 27 21 21 22 23 24 26 32 40 48 57 67 74 76 81 86 84 86 83
67 59 52 43 39 43 50 49 49 49 52 56 58 62 62 59 50 44 44 52 67 65 48 36 22 20 21 23 24 24 26 32 41 51 60 68 74 79 82 83 80 81 81 86
59 49 43 44 44 46 49 57 56 57 58 61 61 58 52 49 49 54 68 70 50 43 27 21 22 23 24 24 23 26 34 43 54 61 67 73 77 76 68 70 73 84 89 89
46 45 44 44 44 48 50 57 59 61 60 58 55 53 56 63 71 71 54 47 35 23 23 23 24 24 23 23 27 36 46 56 62 68 73 75 72 65 66 71 77 91 95 95
46 45 46 46 44 49 53 59 56 60 59 58 60 64 72 72 57 50 41 28 23 23 24 24 24 24 23 26 36 47 56 63 66 70 75 74 66 76 81 76 88 94 94 92
50 52 54 56 57 58 59 60 58 61 63 64 68 75 64 52 47 37 26 24 24 25 26 25 24 22 25 36 46 55 62 68 74 75 76 68 82 89 90 81 92 96 99 95

GFSNGP_850_rhum_027.txt.gz
RH
93 81 80 100 98 91 97 78 86 56 54 45 46 64 65 72 82 86 84 77 69 65 62 59 55 51 47 44 43 43 44 48 52 56 58 58 54 48 37 24 16 19 30 30
96 85 94 96 96 87 80 76 78 76 75 45 61 56 67 72 76 81 84 79 70 66 63 60 56 53 50 47 45 44 46 49 53 58 60 56 52 43 30 17 18 33 32 28
93 96 95 100 94 95 83 73 80 97 78 63 54 54 64 70 69 73 75 70 67 64 63 60 58 56 54 51 48 47 47 50 55 59 58 53 46 36 18 18 34 35 32 29
100 100 98 86 86 82 92 86 84 84 77 70 53 57 60 61 63 66 68 68 67 66 67 64 62 60 58 54 51 50 50 52 57 59 54 50 43 20 17 34 38 36 32 30
100 98 68 48 68 94 97 93 82 87 74 60 62 52 62 58 57 57 57 58 58 60 62 66 65 63 59 55 54 51 52 55 59 56 53 45 21 17 34 39 39 37 33 30
92 100 81 50 44 40 63 65 56 70 63 65 56 49 54 57 56 56 57 57 56 60 64 66 66 64 60 56 53 52 52 58 59 54 46 26 16 34 40 41 41 36 32 24
90 94 83 58 56 42 52 50 54 54 55 60 53 67 64 60 60 58 57 57 60 62 63 66 66 63 59 55 52 53 58 60 53 49 30 16 32 40 42 43 40 35 26 19
93 94 77 55 44 42 47 59 65 67 61 71 73 77 71 65 63 63 60 63 64 63 66 66 64 60 56 54 55 58 60 54 52 29 17 29 38 41 45 43 38 27 19 17
83 79 61 54 54 55 53 58 64 69 69 54 69 71 70 70 68 67 64 65 66 64 66 63 58 56 57 57 60 62 56 53 28 17 27 36 40 45 46 41 29 20 23 23
74 61 62 53 53 52 53 55 63 66 67 59 64 69 69 68 68 67 67 66 65 64 60 56 57 59 61 64 63 58 54 27 17 25 34 38 45 48 44 34 24 22 25 32
74 63 56 53 52 53 55 57 61 70 68 65 63 67 65 66 66 65 64 64 63 63 62 61 60 61 65 67 62 56 28 18 24 30 33 41 48 46 38 26 26 32 36 51
75 55 49 51 52 54 54 60 60 61 70 69 63 66 67 68 67 65 64 64 63 62 63 60 62 69 69 62 53 25 18 23 28 30 39 49 47 40 28 25 22 25 31 40
54 49 49 52 57 55 56 61 60 58 60 60 59 52 48 52 54 54 56 58 58 60 62 66 70 72 63 51 25 20 23 27 30 39 50 48 38 26 22 16 18 24 32 39
50 50 70 66 65 61 56 60 58 55 52 48 47 47 45 49 54 56 59 62 65 69 72 74 74 67 53 26 21 24 28 31 40 52 48 36 24 24 26 27 31 31 35 44
58 53 52 57 62 63 59 56 50 49 48 47 47 44 45 49 57 61 64 66 69 73 76 75 67 55 28 24 25 29 32 41 53 48 32 21 22 23 26 31 36 40 44 48
60 59 62 61 64 64 57 52 46 50 48 49 48 51 53 56 62 67 69 70 71 75 72 67 56 30 26 27 29 32 43 55 46 28 18 19 22 25 30 36 42 47 50 60
66 80 73 72 67 66 58 52 45 49 49 46 46 51 55 59 66 72 73 73 74 73 67 51 31 28 28 31 34 48 57 44 23 18 20 23 26 29 38 45 49 55 62 68
52 50 57 55 62 62 60 53 46 43 41 41 47 49 50 55 59 69 73 73 72 65 43 31 30 30 33 37 54 56 38 20 18 20 22 24 28 37 44 49 56 65 70 69
58 54 58 61 62 59 54 47 40 38 37 38 42 47 51 56 61 67 69 69 63 45 33 32 34 35 44 61 51 31 18 18 20 22 24 28 36 43 50 60 69 72 76 75
62 62 62 64 62 53 44 40 38 36 39 42 46 52 58 64 66 68 68 62 41 36 36 36 40 56 62 44 24 19 20 22 22 23 30 39 47 54 63 70 74 75 76 79
67 67 68 64 57 47 41 39 34 40 46 48 46 52 60 68 71 68 60 48 42 39 39 48 65 53 39 20 19 21 22 22 24 32 42 50 58 63 68 72 74 74 71 78
74 72 68 60 50 48 43 40 38 40 49 53 57 58 63 69 67 57 48 43 41 44 62 62 45 29 20 21 23 22 22 25 33 42 50 58 65 68 70 70 65 66 74 83
76 70 62 53 48 44 46 45 46 46 51 56 58 61 64 62 57 48 44 45 58 68 51 39 23 21 22 23 23 23 26 33 41 49 58 64 68 73 69 64 67 72 78 87
72 64 56 49 43 41 50 59 56 58 57 60 62 62 57 51 47 48 57 69 58 46 31 22 22 23 24 23 23 26 33 42 49 56 62 69 73 66 67 80 75 75 88 89
64 55 46 41 40 48 50 56 56 58 58 60 59 54 50 52 60 68 65 50 40 26 23 23 24 24 23 22 24 32 41 50 56 62 68 72 68 67 84 88 78 83 91 95
53 46 44 42 38 42 46 51 49 57 57 55 53 55 63 72 67 53 45 34 24 24 24 25 24 22 21 23 30 40 49 56 60 66 71 74 70 84 87 86 75 82 90 90
50 45 47 48 48 46 48 52 52 56 56 56 59 70 70 57 50 42 31 24 24 26 26 25 22 20 21 26 37 47 54 61 67 69 72 73 78 87 89 83 74 81 92 91

GFSNGP_850_rhum_033.txt.gz
RH
84 76 75 96 96 97 98 88 96 67 88 64 51 47 53 65 72 96 98 92 90 91 94 98 99 97 92 84 72 56 49 44 44 46 50 53 55 54 52 50 44 33 24 28
96 85 82 99 95 96 97 94 97 90 88 54 49 59 66 72 77 98 100 92 87 88 92 91 91 88 79 69 59 52 47 44 46 49 53 55 54 53 51 45 35 26 29 35
90 73 89 100 99 97 98 96 84 96 68 56 56 57 71 69 82 95 100 91 85 85 88 85 83 80 70 62 54 47 45 46 49 52 54 55 53 51 45 37 28 30 36 38
97 97 98 91 87 86 91 96 88 80 74 60 57 64 74 73 73 93 96 89 82 80 76 72 69 64 59 53 47 45 46 48 51 54 55 54 50 45 40 30 30 36 39 40
100 96 74 59 65 82 97 86 76 86 70 58 78 78 69 77 77 82 88 84 78 74 69 65 61 57 53 46 44 45 47 50 52 54 54 51 47 42 30 29 36 38 40 40
94 99 97 64 63 69 73 71 78 75 72 78 76 85 76 82 78 82 83 76 71 70 66 62 56 50 45 44 44 46 48 50 52 53 50 49 46 32 28 35 37 40 42 37
97 100 81 59 65 65 60 64 72 83 76 77 86 82 84 84 83 82 78 74 71 68 63 58 53 48 46 45 46 47 49 52 52 51 50 46 32 27 34 36 40 43 40 27
93 91 89 62 56 57 58 60 63 64 66 80 88 80 73 78 82 81 78 76 73 69 64 58 54 50 49 47 47 49 51 52 53 52 49 32 26 33 34 39 44 42 27 16
75 78 63 63 60 60 66 72 72 75 68 64 71 74 80 83 83 84 79 78 75 69 65 59 54 52 52 50 50 51 52 55 54 51 28 26 31 33 38 44 42 25 17 15
77 61 68 56 58 60 67 75 79 74 68 64 65 78 80 82 83 82 80 78 75 70 65 59 54 53 54 51 51 54 58 57 48 25 25 29 31 37 46 41 24 18 17 18
81 72 64 60 60 60 67 74 70 72 68 68 68 75 78 79 79 78 78 76 72 68 63 56 52 52 52 54 57 58 57 42 23 24 28 30 37 46 40 23 20 21 23 28
74 60 57 58 64 65 66 68 67 62 69 72 71 74 74 75 75 74 73 71 67 62 57 51 52 55 56 58 58 57 36 22 24 27 30 40 48 37 21 18 19 21 24 29
62 55 56 62 64 66 68 68 67 65 67 70 72 71 71 70 70 69 67 62 58 55 54 56 59 63 62 58 42 28 22 24 27 32 45 49 32 16 16 16 18 20 25 32
56 56 68 68 67 67 66 69 66 65 68 67 67 67 66 64 61 59 57 57 58 60 61 64 67 64 50 37 26 23 26 28 35 49 48 23 17 18 20 21 22 19 24 35
59 59 59 61 66 68 71 69 68 68 68 66 64 62 62 61 61 61 61 60 61 64 68 68 66 53 34 26 26 26 29 38 52 40 18 17 19 20 22 24 28 33 38 42
66 62 69 65 71 70 70 69 65 66 60 60 56 56 56 56 57 59 61 64 67 70 68 62 52 36 27 27 28 30 44 54 30 17 18 20 20 22 24 29 37 44 50 58
68 79 78 73 70 69 68 59 50 51 50 50 51 52 54 57 62 66 69 70 73 67 60 51 39 28 28 29 34 53 50 22 18 19 20 20 22 26 33 43 50 55 57 54
59 57 62 60 66 64 61 51 47 46 47 49 52 55 57 59 63 69 71 72 68 61 50 37 29 29 31 40 57 39 19 18 20 20 20 22 26 36 46 51 58 60 54 53
59 57 62 64 62 57 52 49 48 48 50 52 54 57 58 60 64 67 71 70 65 57 40 32 32 34 49 57 32 18 19 21 20 19 20 26 36 45 52 60 61 58 65 61
60 64 65 65 62 53 48 50 50 51 51 51 54 57 60 64 65 66 69 65 52 39 34 35 39 57 51 27 19 20 21 20 18 20 30 39 46 52 60 64 60 68 72 65
64 66 69 66 61 54 48 48 47 46 51 45 41 50 54 62 64 63 62 52 40 38 38 44 62 44 23 20 21 21 20 17 21 31 40 46 52 59 64 63 69 78 75 71
65 66 70 65 60 58 54 49 42 35 43 47 47 50 55 61 62 60 51 44 41 40 52 61 41 22 20 22 22 19 16 21 31 40 48 56 62 65 66 68 76 77 71 72
73 72 71 66 61 55 54 50 38 36 40 46 47 51 52 55 58 50 44 43 44 61 55 38 22 21 22 22 18 16 19 28 38 47 55 60 64 68 70 76 81 83 70 70
77 77 72 67 59 50 47 46 42 42 44 50 53 55 52 53 51 47 46 50 64 49 34 23 22 23 22 18 16 18 26 37 45 53 60 62 65 71 74 79 84 80 69 71
79 76 70 61 50 44 40 44 48 53 55 58 60 61 56 50 43 49 58 60 45 31 23 22 23 22 18 16 18 23 33 43 49 55 60 62 65 70 74 79 84 81 71 78
80 73 62 52 43 39 39 45 48 56 55 59 61 56 50 49 55 63 53 41 29 24 23 24 22 19 17 18 21 29 39 47 53 61 62 63 65 70 74 77 81 81 75 77
78 67 59 52 46 41 39 46 44 52 56 53 49 49 53 65 62 49 39 29 24 24 24 23 21 19 19 21 24 34 45 54 62 62 61 64 67 70 74 74 79 80 80 92

GFSNGP_850_rhum_036.txt.gz
RH
67 60 63 80 87 93 99 93 94 62 63 62 49 55 42 41 51 61 76 84 84 84 85 88 82 92 96 95 90 90 87 70 48 42 42 46 50 51 50 50 48 44 36 30
96 71 76 99 92 96 97 96 97 91 86 49 43 45 44 43 48 67 85 85 83 82 82 77 90 96 95 90 86 75 58 51 42 43 47 50 51 50 49 48 44 37 31 32
94 76 78 94 97 96 95 93 86 97 64 45 48 50 52 67 70 73 84 87 80 79 77 77 95 96 89 85 68 56 53 44 44 48 50 51 51 50 47 44 38 32 32 34
99 91 93 70 63 73 86 79 83 64 55 54 63 66 70 79 80 77 90 84 78 77 79 87 89 84 84 67 58 54 44 46 48 50 52 51 50 47 44 39 32 32 35 37
100 93 69 54 53 62 93 94 81 80 69 66 66 68 73 90 91 92 87 80 75 87 88 80 75 72 61 50 45 45 46 48 50 52 52 51 48 45 40 32 31 34 37 39
100 96 81 51 49 59 72 96 93 91 82 78 78 66 69 93 100 95 82 76 77 80 75 74 64 59 53 47 45 46 48 50 51 51 51 50 46 40 32 31 34 36 39 40
97 98 68 45 51 61 55 62 64 88 85 81 81 77 90 97 96 97 83 78 74 69 66 63 58 52 47 44 45 47 49 51 51 50 49 46 40 30 31 33 34 39 41 31
98 90 82 54 49 56 53 60 61 64 81 95 82 89 95 95 93 86 81 75 70 66 60 55 52 46 44 44 46 48 50 51 52 51 46 38 28 30 31 34 41 42 30 16
61 54 49 59 57 62 70 69 71 74 77 95 88 93 88 89 90 90 83 81 76 66 56 48 45 44 45 46 47 49 51 52 50 47 37 27 29 31 35 42 41 25 17 19
65 50 53 54 63 66 69 79 84 78 74 74 73 80 84 86 86 82 78 72 66 59 53 48 46 46 48 48 50 51 52 51 49 34 26 28 30 35 43 39 21 19 39 50
64 52 50 61 67 70 69 70 74 70 69 70 76 81 81 82 82 80 76 71 65 59 54 50 47 48 50 50 51 53 55 50 31 26 28 29 36 45 35 18 18 20 26 27
54 51 53 54 68 69 70 68 71 69 74 77 76 77 78 79 78 77 74 69 63 58 53 49 50 51 51 52 54 58 47 27 25 27 30 39 46 28 17 18 18 18 19 24
50 56 61 66 66 68 70 68 67 71 73 76 77 76 76 76 76 74 70 64 60 54 52 52 53 55 56 56 48 31 24 24 26 30 45 42 20 17 18 18 15 14 20 28
59 59 67 68 69 69 69 70 70 70 72 71 72 73 73 73 70 66 61 57 55 54 54 57 60 62 53 41 29 24 24 26 36 49 32 17 18 18 17 16 15 17 28 39
60 61 59 61 66 71 70 69 70 70 71 70 70 70 69 65 60 57 55 55 56 59 62 64 63 52 37 28 25 25 29 46 46 23 17 18 18 16 16 20 29 38 44 44
68 66 63 65 68 68 67 66 65 68 66 65 63 61 60 58 58 59 59 61 62 66 65 62 52 40 28 26 28 36 52 39 19 18 19 18 16 17 22 33 41 48 57 63
70 82 72 75 69 76 73 71 68 60 62 61 59 60 60 59 58 60 62 65 68 67 59 51 39 28 28 32 45 54 31 18 18 20 18 16 17 27 36 43 50 52 52 55
62 59 65 69 63 72 73 70 61 55 55 54 54 55 55 56 60 65 68 69 65 57 46 34 29 31 35 51 50 25 18 19 20 17 15 20 30 38 44 49 53 54 56 61
62 58 60 69 62 64 68 59 53 48 48 49 50 54 55 59 64 68 70 66 59 50 37 32 34 39 57 44 22 19 20 20 16 15 21 30 38 44 51 56 57 59 69 70
60 61 66 67 65 62 57 51 46 46 47 48 51 55 58 62 65 69 67 62 52 39 34 36 44 59 40 21 19 21 20 16 15 22 31 38 44 50 53 58 60 68 73 70
64 66 68 68 66 60 51 46 45 45 48 50 49 53 57 63 66 66 62 52 40 37 38 48 60 38 21 20 21 20 15 15 22 30 37 43 48 53 58 62 67 74 76 68
71 71 71 68 62 57 51 48 47 46 50 55 53 54 58 62 63 62 54 40 39 40 51 58 37 22 20 22 20 16 15 21 30 36 42 49 55 58 62 66 73 78 80 72
74 76 74 69 60 54 54 53 53 45 45 51 52 54 56 58 60 55 44 43 42 56 55 36 22 21 22 21 17 16 19 26 33 41 49 56 59 61 67 71 77 83 80 73
77 80 76 68 60 56 58 61 53 49 47 50 52 52 51 54 54 48 43 43 59 50 35 23 22 23 21 18 16 18 22 29 38 45 54 59 62 65 70 75 77 81 79 73
81 80 76 69 65 61 55 50 48 49 49 53 56 56 55 51 42 43 46 59 47 34 24 22 23 22 19 17 18 20 24 33 43 51 58 62 64 65 68 74 75 79 77 76
84 82 78 71 61 55 47 43 45 52 53 56 60 60 54 48 46 53 60 45 32 24 23 24 23 21 19 18 19 21 30 40 50 58 63 64 64 66 68 71 73 76 74 84
88 83 77 68 57 48 42 41 43 51 55 54 54 55 49 50 59 55 42 32 25 24 24 24 23 20 18 18 20 28 40 50 59 63 63 62 64 66 68 70 72 71 78 95

GFSNGP_850_rhum_039.txt.gz
RH
56 51 54 65 71 73 97 96 98 80 80 63 53 46 51 57 52 45 41 54 72 76 74 76 79 77 70 68 68 76 82 82 79 77 72 62 51 45 47 48 50 50 48 43
89 63 61 83 66 73 96 96 97 95 94 60 45 44 45 47 44 40 53 73 75 77 77 80 73 67 65 67 73 80 83 81 72 67 58 50 46 49 48 50 51 49 46 38
84 62 62 86 89 91 90 81 89 93 62 45 48 52 65 75 79 72 71 83 78 77 79 68 69 72 64 70 80 83 80 64 58 54 47 47 48 50 52 52 50 48 38 31
100 72 89 56 46 53 70 82 83 69 61 58 63 69 84 89 88 78 78 83 76 76 70 68 71 68 67 78 78 71 55 57 56 54 48 49 57 53 52 51 47 37 31 33
92 76 56 46 48 56 71 91 85 92 81 71 69 77 93 100 94 89 82 75 72 67 65 68 75 73 68 60 56 55 56 61 61 56 60 52 52 52 50 45 38 31 33 34
75 93 72 42 41 50 70 74 79 89 82 79 75 81 96 100 86 76 75 75 74 68 69 82 66 62 65 66 75 77 72 56 52 50 51 52 51 49 47 47 30 32 33 37
97 96 63 38 42 50 60 58 55 89 90 81 74 76 90 100 95 89 85 93 90 88 85 87 92 89 80 70 52 48 48 50 50 51 52 50 58 72 34 30 30 33 39 37
99 100 87 45 44 57 52 54 54 67 87 84 83 92 95 93 95 77 62 59 55 52 50 49 48 48 47 46 48 49 50 51 51 52 66 74 44 30 28 29 34 41 36 26
76 62 38 43 49 53 62 61 64 68 88 94 93 89 92 95 87 78 69 68 61 58 53 51 52 58 59 54 49 49 51 57 69 66 50 39 28 27 29 35 41 30 27 39
58 46 42 44 49 63 69 71 75 78 75 85 78 83 79 79 82 79 77 74 70 64 61 56 49 45 46 49 50 65 63 55 52 50 34 26 26 28 38 41 24 22 31 35
53 44 43 53 63 67 72 71 71 71 73 75 76 78 78 74 72 69 66 60 54 52 47 45 46 47 49 52 52 52 54 54 46 30 25 25 30 42 35 20 18 18 17 16
47 49 49 53 66 70 72 71 72 73 75 76 76 76 75 72 72 67 62 58 54 49 47 46 47 49 49 50 53 57 57 40 27 24 27 37 44 26 18 19 18 15 15 20
43 57 60 64 64 66 70 72 72 74 74 74 72 73 73 71 70 67 62 58 52 49 48 48 50 50 51 54 57 48 32 24 25 31 44 40 19 18 19 21 23 30 35 31
58 62 62 68 68 71 68 72 72 71 72 71 72 73 74 72 68 64 59 55 52 51 51 50 52 55 56 51 37 26 24 27 36 47 30 18 18 18 16 16 19 29 42 54
59 61 62 64 68 69 67 70 76 78 72 72 72 74 71 66 63 58 55 52 52 52 53 55 59 55 43 31 25 25 29 44 42 21 18 19 17 14 16 23 31 41 51 59
68 74 70 67 71 72 70 70 68 70 70 71 70 68 66 64 60 56 54 54 55 58 60 61 55 41 30 26 26 34 49 33 18 19 19 16 14 17 25 32 40 54 64 68
75 83 81 79 77 74 72 68 69 70 68 68 66 65 62 58 56 55 57 59 62 63 59 50 40 28 26 29 43 48 24 18 20 19 16 14 18 26 32 40 49 55 60 64
65 62 62 66 74 72 70 69 66 64 62 62 60 59 58 58 59 60 61 65 64 56 47 37 28 28 34 50 41 22 19 20 19 15 14 20 26 32 41 49 56 64 60 59
67 62 61 70 65 65 64 66 61 58 57 57 58 59 58 57 59 63 66 64 57 50 38 30 32 40 54 36 21 20 21 19 15 15 20 26 34 42 49 54 58 59 63 65
68 63 64 71 70 65 67 65 55 52 54 54 54 54 57 60 63 66 65 58 51 40 32 34 42 55 35 21 20 21 19 15 15 19 25 32 40 47 53 58 61 62 67 70
69 68 70 72 72 71 69 59 48 47 49 50 50 51 56 61 65 66 62 55 44 34 36 45 56 36 22 20 22 20 15 15 19 24 31 38 46 52 55 58 62 66 70 71
69 72 78 78 74 73 66 54 48 45 46 50 53 53 55 60 65 64 58 45 36 37 45 56 37 23 21 22 20 16 15 18 23 29 36 43 50 53 56 60 65 69 72 75
75 76 77 78 74 68 60 53 48 45 43 44 49 52 54 56 59 57 50 40 38 46 57 39 24 21 22 21 18 16 17 20 25 33 40 48 54 58 59 61 67 73 74 74
79 80 81 77 72 64 56 54 50 47 45 49 51 53 54 55 57 54 43 40 46 56 41 25 22 23 22 20 17 16 18 22 30 38 46 53 57 59 61 64 69 72 72 73
84 81 80 77 70 63 55 52 51 50 50 51 54 57 58 55 47 44 42 45 55 40 28 23 23 23 22 18 16 17 20 27 37 46 53 56 58 61 65 67 69 70 70 71
88 86 84 79 69 61 56 55 49 51 48 53 57 58 57 54 46 42 45 55 40 29 24 24 24 23 21 16 17 18 25 36 44 50 53 55 58 64 64 66 67 68 66 79
94 92 86 81 73 64 59 54 48 55 48 52 54 57 55 48 44 48 54 40 30 25 24 25 25 23 18 16 17 22 34 42 48 51 53 57 61 64 66 68 64 60 67 85

GFSNGP_850_rhum_042.txt.gz
RH
67 58 59 67 69 67 99 96 98 85 88 78 78 71 62 50 53 57 56 53 56 70 71 71 84 86 81 80 77 76 72 78 84 83 80 78 71 62 69 62 47 51 50 51
90 65 69 80 70 70 71 76 91 96 95 64 56 47 65 85 76 72 68 54 72 71 74 75 82 77 75 74 73 71 73 73 71 70 69 69 68 52 45 52 49 51 57 48
85 71 77 89 75 75 86 84 84 98 78 60 62 66 84 94 94 90 82 75 76 76 76 77 70 70 70 67 62 61 59 61 63 68 63 55 59 70 72 59 56 52 48 41
95 89 95 63 61 58 65 63 83 84 77 79 76 95 98 100 100 98 83 82 77 78 78 74 70 68 66 60 56 55 56 55 58 58 63 65 53 48 46 47 51 50 47 36
96 85 62 52 54 56 62 78 77 86 80 81 76 97 95 94 78 85 81 76 76 76 74 69 64 59 57 56 59 55 55 60 66 71 67 68 77 62 48 51 52 49 35 28
97 97 84 49 49 54 72 91 68 88 86 89 74 92 97 96 76 74 71 70 69 65 61 58 62 67 68 63 62 68 67 68 66 75 96 88 56 51 51 65 57 30 28 32
97 96 75 47 51 57 76 79 64 81 92 79 90 96 100 96 95 77 69 65 66 65 78 71 69 71 71 81 88 90 96 100 94 72 50 50 54 84 78 34 26 28 34 37
86 95 93 46 50 66 66 60 60 69 93 89 90 94 99 92 96 96 97 96 95 90 85 93 96 94 97 100 99 92 73 51 48 51 63 89 75 37 28 27 30 37 35 24
79 77 52 44 50 59 61 66 69 68 93 99 97 100 94 80 60 57 60 62 75 84 86 85 93 79 60 52 48 48 50 51 54 68 59 41 30 25 25 32 39 27 20 22
68 55 50 52 55 63 63 70 72 75 83 91 89 91 95 92 90 77 63 56 53 50 49 50 49 52 55 52 51 50 60 67 55 50 37 26 24 28 38 38 21 17 18 16
63 55 51 57 59 65 66 66 69 71 80 75 75 81 75 70 65 63 58 64 76 73 68 61 53 49 48 51 60 66 56 54 47 33 24 24 30 40 31 19 19 18 15 13
62 52 52 60 62 66 65 67 69 72 74 75 74 76 74 69 64 57 55 55 53 47 46 47 48 50 52 52 53 58 59 44 28 23 24 35 40 22 19 19 17 13 14 21
52 54 56 60 62 64 63 67 70 72 74 75 75 75 74 68 63 60 57 52 47 46 48 48 49 50 51 55 59 55 38 26 22 26 41 34 18 19 18 17 18 27 40 51
55 57 62 62 66 65 64 68 70 72 73 72 73 72 72 69 65 61 56 50 48 48 49 49 50 54 57 58 45 31 24 23 34 42 23 19 19 16 13 14 20 27 37 42
58 58 60 61 66 67 67 68 69 76 76 72 73 72 71 69 63 58 52 49 49 49 50 52 56 59 51 40 29 23 28 42 34 19 19 19 15 12 16 23 30 34 36 41
63 62 67 66 66 68 69 76 74 71 72 72 72 70 67 64 58 54 51 50 52 52 54 59 60 51 38 27 25 35 45 25 19 20 18 14 13 17 23 29 34 40 47 54
70 76 78 77 72 69 71 71 69 71 71 71 70 68 64 59 54 52 52 53 56 59 61 60 50 35 26 29 43 43 22 20 20 18 14 13 18 25 31 37 42 47 53 57
73 67 65 67 68 69 70 68 69 69 69 70 68 64 60 58 57 55 56 59 62 61 54 44 31 27 33 47 36 21 20 21 18 14 14 19 25 31 38 44 50 54 55 57
79 71 65 68 71 69 66 67 67 67 68 67 65 61 59 57 58 60 61 63 61 53 42 30 30 36 50 32 21 21 21 18 15 14 19 26 30 36 43 48 53 57 61 65
76 69 68 74 76 70 67 66 63 62 63 61 59 58 59 59 59 61 64 60 52 42 32 31 37 51 32 22 21 22 19 15 14 18 24 28 34 41 48 53 58 61 65 68
74 71 72 76 76 72 69 65 60 57 58 56 56 56 54 58 60 61 61 53 46 34 32 37 52 35 23 21 22 20 17 14 18 22 25 31 38 47 52 56 60 65 67 68
79 77 76 76 77 75 72 68 59 54 53 54 54 52 54 58 63 63 58 48 39 33 37 51 38 24 22 22 21 18 15 17 19 23 31 38 45 50 54 58 60 63 64 67
84 83 82 81 78 75 72 66 57 52 49 49 49 50 53 53 58 56 51 44 35 36 48 43 26 22 23 22 20 16 16 18 21 29 37 43 48 52 56 57 58 60 63 65
89 86 85 83 79 75 69 63 56 51 48 48 50 49 48 52 59 57 47 37 37 45 48 31 23 23 23 22 18 15 16 19 27 36 43 48 50 52 54 56 56 61 63 64
91 89 86 82 78 73 67 60 54 52 51 50 52 54 55 53 45 47 41 38 42 50 36 25 23 24 24 21 15 16 17 24 33 39 45 47 48 52 54 56 61 66 59 61
92 92 89 86 80 74 67 60 55 53 51 51 53 55 57 55 51 45 39 40 50 38 28 24 24 24 24 17 15 16 20 30 38 44 46 47 50 52 56 60 63 62 59 71
96 94 92 89 84 78 70 61 56 53 52 49 48 54 56 52 48 42 40 50 41 30 25 25 25 25 21 14 15 17 25 34 40 42 44 48 50 56 59 60 66 67 69 77

GFSNGP_850_rhum_045.txt.gz
RH
76 73 69 75 77 76 84 78 97 67 71 65 63 72 70 72 71 74 83 71 60 56 59 54 68 86 81 81 85 89 93 87 88 94 89 88 89 79 66 73 59 59 69 84
92 71 74 84 76 76 77 76 89 88 93 63 63 70 67 92 94 86 82 84 64 66 72 78 76 85 86 86 86 89 91 88 85 81 80 84 65 62 62 59 67 80 71 47
93 70 83 92 80 75 73 79 84 97 75 72 76 78 96 99 97 99 98 90 78 75 76 81 83 85 80 73 77 78 77 73 73 74 67 60 70 69 78 70 60 64 86 82
98 86 95 65 54 60 70 74 76 76 75 75 81 100 100 82 83 81 97 86 79 76 72 70 76 80 73 69 68 68 66 60 59 62 76 70 72 70 78 88 88 76 57 59
100 96 70 57 57 57 65 70 73 82 79 81 81 99 99 83 78 79 78 78 76 71 67 70 71 66 65 60 60 58 59 70 74 61 67 88 91 80 90 97 89 42 39 49
99 100 91 64 50 53 65 85 63 80 86 86 80 93 98 96 71 68 71 73 76 79 72 66 62 59 59 57 57 66 88 92 92 100 98 94 99 96 59 42 48 89 34 33
96 97 82 58 50 65 75 71 65 78 93 86 93 98 100 99 80 71 67 68 69 66 65 65 60 60 59 71 88 97 98 100 100 100 100 100 88 59 74 92 38 31 36 36
99 98 92 46 53 67 65 63 65 76 91 92 99 100 95 98 100 94 84 77 79 76 94 97 98 99 99 99 100 100 100 99 100 95 60 60 96 80 36 31 33 38 31 22
77 74 51 52 55 60 62 63 69 73 96 90 94 89 77 80 91 98 100 98 100 100 99 99 100 100 100 100 100 100 98 68 55 71 92 54 34 30 28 34 37 22 19 19
81 63 67 58 62 60 59 62 69 76 91 91 96 90 72 66 73 78 89 98 99 98 98 98 100 100 100 95 80 69 55 73 87 56 36 30 27 30 39 27 19 19 17 14
71 60 61 62 60 61 61 61 65 76 88 89 90 93 88 75 60 60 60 62 68 65 74 74 76 69 50 49 50 80 81 52 40 31 26 28 38 34 21 20 18 14 12 14
76 53 57 59 61 63 61 62 65 70 79 80 80 79 76 80 74 69 66 57 52 54 56 52 51 49 49 53 56 56 51 36 28 27 36 40 24 20 20 17 12 12 18 32
54 52 53 58 61 63 62 65 68 70 70 75 75 73 68 61 58 57 66 70 64 56 51 48 50 50 50 51 52 44 30 26 30 42 33 19 19 18 15 14 16 23 28 36
57 56 62 63 61 62 63 66 71 72 73 73 74 72 68 63 58 56 53 49 48 48 48 49 50 53 53 50 35 26 25 36 42 25 20 20 17 14 12 15 19 25 33 40
60 59 57 59 64 65 66 67 69 70 71 72 72 72 68 64 59 55 50 48 49 48 49 51 56 54 42 32 26 27 38 37 22 20 20 16 13 14 18 24 29 34 36 41
65 65 66 66 67 66 66 69 72 75 73 71 70 71 69 64 58 52 49 48 49 50 52 56 58 45 33 26 27 39 34 21 20 20 16 13 15 19 23 27 33 40 47 50
71 74 74 74 70 68 68 72 74 71 71 71 71 70 66 60 55 51 49 49 51 54 57 58 52 36 26 29 42 30 21 20 20 16 14 15 19 21 26 33 39 44 49 54
83 76 74 70 70 69 72 71 69 70 71 71 70 67 62 57 55 52 52 53 56 59 55 47 35 27 31 42 29 21 21 20 17 14 15 18 20 26 34 41 45 47 49 54
85 82 75 68 73 69 69 68 68 69 70 70 69 65 62 58 56 55 56 58 61 58 46 34 28 34 43 29 22 21 21 18 14 14 17 19 25 34 40 44 47 50 55 57
84 77 72 77 87 87 80 67 67 68 69 69 67 63 60 58 58 58 60 62 58 48 40 29 33 44 33 23 21 22 19 15 14 16 18 24 32 38 44 47 49 52 57 58
80 81 76 75 87 89 76 66 66 67 68 67 64 62 60 58 60 61 62 59 49 40 30 32 44 38 24 22 22 20 17 14 15 17 23 30 37 43 46 48 51 55 57 58
82 81 80 81 79 76 73 68 66 65 64 63 60 59 58 58 59 61 59 51 44 34 32 39 44 28 22 22 22 20 14 14 16 21 29 36 41 42 45 50 52 54 55 57
89 85 83 82 81 79 75 71 66 62 59 57 57 57 54 51 55 57 53 50 42 32 35 48 33 24 23 23 22 17 14 15 18 26 33 39 41 42 47 51 51 53 54 56
91 88 86 85 82 79 75 72 68 62 58 57 57 54 49 50 56 58 51 45 36 35 44 42 26 23 23 23 21 14 14 16 22 31 38 40 41 47 51 51 50 53 54 57
93 92 89 86 82 79 75 72 66 61 59 57 55 54 54 53 48 51 50 41 35 38 48 32 24 24 24 24 17 14 14 17 26 33 38 40 45 48 50 53 53 51 50 54
95 95 91 88 84 81 76 70 65 60 57 56 55 56 57 55 55 52 47 38 37 47 40 28 24 24 24 22 14 14 15 22 31 37 41 43 46 48 50 52 54 60 61 68
90 97 98 94 89 84 79 73 66 60 57 55 52 55 56 55 56 51 44 38 42 46 32 25 24 25 25 17 13 14 19 26 33 38 42 44 46 49 49 55 72 82 81 77

GFSNGP_850_rhum_048.txt.gz
RH
80 76 73 74 75 76 88 74 92 65 69 60 58 57 64 78 90 95 90 87 81 76 66 71 73 76 66 73 86 100 100 97 90 97 98 93 91 94 93 87 86 76 71 81
95 73 79 86 78 78 77 73 75 69 76 55 54 70 89 92 91 85 87 95 89 79 78 80 82 82 80 79 87 97 97 97 97 97 94 92 90 86 77 74 77 76 83 90
88 74 84 93 82 76 76 77 70 86 67 63 71 85 95 91 80 82 81 96 90 79 77 80 81 80 83 88 94 96 93 92 92 92 90 84 78 71 79 86 88 94 92 86
96 82 93 62 54 59 69 66 73 77 70 70 81 98 97 82 74 75 72 75 78 73 73 76 81 86 90 93 94 95 93 88 83 76 73 68 68 81 94 96 96 96 99 100
93 97 73 59 59 57 70 75 71 74 75 80 80 97 100 96 68 70 75 72 68 67 70 76 83 84 80 81 82 85 79 73 70 74 80 91 99 100 100 100 100 100 98 88
98 98 86 56 49 54 60 86 68 70 78 90 82 96 97 99 72 69 70 71 73 75 75 75 71 70 70 64 62 63 64 76 98 100 100 99 100 100 100 99 95 92 86 40
92 96 80 58 52 65 76 70 64 73 84 81 91 97 98 91 81 75 71 73 72 71 71 69 67 62 60 60 76 99 100 99 100 100 100 100 100 100 98 98 67 39 36 36
93 97 94 46 59 71 64 64 64 72 85 90 92 94 95 99 98 85 81 77 74 84 75 69 67 60 77 92 100 100 100 100 100 100 99 99 100 86 52 39 36 37 36 26
83 76 52 47 56 58 61 64 65 73 86 85 88 90 90 96 96 90 95 96 99 97 96 99 98 100 99 100 100 100 100 99 99 99 96 68 42 35 34 37 38 26 20 21
73 61 60 54 58 56 58 60 64 70 88 88 86 79 79 89 95 91 94 99 97 96 100 99 100 100 98 99 99 99 92 83 93 53 38 36 35 36 39 31 20 20 18 14
75 67 61 61 58 58 59 59 63 74 88 91 89 80 72 77 84 92 94 97 98 98 98 99 99 99 95 77 66 68 74 70 45 34 30 29 34 36 23 20 18 14 14 20
78 55 58 56 54 59 61 60 63 74 92 95 88 84 78 69 68 74 84 84 87 85 91 95 81 57 54 56 68 75 52 41 31 26 28 37 27 20 19 16 14 17 24 44
59 56 56 56 58 60 61 61 64 70 78 81 82 82 86 71 64 63 58 57 63 65 59 56 54 59 57 57 55 53 44 28 24 36 33 20 20 18 16 17 21 28 33 37
64 64 62 59 59 60 62 62 66 70 72 75 74 75 76 82 74 71 68 57 60 57 54 52 55 53 53 54 50 34 25 31 40 22 20 19 16 14 15 18 22 27 32 35
66 65 64 62 62 64 64 65 68 71 73 74 73 70 67 81 64 61 71 66 59 52 52 52 51 56 54 41 29 28 40 31 21 21 19 15 14 16 19 22 26 31 35 41
78 69 67 68 67 68 67 68 69 70 72 72 73 71 68 70 60 56 52 49 49 50 51 52 57 49 34 29 31 41 26 21 21 19 16 14 15 18 21 26 33 37 42 44
87 82 75 72 71 69 67 66 68 72 73 71 72 70 67 63 59 53 49 49 49 50 52 56 50 36 29 35 43 26 21 21 19 16 13 14 17 20 26 32 36 42 46 51
90 82 84 79 76 72 70 69 72 74 74 74 72 71 68 63 58 51 49 48 50 53 55 50 38 29 34 43 28 22 21 20 17 13 14 16 19 26 32 36 40 43 46 48
90 87 85 82 76 75 70 68 71 70 73 74 76 70 66 61 54 50 50 50 53 57 55 42 30 33 43 31 22 21 21 18 14 13 15 18 25 31 36 40 43 44 45 46
82 82 81 79 79 74 69 76 69 71 70 70 70 68 63 58 53 52 52 54 57 59 50 35 30 40 38 24 22 22 20 16 12 14 16 23 29 35 38 40 42 44 45 47
88 83 79 80 95 99 97 90 86 77 70 70 70 68 63 58 56 56 56 60 59 52 40 30 35 44 28 22 22 21 19 13 13 14 20 27 33 37 39 41 43 44 45 47
87 83 80 77 77 84 88 85 74 68 68 69 68 66 62 59 58 58 60 59 56 45 34 32 42 37 25 22 22 21 17 12 13 16 23 30 35 37 40 43 44 46 47 49
89 87 85 83 81 80 79 77 72 68 67 67 66 64 61 59 58 59 58 58 51 40 32 37 45 30 23 22 22 21 13 12 13 18 25 32 36 38 40 42 44 48 50 49
88 89 87 85 83 81 80 78 74 69 67 66 65 62 59 58 58 57 56 53 48 37 34 43 40 26 23 23 23 19 12 12 14 22 28 33 36 39 42 43 47 52 52 50
80 86 89 88 86 83 80 77 74 70 67 64 63 60 58 58 53 52 57 52 46 36 35 45 35 24 23 24 23 15 12 12 16 25 30 34 38 40 42 46 49 50 52 53
77 80 89 91 87 84 81 78 74 71 68 64 61 60 60 59 57 57 56 52 44 35 39 46 31 24 24 24 22 13 12 13 18 26 31 34 38 40 43 46 50 64 74 75
83 88 88 93 94 92 86 81 76 71 68 64 61 59 59 58 58 58 58 53 42 37 45 42 28 24 25 25 19 12 12 15 22 28 32 36 39 40 42 45 59 73 76 74

GFSNGP_850_rhum_051.txt.gz
RH
79 74 75 77 75 84 85 76 89 70 74 55 48 49 56 88 87 81 80 83 86 91 80 75 73 77 78 76 81 86 91 86 98 100 99 100 100 100 99 100 99 99 84 73
93 72 84 92 80 80 81 76 78 71 72 49 48 60 82 89 80 79 80 80 95 88 84 83 82 84 83 82 87 97 100 100 100 100 100 99 97 93 92 87 77 74 76 78
88 76 84 89 84 78 74 76 66 80 62 61 69 79 92 88 77 74 70 67 77 77 76 79 81 80 83 89 94 96 97 94 86 85 84 87 79 78 78 80 82 83 87 95
98 81 95 60 61 64 67 61 66 63 58 63 78 89 94 96 74 69 74 69 68 68 72 78 82 88 92 99 96 97 95 94 97 96 87 85 88 86 89 94 96 98 100 100
94 92 76 62 65 70 74 73 69 77 74 68 83 96 100 96 78 70 77 79 77 70 75 80 85 90 92 92 91 99 100 99 92 91 87 94 91 96 99 100 100 100 99 100
98 96 90 55 53 59 61 82 67 68 73 84 81 96 95 94 78 73 72 76 79 76 74 75 72 72 69 69 72 74 77 76 76 76 86 99 100 100 98 99 99 99 93 43
90 97 83 58 52 63 73 71 64 67 71 85 86 88 90 91 85 78 76 75 74 74 74 70 67 66 64 67 75 83 96 100 100 100 100 100 100 100 100 99 76 37 38 38
87 97 93 49 68 71 64 62 65 67 72 83 87 87 88 92 93 89 86 79 80 74 74 66 63 65 74 98 100 99 100 100 100 100 100 100 99 74 38 38 41 41 39 32
82 77 51 46 54 56 58 60 59 66 73 84 87 87 87 89 88 93 94 97 97 94 89 71 80 100 99 100 100 99 99 99 99 99 79 43 37 35 35 38 39 30 21 21
77 62 64 54 54 57 57 56 57 62 70 84 83 82 83 91 89 92 95 96 96 98 99 99 100 100 98 99 100 100 98 94 60 38 33 31 31 34 38 29 22 22 19 16
80 68 57 55 56 56 55 58 57 62 75 88 87 80 78 85 89 92 92 92 98 98 99 99 100 100 99 94 83 82 71 48 37 31 31 33 37 31 23 22 19 16 14 16
79 60 61 56 54 55 59 60 59 63 79 93 92 82 78 80 86 89 93 96 100 99 99 97 91 74 66 71 76 62 49 38 32 31 36 36 24 22 20 17 14 13 16 23
67 61 62 60 58 59 62 60 60 63 76 88 95 90 79 78 77 88 89 87 86 91 90 77 57 59 61 64 63 49 40 30 30 39 34 21 20 18 15 14 16 20 23 28
74 73 70 64 60 62 62 62 61 64 70 81 87 87 86 76 84 68 70 68 74 67 64 55 56 56 56 54 52 42 28 26 37 30 20 20 17 14 14 16 20 23 28 33
73 78 75 69 66 65 65 65 64 67 70 74 77 78 83 80 92 72 63 58 61 58 57 57 57 55 58 56 43 28 26 37 25 20 20 16 14 14 17 20 23 27 33 39
73 69 79 73 70 69 69 68 68 69 71 72 72 73 73 81 90 74 74 64 59 57 58 57 54 59 59 41 27 28 38 23 21 20 17 14 15 18 20 25 29 32 35 40
94 76 74 80 77 72 71 70 68 69 71 72 72 72 69 72 75 61 65 66 58 54 55 54 57 60 41 27 30 40 23 21 20 18 15 15 17 18 24 29 33 38 40 42
97 96 90 85 85 83 79 72 68 68 72 72 71 72 69 69 68 61 56 51 50 50 51 55 59 46 30 31 40 25 22 21 19 16 14 15 17 22 27 32 36 38 40 45
92 93 88 87 83 84 81 74 69 71 74 80 84 79 72 69 66 61 53 49 50 50 53 58 51 35 30 41 28 22 22 20 18 14 14 15 20 26 31 34 36 38 41 44
98 94 90 87 84 79 76 72 70 76 75 79 82 79 72 69 64 57 50 50 51 53 57 58 43 30 38 36 23 22 22 20 16 13 14 18 23 29 33 35 37 40 42 44
96 96 94 94 100 99 82 82 91 77 71 69 71 73 70 67 61 54 50 51 54 55 58 52 35 32 41 29 23 22 21 19 14 13 14 20 26 31 34 36 39 41 42 43
90 87 88 89 88 91 96 100 99 96 82 73 70 70 68 64 59 54 53 54 56 58 56 44 31 37 40 26 22 22 21 18 12 13 15 22 27 32 35 38 41 43 44 45
86 89 87 84 82 82 85 89 88 80 71 72 82 70 68 65 61 57 58 57 58 60 52 39 33 42 35 24 23 23 22 16 12 13 16 24 29 34 37 40 42 44 46 46
72 78 84 87 85 83 81 80 78 77 80 75 71 73 68 65 62 59 59 58 60 58 49 35 35 44 32 24 23 23 22 15 12 13 18 26 30 35 38 40 43 47 47 48
68 74 80 85 87 85 83 82 79 77 74 70 68 68 68 64 61 58 59 60 59 55 46 35 38 44 31 24 23 23 22 13 12 14 20 28 32 36 39 41 45 45 54 68
47 55 74 84 91 91 87 83 80 77 74 72 69 67 66 64 61 60 60 60 58 54 47 36 38 43 29 24 24 24 21 12 13 16 23 29 33 37 39 42 44 48 67 75
39 45 57 76 90 95 96 93 86 80 76 73 70 67 64 63 60 61 60 58 58 54 48 37 41 43 28 24 24 25 19 12 13 19 26 31 34 37 39 41 43 58 71 75

GFSNGP_850_rhum_054.txt.gz
RH
78 70 75 78 75 86 82 79 85 68 78 57 51 53 51 86 83 78 77 74 81 88 83 82 79 80 79 74 79 83 95 99 100 98 100 100 100 100 100 100 100 100 100 90
92 72 83 93 82 82 84 78 80 70 74 48 47 52 76 89 83 75 74 66 81 75 77 78 80 81 83 87 92 95 96 96 99 100 100 100 100 100 100 100 97 93 86 85
88 78 83 88 84 79 81 78 68 84 60 49 60 73 89 88 87 72 70 70 69 71 74 76 81 86 90 97 95 96 93 91 93 94 97 95 94 94 91 88 86 83 81 81
98 83 96 57 58 64 68 60 67 61 55 51 67 88 89 95 86 70 73 80 74 72 77 79 86 92 98 100 100 99 100 100 99 97 95 94 91 88 75 76 80 88 97 100
90 81 77 60 75 74 73 68 68 65 64 66 82 93 98 97 81 74 74 76 76 75 78 80 82 83 86 92 99 100 100 100 100 100 99 98 99 99 100 100 100 100 99 99
98 82 96 54 53 61 60 78 62 71 69 72 81 95 93 90 83 78 74 74 78 78 76 78 76 72 72 69 81 93 98 93 97 100 99 98 99 99 98 100 99 100 100 93
92 88 83 61 52 62 86 70 63 67 67 77 84 85 90 90 84 82 79 79 77 77 76 72 70 67 66 76 85 95 97 98 99 98 99 99 99 100 100 100 89 44 35 38
92 96 94 52 67 75 62 61 63 64 65 74 84 84 84 90 91 93 86 84 82 76 76 68 69 72 94 98 100 98 99 99 100 99 99 99 98 67 37 36 38 39 37 30
79 75 52 52 56 50 56 58 59 61 62 71 83 82 82 86 90 93 91 88 92 82 72 72 95 100 95 100 100 98 99 99 99 94 54 36 35 36 37 39 35 25 22 22
81 63 64 58 55 56 59 59 58 58 60 72 80 85 84 83 88 94 88 92 92 94 98 99 99 100 99 100 100 100 99 78 44 34 31 32 37 39 32 23 22 20 17 16
81 70 59 58 54 56 56 58 58 58 62 70 84 84 81 86 88 88 88 96 98 98 98 98 99 99 99 99 95 77 45 36 32 31 34 37 34 24 21 20 15 15 18 21
83 66 65 60 59 59 58 59 61 59 64 79 87 86 80 86 88 90 87 94 99 98 98 99 97 84 78 76 71 51 38 31 28 33 38 25 21 21 20 17 17 18 20 23
82 76 73 66 66 63 61 62 60 59 64 74 88 87 82 81 89 92 93 92 94 97 96 86 70 68 70 66 56 45 33 27 33 37 23 22 20 17 15 15 17 20 23 26
83 74 73 72 72 70 66 64 62 62 64 74 89 95 91 81 86 93 87 85 89 91 80 64 62 61 60 57 51 39 28 32 38 23 21 19 16 14 13 15 17 21 26 28
82 76 74 80 73 72 71 68 67 66 66 71 81 89 89 84 80 91 82 76 77 75 65 58 58 57 58 55 44 31 28 38 27 21 20 17 14 12 14 15 20 23 28 33
68 72 70 68 78 75 72 71 70 68 68 72 74 76 80 84 84 93 65 62 63 60 58 59 57 56 60 51 35 26 33 32 21 20 18 14 12 13 15 20 23 27 31 33
99 92 82 79 85 85 78 76 73 70 68 71 72 73 74 79 85 95 78 65 59 59 59 58 55 57 61 44 28 28 37 22 21 19 16 12 12 14 19 23 26 29 32 36
96 95 95 98 94 86 77 84 82 71 68 70 73 72 72 72 78 90 75 74 64 59 56 56 54 59 58 38 27 36 26 21 20 18 13 12 13 17 22 26 28 31 32 36
100 100 98 95 92 89 85 84 86 74 68 71 72 71 73 76 81 80 63 64 64 55 54 54 55 60 49 31 32 33 22 21 20 18 12 13 14 19 24 28 30 32 34 37
100 100 98 99 97 87 83 82 78 72 70 74 78 83 86 87 75 68 63 58 53 51 52 53 57 59 43 29 36 26 22 21 20 16 12 13 16 22 27 31 33 35 37 40
95 95 97 96 96 99 91 75 74 76 86 77 81 87 83 76 71 68 63 57 51 50 51 53 58 54 34 32 35 24 22 21 20 15 13 14 18 23 28 32 34 37 39 42
89 93 90 87 91 95 95 98 100 99 96 82 71 71 72 72 70 66 61 56 51 51 52 55 59 49 32 37 33 23 22 22 21 15 13 14 19 24 29 33 35 39 42 44
76 81 87 88 86 84 82 85 95 96 90 82 75 77 74 70 70 65 62 57 51 52 54 57 56 42 33 39 31 23 22 22 21 14 13 14 21 25 29 35 37 39 42 44
45 58 70 80 86 85 83 82 79 78 77 84 96 90 86 71 69 66 62 57 56 55 56 59 53 39 33 40 31 24 23 23 22 14 13 15 21 27 30 35 37 40 42 47
36 38 43 57 71 84 87 84 82 80 78 76 73 70 72 75 73 67 63 60 57 58 59 60 52 38 34 41 32 24 24 24 22 13 13 15 22 28 32 36 37 39 41 54
27 30 34 47 72 80 86 91 90 85 80 76 74 72 70 68 70 66 63 60 60 58 59 59 51 39 35 42 33 24 24 24 21 13 12 17 24 30 32 35 36 39 45 61
23 23 25 31 46 70 84 92 95 94 92 85 77 74 71 69 70 68 64 62 60 60 63 58 52 42 38 44 33 25 24 25 20 12 13 20 28 32 34 34 36 41 57 68

GFSNGP_850_rhum_057.txt.gz
RH
76 69 77 77 80 79 82 77 82 60 72 52 50 53 50 81 82 80 74 71 75 79 78 76 78 78 81 83 83 85 88 96 96 98 99 100 99 100 100 100 100 100 100 100
87 74 84 93 82 83 78 75 75 69 71 47 46 48 70 87 84 76 72 70 73 75 76 77 84 84 84 87 85 87 91 94 98 100 100 100 100 100 100 100 100 100 99 90
87 82 81 93 83 80 82 79 69 86 62 50 56 61 86 87 87 75 71 76 75 73 77 84 87 91 88 89 96 94 95 92 88 91 94 94 98 99 99 96 90 86 87 92
93 82 92 51 61 67 69 63 70 65 60 52 55 78 88 92 85 74 73 78 78 75 79 83 87 90 85 83 89 96 98 99 98 98 96 96 94 95 97 93 90 95 99 99
90 77 70 67 76 73 72 67 63 63 57 57 72 88 97 96 82 76 73 75 77 77 80 82 80 77 77 73 87 92 95 100 99 100 100 99 99 98 97 99 99 99 100 100
96 86 89 55 55 63 60 78 57 66 69 69 81 84 88 91 82 80 78 74 77 79 80 76 74 71 70 77 89 88 94 98 99 100 99 100 99 99 99 100 99 99 99 97
96 91 72 60 52 57 90 73 60 68 68 69 87 85 86 87 83 83 82 82 80 80 77 73 66 71 82 90 91 97 98 98 99 99 99 99 99 100 99 99 77 42 36 35
87 86 87 52 69 78 65 60 61 62 62 69 78 85 81 83 85 88 87 85 81 78 72 68 76 96 98 99 99 99 99 100 99 98 99 99 81 45 35 38 37 33 29 27
73 71 49 52 59 50 48 56 58 60 59 69 78 82 81 83 84 84 88 89 80 76 70 88 96 95 93 99 100 100 100 98 97 72 38 32 33 36 35 27 22 20 19 17
80 64 64 53 58 59 60 62 61 60 60 63 74 82 82 82 83 82 87 83 77 78 98 97 96 96 99 100 100 99 88 51 34 31 31 35 34 26 22 21 18 15 16 18
80 70 61 56 63 60 59 59 59 61 61 62 74 84 83 82 83 83 85 95 88 88 92 95 97 96 95 96 94 58 38 31 29 32 36 29 23 21 18 16 13 15 18 22
86 71 74 64 60 61 63 63 63 64 61 64 74 86 85 83 85 84 86 99 99 98 98 98 98 98 92 80 60 41 31 27 31 37 26 21 20 17 16 14 16 17 19 23
75 74 71 68 70 73 69 67 65 63 62 65 76 89 87 82 86 89 87 91 99 99 99 86 80 75 71 62 49 39 30 28 37 29 21 20 18 16 15 16 17 20 26 29
75 85 76 75 75 74 71 70 68 65 65 67 81 91 87 82 86 91 88 84 90 96 83 71 68 68 65 58 47 36 28 33 35 21 20 18 16 13 14 16 20 24 27 29
79 87 83 73 65 75 74 72 70 69 69 69 79 95 95 89 84 88 93 89 87 86 78 67 63 61 59 56 45 32 27 37 24 21 19 17 13 12 14 18 21 24 27 29
77 75 77 79 75 75 80 75 73 72 71 70 74 84 92 94 87 85 95 85 83 82 75 61 60 58 60 56 40 28 32 34 22 20 18 15 12 12 15 19 22 24 26 28
93 89 81 77 84 82 82 86 80 78 73 70 71 76 80 86 86 82 96 80 74 72 66 60 59 56 60 56 36 28 36 29 21 20 18 13 11 12 16 20 22 25 29 33
99 99 100 98 94 93 88 86 82 84 81 70 72 74 76 80 81 87 94 76 64 60 58 57 56 55 60 55 36 28 36 25 21 20 18 12 11 12 17 21 25 28 31 35
100 100 100 100 100 98 90 90 85 83 86 72 70 72 72 72 75 89 99 95 84 63 59 56 55 55 60 54 35 29 36 23 21 19 17 11 11 13 18 22 26 29 31 34
100 100 100 100 100 100 86 83 84 85 79 70 71 73 72 75 77 88 97 94 81 74 62 57 55 55 59 52 34 31 33 23 21 20 16 11 11 14 19 23 27 30 32 35
97 91 89 97 100 100 100 83 76 74 73 74 78 79 84 92 96 93 89 76 64 63 62 54 54 55 59 52 32 33 31 22 21 20 17 11 11 13 19 23 28 31 33 36
76 80 85 85 85 85 94 99 100 100 100 95 79 79 82 83 81 74 70 68 63 59 53 52 52 55 58 51 32 34 30 22 22 21 17 11 11 13 20 24 28 33 35 38
44 53 64 73 79 83 82 80 82 96 100 99 96 86 75 72 74 72 71 69 63 57 52 51 52 56 58 49 32 35 30 23 22 22 18 11 11 14 19 25 29 32 35 38
30 33 36 51 66 78 79 81 82 80 78 77 82 99 95 96 91 76 74 66 61 56 52 52 53 56 58 46 33 36 31 23 22 23 20 12 12 14 20 26 29 33 35 38
25 26 28 32 45 58 71 81 87 85 81 79 77 75 75 81 88 79 83 99 72 58 55 53 55 57 57 45 34 38 33 24 23 24 20 12 12 15 22 27 30 33 35 37
16 17 19 24 31 43 58 70 80 87 89 87 82 77 75 73 70 75 79 83 92 61 57 57 57 59 58 47 36 40 35 25 24 24 21 12 12 16 24 30 32 33 35 42
21 23 25 27 28 29 31 42 61 73 87 91 91 89 80 74 72 70 77 87 78 78 65 59 68 82 59 48 38 41 37 26 24 25 22 12 13 20 28 30 31 33 42 59

GFSNGP_850_rhum_063.txt.gz
RH
50 51 55 64 62 59 88 68 87 43 37 28 28 30 34 45 62 69 64 60 62 65 68 76 80 84 88 88 84 80 81 82 87 89 90 91 95 92 95 94 95 98 99 99
82 56 58 73 58 58 62 62 54 48 49 30 29 34 41 48 70 72 66 63 62 65 71 82 89 93 96 98 90 86 87 91 87 90 89 91 97 97 95 94 94 100 98 100
61 59 60 74 62 59 58 53 54 68 43 34 35 38 45 63 73 70 64 64 65 65 71 83 92 95 96 95 87 85 91 90 88 90 90 92 92 91 93 98 98 98 98 95
67 64 82 57 47 46 51 47 46 43 38 35 36 42 70 74 72 63 62 68 68 67 74 82 88 90 91 82 84 88 89 88 86 90 84 93 94 88 91 94 93 96 98 97
72 59 45 37 52 53 58 60 43 42 38 39 42 68 73 74 68 63 63 66 68 74 77 83 87 85 81 90 86 89 87 88 87 87 88 91 92 95 98 95 96 94 95 97
76 78 62 57 50 48 45 69 51 45 44 47 58 74 67 75 70 71 69 71 76 82 78 78 74 81 95 88 88 92 92 89 88 90 91 99 99 99 100 100 97 99 92 58
69 72 52 36 51 46 77 76 54 57 56 54 61 66 79 72 74 78 81 85 88 89 79 78 71 82 90 88 91 96 93 94 92 94 97 99 100 100 74 42 33 29 26 28
61 74 74 38 55 54 65 57 55 56 60 62 66 74 77 78 78 78 80 88 93 90 80 71 85 92 90 89 90 92 100 98 99 100 90 54 36 36 33 26 23 22 20 16
51 50 37 44 51 52 58 62 61 64 63 66 76 76 79 80 79 80 83 93 95 82 70 85 92 90 92 94 90 89 95 96 65 35 32 34 33 25 22 20 18 15 14 15
50 41 40 39 47 57 66 60 60 64 64 64 73 80 80 81 78 72 76 85 86 72 74 87 89 96 95 99 96 94 76 35 30 31 33 26 20 18 18 15 16 16 15 18
48 41 47 54 53 63 68 65 66 65 64 65 72 81 79 82 79 73 71 77 93 75 84 83 86 94 99 97 92 72 34 28 30 32 26 20 18 15 11 10 10 12 13 15
51 41 43 55 71 74 72 70 68 67 68 66 65 79 83 87 82 78 72 72 77 84 83 82 84 90 94 82 65 36 28 26 31 26 20 18 15 12 9 9 10 12 13 14
50 69 67 72 69 68 67 68 64 67 68 69 68 74 84 86 86 82 76 73 72 77 80 86 87 88 85 68 44 32 26 26 31 23 18 17 15 11 9 9 12 13 14 15
71 74 70 72 70 79 74 68 72 71 70 68 68 69 79 89 90 85 82 76 76 81 81 87 90 86 77 59 41 32 26 27 32 22 18 17 14 10 10 11 13 14 14 17
73 75 74 76 77 77 73 69 67 74 74 72 70 70 76 86 89 87 85 83 81 83 84 82 88 86 72 56 44 34 26 26 32 22 19 17 15 10 9 10 12 15 16 17
77 76 76 76 76 74 74 72 73 72 77 74 74 72 73 83 89 90 87 88 86 82 85 78 76 74 66 60 51 40 29 25 33 24 19 18 16 10 9 10 13 16 17 18
78 80 75 71 76 82 86 87 84 79 76 81 78 77 72 78 90 92 88 88 90 88 89 84 73 69 65 63 58 49 35 26 32 26 20 18 17 11 10 10 12 15 17 20
76 79 82 91 96 98 96 97 99 96 90 83 83 84 76 73 81 87 91 90 90 95 93 95 86 73 65 61 60 56 42 27 30 30 21 19 18 13 10 10 12 15 17 20
99 100 99 99 99 99 99 99 98 91 91 92 87 86 83 72 75 82 88 90 89 91 94 98 99 94 69 59 58 60 50 32 29 32 22 20 19 16 11 10 12 14 17 19
100 100 100 99 99 100 100 100 86 81 86 94 94 90 85 74 72 76 80 82 83 83 92 100 100 100 84 60 56 59 57 39 30 33 24 21 20 18 13 11 11 13 16 19
96 94 92 95 99 99 100 100 100 81 77 80 84 80 74 74 73 77 83 80 79 85 100 100 100 100 98 85 59 56 58 46 33 34 27 22 21 20 16 11 10 12 15 19
61 62 64 73 81 83 82 81 84 97 100 100 94 90 88 90 89 87 86 86 91 100 100 100 100 100 100 100 98 60 57 51 36 34 30 23 22 21 18 13 10 11 14 19
32 30 28 32 44 57 67 75 80 81 80 85 96 100 99 97 99 100 98 100 100 100 100 100 100 100 100 100 84 56 57 54 42 34 32 25 22 22 21 16 11 11 13 19
28 21 18 18 23 34 43 50 60 73 80 81 80 79 80 92 100 100 100 97 97 87 77 80 90 94 90 75 59 55 55 55 45 36 35 27 23 22 22 18 12 11 13 20
29 16 11 12 14 16 17 18 26 45 66 80 85 84 81 78 76 78 90 100 99 92 80 75 88 97 92 67 68 80 88 82 50 38 36 30 24 23 23 20 13 11 13 21
23 14 15 16 16 18 19 20 20 21 23 38 59 76 86 88 83 78 76 74 79 89 98 100 96 86 86 80 80 97 95 60 52 39 37 33 26 23 23 22 15 11 15 23
16 14 17 20 23 26 28 30 31 30 28 27 26 39 64 76 84 87 83 77 74 74 76 83 99 96 91 78 93 97 69 65 70 42 40 36 30 24 26 26 22 14 18 24

GFSNGP_850_rhum_066.txt.gz
RH
51 50 57 70 65 65 89 76 78 56 38 34 35 36 34 45 54 62 64 60 59 65 67 73 78 82 83 82 83 79 78 77 75 79 83 88 93 93 92 89 88 92 96 95
88 53 57 73 63 64 70 70 70 61 59 39 33 34 41 49 62 70 68 63 60 64 70 78 84 85 87 81 77 78 81 81 84 86 92 93 96 96 92 92 87 87 84 90
78 59 62 82 71 68 65 62 66 76 53 37 42 41 45 58 68 72 68 64 63 64 69 79 83 86 81 76 74 77 86 90 90 95 95 96 96 97 90 89 85 85 88 94
88 71 97 62 48 50 58 55 55 52 47 38 37 42 47 64 70 68 62 64 67 66 70 78 83 83 78 74 76 84 89 92 93 95 92 91 90 85 84 87 90 90 91 93
91 78 57 60 52 54 62 63 48 51 45 40 48 54 66 70 68 63 59 65 66 67 73 80 84 85 82 77 85 89 90 91 93 91 88 88 86 86 89 89 91 92 93 95
85 85 79 65 50 47 44 77 54 46 46 46 60 87 82 72 65 65 66 66 68 73 77 81 80 85 87 90 90 90 92 91 91 88 86 84 86 95 93 86 67 49 30 27
83 80 67 57 54 48 85 84 58 56 55 54 72 76 75 69 67 68 70 73 77 81 81 80 77 74 82 89 93 95 93 89 90 88 86 88 75 50 33 28 23 23 23 20
72 87 84 49 50 60 69 55 57 58 60 60 65 72 72 72 71 70 71 77 82 82 84 80 71 83 88 92 97 100 99 96 94 86 50 36 32 26 22 22 19 16 13 13
60 69 46 43 52 54 58 62 62 63 63 62 65 69 71 73 75 73 72 74 81 79 78 75 87 89 87 89 98 100 97 94 67 32 30 32 25 20 20 19 16 15 17 16
55 47 46 40 48 54 63 61 59 57 60 62 69 73 74 76 78 76 72 74 79 81 75 85 90 84 87 88 90 92 83 43 29 30 31 24 20 18 16 12 12 12 13 14
58 48 44 52 45 46 65 66 66 63 61 62 65 74 75 73 79 79 76 77 77 75 70 86 84 82 88 90 91 82 41 28 28 31 26 19 17 14 10 8 9 11 12 12
68 53 51 76 68 65 70 72 71 69 64 63 65 68 78 76 77 81 78 74 76 75 75 83 82 84 87 89 85 54 29 25 28 29 21 18 16 13 8 8 9 11 11 12
57 62 65 67 66 68 68 67 65 66 64 65 66 66 77 80 78 80 83 76 72 71 74 78 78 84 89 86 70 37 26 23 27 28 20 18 16 13 9 9 9 11 12 12
58 64 64 67 72 73 70 69 68 70 71 70 68 70 71 81 82 78 83 81 74 72 72 74 79 81 85 75 58 37 27 24 27 29 21 18 16 14 9 8 9 10 12 14
67 68 68 72 75 74 74 74 71 68 70 73 72 72 73 77 84 79 82 86 82 77 75 77 79 79 80 74 57 40 30 24 25 30 24 18 17 15 10 8 9 11 13 13
72 73 76 74 73 74 76 75 76 73 72 72 74 73 73 75 82 85 85 90 87 84 80 79 78 76 73 70 60 48 37 29 25 29 29 20 18 16 12 9 9 11 12 13
78 79 78 78 75 73 80 85 84 82 81 79 78 80 78 76 78 85 85 90 92 89 86 83 81 77 74 70 62 54 47 37 27 26 31 23 19 17 15 10 9 10 11 13
77 80 80 81 82 84 87 92 95 97 94 92 91 88 86 84 77 79 82 87 92 91 91 90 91 91 81 72 66 62 57 50 38 26 29 29 21 19 18 14 10 10 10 11
85 85 89 97 99 100 99 99 100 99 90 88 92 93 92 90 85 77 80 87 92 92 90 96 98 100 98 86 71 64 62 59 51 36 28 31 25 20 19 17 12 10 10 10
100 100 99 99 99 100 100 100 99 91 79 83 91 98 96 91 85 78 76 79 84 89 91 94 96 99 100 100 96 66 59 59 60 51 32 31 30 22 20 19 16 12 10 10
98 97 96 92 94 96 97 96 98 100 100 85 79 86 86 83 79 81 86 81 81 86 94 95 95 100 100 100 100 97 78 67 59 59 46 32 32 26 22 20 19 15 11 10
59 51 46 50 63 71 74 77 80 80 85 98 100 99 95 90 89 89 86 83 84 90 95 98 100 100 100 100 100 100 99 90 59 60 60 40 34 30 24 21 21 18 13 10
32 28 23 21 26 35 42 49 56 67 75 79 80 83 93 99 100 99 100 100 100 100 100 100 100 100 100 100 100 100 100 100 89 84 60 48 36 33 26 22 22 21 15 11
38 31 21 14 13 17 22 22 25 40 59 72 79 80 79 79 79 87 98 100 100 100 100 100 99 99 100 99 100 99 99 99 99 80 67 55 40 36 29 24 23 22 23 14
44 30 15 12 14 16 16 17 18 18 23 40 57 72 83 85 82 80 78 77 81 94 99 95 84 76 78 94 99 99 99 99 98 72 67 95 54 38 32 25 24 34 33 18
50 39 18 13 15 18 21 24 24 25 24 22 22 29 46 66 76 83 85 82 77 75 76 83 98 100 95 93 97 98 96 97 97 94 97 97 54 40 34 27 25 43 48 20
55 31 14 15 18 22 26 29 31 33 36 36 35 33 28 39 55 68 78 82 82 80 78 74 76 81 97 98 93 93 98 98 97 98 97 93 65 42 37 32 29 37 38 35

GFSNGP_850_rhum_069.txt.gz
RH
54 54 66 72 68 74 79 69 76 58 52 45 46 46 38 38 55 63 64 61 60 63 66 68 72 74 76 79 80 80 77 74 74 77 82 86 91 93 91 86 82 82 85 85
83 59 58 72 70 72 76 68 67 68 68 45 34 35 49 44 57 64 64 63 60 61 67 70 75 81 82 82 85 80 79 78 79 81 87 89 90 87 87 84 84 88 86 81
88 66 66 78 72 69 71 69 62 75 55 43 44 46 52 54 58 61 66 69 66 62 64 70 78 82 84 85 82 80 81 80 82 87 90 88 89 88 89 91 90 86 82 81
92 76 90 48 56 57 60 62 65 61 53 47 43 42 46 51 57 68 70 68 63 64 65 69 76 83 83 82 76 77 79 83 87 87 87 87 87 90 93 91 87 84 84 85
91 92 63 63 56 59 71 69 59 60 53 45 48 54 57 56 65 68 65 61 64 66 67 71 79 81 82 80 74 80 84 86 83 83 85 88 88 89 89 89 85 83 80 40
87 91 91 62 50 47 49 82 59 53 53 50 63 69 72 66 65 62 61 62 65 66 68 73 79 82 81 79 82 87 87 85 83 86 88 90 90 89 84 60 26 22 21 18
91 84 73 50 57 52 86 75 62 50 44 49 68 57 66 71 65 64 64 65 67 71 74 76 80 79 82 80 86 88 89 86 86 91 91 89 70 35 25 20 19 15 13 11
88 93 92 55 52 70 66 59 58 58 59 62 60 66 70 71 64 66 65 68 72 77 80 80 80 76 76 86 91 89 87 92 91 93 79 42 31 23 20 18 15 12 12 13
71 70 48 50 53 59 59 61 60 61 61 60 65 70 71 71 72 72 71 71 75 76 78 80 75 77 84 88 93 91 90 92 92 61 36 32 26 21 17 15 13 12 12 12
56 50 48 43 52 55 58 60 59 58 58 56 61 66 66 71 74 77 76 72 68 73 80 79 75 82 85 85 91 90 91 86 45 29 30 26 22 20 16 13 11 12 11 12
63 54 48 46 44 51 62 63 62 63 61 60 61 65 68 69 73 77 78 75 71 71 79 74 78 80 80 85 86 89 81 42 27 29 28 20 18 16 13 9 9 10 10 11
76 53 54 65 58 49 61 68 70 71 69 66 63 63 63 68 70 72 80 81 74 70 71 70 76 75 79 87 87 84 54 29 27 29 26 19 18 15 10 8 8 9 10 10
55 56 59 68 71 70 69 71 72 67 65 66 66 67 66 71 73 74 80 84 77 68 66 70 72 73 76 84 88 77 46 28 26 30 26 20 19 16 12 10 9 9 11 11
56 59 68 66 64 67 68 68 67 66 68 71 71 69 71 72 77 76 74 76 83 76 69 69 70 70 75 80 84 74 46 30 26 28 29 21 18 16 14 9 8 8 10 11
56 55 56 68 76 77 75 74 73 71 70 70 74 73 73 74 75 73 78 81 87 85 77 76 76 73 77 81 76 62 45 31 25 26 30 27 20 18 16 12 8 8 9 10
65 66 69 73 77 77 76 75 74 74 75 76 73 73 74 73 77 78 82 86 87 87 84 78 74 75 78 80 77 68 53 37 30 25 27 30 24 18 17 15 11 8 9 10
71 78 78 80 77 76 77 78 80 82 81 80 78 78 77 77 77 77 79 82 85 88 92 86 82 80 85 85 78 71 60 45 37 30 25 27 30 21 19 17 15 11 9 10
77 76 76 80 82 80 79 85 89 93 91 89 90 88 84 83 80 80 80 81 84 88 94 94 91 91 92 86 83 80 72 59 49 41 33 26 28 29 22 19 18 15 11 10
83 82 83 85 88 95 99 98 99 100 99 87 86 88 92 93 90 87 84 80 82 85 86 94 95 98 98 98 97 91 78 68 62 57 49 37 29 30 28 22 19 18 15 12
93 98 100 100 100 100 100 100 100 99 96 84 80 89 96 99 96 91 86 82 80 83 88 92 97 98 99 100 100 100 99 94 71 93 83 53 39 30 31 27 21 20 19 15
100 100 100 100 100 99 95 85 84 92 99 100 99 86 83 86 88 86 84 81 83 88 90 91 92 92 96 100 100 100 100 100 97 97 98 88 56 41 33 32 25 21 20 18
63 52 46 50 59 62 60 63 65 72 77 79 89 99 100 100 95 90 88 88 87 85 88 92 98 100 100 100 100 100 100 100 99 98 98 88 82 76 42 34 30 23 21 21
34 30 26 21 24 28 33 35 34 44 55 63 71 78 79 81 90 99 100 100 100 100 100 100 100 100 99 100 99 99 99 99 99 99 99 98 97 97 53 38 34 27 23 22
43 41 32 20 14 16 16 15 14 16 23 40 59 71 76 78 80 80 81 83 93 99 99 99 99 99 99 99 99 99 98 99 99 99 99 99 98 97 89 56 38 32 24 23
54 48 40 18 13 14 15 17 19 20 21 21 24 33 50 64 71 77 84 82 79 77 76 86 98 97 94 97 98 99 99 99 99 98 99 98 98 97 96 83 43 35 27 25
55 55 48 23 13 14 17 19 22 24 27 30 33 32 30 34 54 63 70 76 82 83 80 77 77 84 99 100 94 85 91 98 98 98 98 98 98 96 97 95 48 37 29 26
60 61 48 18 14 16 19 21 24 28 31 33 35 38 37 36 36 40 51 60 70 74 77 80 80 78 77 82 95 98 99 96 97 98 97 97 97 98 98 95 58 40 34 44

GFSNGP_850_rhum_072.txt.gz
RH
60 64 70 72 73 77 86 78 82 64 61 45 45 47 46 44 50 59 62 64 63 62 61 64 66 68 72 75 76 76 76 76 73 71 73 78 83 90 90 85 83 79 80 80
80 63 59 74 72 76 74 69 69 64 68 49 37 41 40 38 44 51 61 64 63 62 62 63 66 69 73 78 80 80 79 77 76 77 81 86 90 88 87 84 80 78 75 74
79 68 67 76 69 69 74 72 62 75 51 45 48 40 42 38 41 52 60 63 62 62 63 64 68 71 76 80 83 82 78 79 80 82 86 88 88 88 84 82 80 76 78 80
93 76 92 57 54 56 59 62 67 60 51 45 44 39 34 37 42 52 60 65 68 67 64 65 70 75 79 85 85 82 78 80 81 86 86 86 85 86 85 81 80 84 85 81
93 94 72 57 61 65 70 64 62 60 59 50 46 51 56 52 50 50 60 63 65 63 63 65 69 73 82 84 81 76 79 82 86 85 82 82 86 84 83 84 85 81 32 19
92 94 92 55 52 48 55 86 62 59 61 56 66 74 68 44 46 57 61 59 58 63 66 68 71 77 81 80 78 77 83 87 84 82 83 84 86 86 87 60 27 24 18 14
87 91 75 54 52 52 81 70 63 59 55 52 75 54 42 48 58 62 58 58 61 65 66 69 72 77 80 80 77 86 88 86 85 85 86 88 85 52 27 22 19 14 11 11
92 97 93 54 55 72 64 62 61 55 53 48 50 55 59 66 66 62 60 61 64 67 72 75 77 80 80 81 79 87 90 89 85 83 85 72 37 25 19 17 14 12 13 13
78 76 49 50 50 47 58 60 60 59 58 57 60 64 66 70 69 63 66 65 68 71 76 78 80 81 76 75 86 89 94 95 85 87 63 34 27 20 18 15 12 12 13 12
60 50 50 44 47 59 60 60 59 60 60 57 52 58 63 68 69 70 71 72 69 68 69 74 76 75 78 86 91 92 90 88 90 64 36 30 23 19 16 12 10 10 11 11
66 57 52 47 44 49 57 60 60 59 60 61 63 66 66 65 68 69 72 75 73 67 66 71 77 75 83 91 89 88 91 91 68 36 31 29 23 19 15 11 10 9 10 10
71 50 51 48 48 47 59 61 63 63 65 66 64 63 67 70 69 72 73 77 78 73 72 74 74 73 79 86 84 87 85 75 37 28 30 27 20 18 14 10 8 8 9 10
52 53 55 59 60 58 60 65 70 72 71 67 68 67 65 66 71 76 77 79 81 80 73 70 68 71 71 75 77 80 76 52 30 26 29 28 20 18 16 12 10 8 8 10
48 57 68 65 62 66 70 72 72 69 67 68 69 69 69 70 71 75 73 73 78 83 80 71 70 70 69 72 75 79 80 54 30 25 28 30 22 21 20 16 12 9 8 9
56 61 56 56 64 66 70 73 74 73 72 70 71 74 74 74 72 72 77 80 80 82 85 81 72 72 72 75 79 81 82 62 36 28 27 30 30 23 20 17 15 10 8 9
66 68 66 68 74 77 78 77 75 74 74 74 73 72 73 74 73 73 75 81 82 78 79 86 83 76 77 76 79 83 84 70 47 32 27 27 31 29 22 19 16 14 10 9
72 80 76 74 75 77 77 74 72 73 75 78 78 78 78 77 74 73 74 78 80 83 85 88 90 88 83 82 80 81 82 73 62 42 32 27 27 30 29 21 18 17 15 12
71 72 72 73 73 74 75 76 75 81 84 84 86 85 85 84 80 78 78 80 81 83 86 86 92 97 93 89 86 87 85 82 79 57 41 35 29 27 31 29 22 19 18 16
78 78 80 80 82 83 85 93 96 97 93 93 89 85 85 87 91 89 89 86 84 82 78 85 89 95 97 94 94 95 95 88 86 77 57 47 41 35 30 30 29 24 20 18
87 88 90 94 97 99 100 100 99 100 100 99 97 83 85 93 97 99 97 92 88 86 85 86 90 92 96 99 100 100 100 100 99 97 93 91 87 71 44 33 31 30 24 21
100 100 100 100 100 100 100 100 97 87 87 97 100 100 99 86 85 90 90 88 87 84 82 83 86 91 94 100 100 100 100 100 100 99 98 98 98 98 97 77 41 33 30 24
92 77 63 50 58 59 59 55 52 54 60 69 76 80 91 98 100 100 93 90 88 86 85 86 94 98 100 100 100 100 100 99 99 99 99 98 98 98 98 98 90 38 35 29
41 34 30 27 28 29 29 25 20 25 35 44 54 62 69 76 79 81 91 100 100 100 100 100 100 100 100 99 100 99 99 99 99 99 99 99 99 98 98 98 98 92 40 35
42 42 38 28 19 18 17 15 16 17 18 20 26 33 41 58 73 77 81 81 80 79 84 98 99 99 99 99 99 99 98 98 98 98 98 98 98 98 98 98 98 97 82 40
52 46 46 32 20 16 16 18 21 24 26 28 28 28 26 25 34 47 57 66 74 80 80 78 77 87 98 98 98 98 98 99 99 99 99 100 99 99 98 98 98 98 97 71
54 55 57 50 24 15 17 20 22 25 27 30 33 35 36 35 34 36 42 49 56 65 73 77 80 79 78 81 93 99 98 91 91 96 97 97 97 97 98 97 97 98 97 96
61 61 63 59 27 14 16 18 20 24 28 31 34 36 36 37 38 39 39 40 43 49 58 64 72 78 79 79 79 81 88 99 100 99 99 98 98 97 98 98 98 97 97 96

GFSNGP_850_rhum_078.txt.gz
RH
70 62 83 88 86 86 96 86 96 73 70 52 45 42 40 41 55 65 68 67 64 62 62 65 65 63 62 63 65 68 71 73 75 74 74 72 72 78 86 91 89 86 83 81
88 64 79 87 81 86 87 87 84 77 77 58 48 44 42 40 53 64 63 61 59 59 64 64 64 63 64 66 68 72 74 77 78 78 76 75 80 92 98 95 88 84 83 79
87 74 70 84 73 72 76 83 78 90 69 52 54 51 42 42 49 54 53 50 52 54 57 61 63 64 65 68 71 76 80 82 83 81 78 80 92 98 98 94 86 83 81 81
88 78 94 60 46 56 65 58 72 71 63 54 49 42 38 37 39 42 43 44 46 50 56 62 66 66 68 72 74 80 86 87 85 82 83 92 97 98 96 92 87 84 83 77
95 93 75 56 55 70 72 63 59 61 55 52 50 46 44 38 36 35 39 39 40 45 57 63 64 66 69 73 76 82 85 88 87 84 89 95 96 94 93 89 86 78 33 14
97 96 94 52 57 54 57 82 53 65 63 64 60 69 59 39 37 37 38 37 44 52 61 64 65 67 70 74 78 80 86 86 88 96 98 95 93 92 90 89 73 18 13 10
96 92 76 60 50 57 76 62 67 68 63 65 74 56 44 41 45 45 44 46 47 58 58 58 61 65 70 74 76 83 85 85 97 100 100 98 92 88 90 63 24 15 12 10
97 97 91 53 65 70 59 61 64 66 60 65 58 51 48 47 54 51 47 49 59 57 56 58 62 67 70 73 80 83 84 86 100 100 99 94 91 90 57 26 19 13 10 10
82 76 51 52 56 51 53 58 63 64 57 56 57 56 52 53 55 57 58 62 58 58 59 60 64 69 73 76 80 84 86 98 100 100 98 94 90 59 24 20 14 11 10 10
69 55 62 49 45 44 51 60 64 62 63 59 56 61 63 66 67 69 66 61 61 63 64 63 66 70 75 80 83 84 85 100 100 99 96 93 76 28 22 17 13 11 10 10
70 60 55 50 46 40 43 59 64 62 62 63 64 69 68 69 68 67 66 66 66 68 70 70 67 69 76 80 83 86 94 100 100 98 90 86 38 27 21 19 15 11 9 9
70 49 46 42 39 42 46 49 59 62 61 62 63 62 62 63 67 72 74 78 74 70 72 76 72 69 74 78 80 84 97 98 95 88 85 70 35 31 23 20 16 11 8 7
54 45 43 46 48 50 50 51 60 63 66 69 71 70 68 69 68 67 70 69 72 74 74 78 79 73 71 75 77 79 86 90 87 87 87 57 35 31 25 21 16 12 9 8
56 57 58 52 56 56 55 59 68 68 70 73 71 68 68 67 68 69 71 74 77 75 75 77 80 80 76 72 73 76 79 82 85 84 86 56 30 28 30 24 18 16 15 12
55 60 64 57 61 62 64 67 71 74 74 73 72 71 70 71 74 75 75 77 80 79 78 75 77 80 85 80 73 76 78 79 82 86 86 60 33 29 30 29 23 20 20 17
61 65 68 63 66 69 72 73 74 74 75 75 74 74 75 75 75 74 76 77 78 80 82 82 81 83 86 87 83 77 78 80 81 81 84 70 42 30 28 29 29 27 23 20
75 71 71 70 69 75 76 78 79 79 77 74 72 71 72 74 74 76 79 80 77 76 80 82 84 89 91 94 90 87 81 82 81 82 82 84 75 49 32 28 27 28 28 27
76 70 68 70 71 76 78 79 78 77 77 78 80 81 81 83 84 84 84 82 81 79 79 79 84 88 90 92 94 94 92 88 90 89 86 87 87 82 61 41 32 28 26 28
80 77 76 76 76 81 84 84 83 83 88 92 96 96 96 90 83 85 87 88 90 90 88 88 85 87 90 92 94 97 99 99 97 99 97 96 100 99 92 72 51 38 33 30
87 85 85 84 84 86 90 94 98 98 98 99 99 99 100 99 100 98 96 96 98 98 99 96 92 91 92 94 96 96 100 100 100 100 100 100 99 99 99 99 97 94 84 73
96 98 98 98 100 100 100 100 99 97 92 78 70 66 73 78 91 98 100 100 98 95 95 94 94 94 93 93 97 95 99 100 100 100 100 100 100 99 99 99 99 99 99 99
100 100 100 100 99 98 87 79 48 37 33 34 37 41 44 50 61 71 77 96 99 99 99 99 98 99 99 98 97 98 100 100 100 100 100 100 99 99 99 99 99 99 99 99
65 50 43 40 39 35 31 25 16 15 17 18 20 23 25 26 32 48 65 74 78 80 81 81 85 96 99 99 99 99 99 99 98 98 98 98 99 99 99 98 98 98 98 98
45 48 45 42 34 28 20 16 16 18 20 23 25 26 26 27 28 32 42 43 49 52 59 68 76 78 79 82 94 98 98 98 98 98 98 98 97 97 98 98 97 98 97 98
65 53 48 54 52 40 22 14 16 19 21 23 24 26 29 31 32 34 35 36 38 40 44 52 56 61 66 71 76 80 87 96 98 97 97 98 98 98 98 99 99 99 98 98
48 54 56 59 62 61 40 18 15 16 18 21 23 26 29 31 32 34 38 39 39 40 41 41 43 46 50 55 61 66 69 75 80 87 94 99 99 97 97 98 97 97 98 96
52 54 58 62 63 67 64 34 17 16 17 19 21 24 27 30 32 34 36 39 40 41 42 42 42 42 43 45 48 53 57 63 70 77 81 84 88 93 97 99 98 97 97 98

GFSNGP_850_rhum_081.txt.gz
RH
79 63 82 84 85 88 96 81 86 67 64 51 47 43 43 41 42 62 61 65 64 63 63 64 63 64 63 61 63 64 67 69 73 74 75 73 71 70 69 75 83 88 84 80
86 68 73 85 83 89 84 78 79 72 75 51 48 48 54 56 53 53 59 64 62 61 63 61 60 63 64 63 64 68 69 72 74 78 78 78 75 76 84 93 91 89 84 82
94 74 71 90 80 76 73 81 77 90 67 55 60 60 57 55 57 49 42 55 62 59 57 57 60 63 64 65 67 70 72 76 79 81 82 79 78 89 97 98 94 88 85 82
94 78 95 58 47 63 69 60 69 72 62 58 58 55 54 47 39 36 43 49 56 57 54 57 61 65 67 68 69 71 73 78 82 84 84 81 85 99 99 99 95 92 86 83
95 90 74 55 53 64 67 57 60 61 58 57 58 55 52 46 42 39 35 40 48 47 50 54 59 63 67 68 71 73 75 80 85 86 85 86 97 100 99 97 93 88 81 35
97 97 90 55 55 58 57 80 52 60 63 64 62 76 59 45 44 40 36 38 43 47 44 53 60 65 67 69 72 74 78 83 90 89 91 98 100 100 99 98 92 66 20 12
95 94 83 55 56 57 78 57 59 68 69 68 76 59 51 47 44 42 42 39 41 40 50 58 62 63 66 70 71 76 82 87 88 91 99 100 100 98 98 94 71 22 17 13
97 97 90 55 65 67 58 60 63 67 67 63 64 59 56 54 56 52 46 48 50 52 60 58 57 59 63 68 74 78 83 87 86 97 100 100 99 96 95 92 40 23 16 13
81 74 53 54 50 46 54 55 62 65 64 55 56 57 56 57 58 59 58 56 59 62 57 56 57 60 66 71 76 80 85 87 90 100 100 100 99 94 92 45 26 20 14 12
72 57 64 48 45 45 48 50 58 64 64 56 54 57 59 64 64 65 64 64 63 59 60 61 61 62 68 75 79 83 87 90 98 100 100 100 97 92 64 27 21 14 12 12
74 59 52 51 45 40 41 44 59 64 63 68 70 71 69 68 66 67 68 66 64 63 66 71 67 65 67 74 79 83 85 89 100 100 100 98 91 81 29 23 20 18 16 13
74 52 51 42 39 41 44 45 55 63 62 62 63 64 64 66 70 73 73 74 74 73 68 70 73 73 69 72 78 83 85 91 100 100 100 95 90 60 28 23 21 19 16 11
60 58 54 45 54 48 51 51 60 65 64 67 69 70 69 69 71 72 73 74 74 81 85 80 76 79 76 71 75 77 80 87 99 100 95 88 87 46 31 29 23 18 15 12
63 60 65 52 56 60 57 55 63 69 72 74 73 71 68 68 69 71 73 75 77 78 77 77 77 79 82 79 76 75 77 81 89 85 82 81 81 54 35 31 28 21 17 16
66 68 70 64 63 67 64 67 72 74 75 75 74 73 72 72 72 72 74 76 76 79 80 80 78 79 84 85 86 82 77 76 77 80 82 84 84 64 39 30 29 27 22 20
70 76 75 67 69 74 75 77 78 78 78 77 76 75 73 72 72 74 77 77 75 78 83 85 84 86 86 86 88 89 86 80 81 82 83 86 88 81 49 29 27 27 28 24
85 86 80 72 70 76 77 76 77 77 78 77 75 72 69 70 71 75 78 78 80 81 80 80 84 90 87 91 93 92 90 90 85 86 84 85 86 88 78 52 35 27 25 27
60 84 77 75 72 74 77 80 81 82 82 78 77 78 82 83 79 76 84 89 89 86 86 86 84 83 87 89 92 95 96 95 95 94 91 96 95 96 96 92 90 60 41 31
86 85 82 80 80 80 81 84 84 85 88 91 92 96 99 100 99 94 88 90 92 94 95 95 93 90 87 92 95 97 98 99 100 100 99 100 100 100 100 99 99 99 92 71
92 91 90 86 86 88 88 91 97 100 99 99 96 92 94 95 98 99 100 99 99 97 98 99 99 98 96 96 97 98 100 100 100 100 100 100 100 100 100 100 100 100 100 99
96 95 95 96 99 100 100 100 99 95 81 64 55 46 44 43 50 55 69 97 99 100 99 99 98 96 95 97 97 98 100 100 100 100 100 100 100 100 100 99 99 99 99 99
100 100 100 100 98 95 82 66 39 27 24 26 24 24 25 27 31 40 58 74 78 79 82 84 92 98 99 99 99 99 100 100 100 100 100 100 100 100 99 100 99 99 99 99
96 92 86 76 59 40 29 22 16 15 16 17 20 20 22 24 26 27 39 43 42 48 56 64 72 77 80 86 97 98 98 98 98 99 99 99 99 99 99 99 99 99 98 98
76 50 46 46 43 37 26 16 13 15 18 20 22 24 26 28 29 32 35 38 38 38 40 46 50 55 60 69 76 80 87 98 98 98 98 98 98 98 98 98 98 98 98 98
92 57 50 56 61 61 52 27 16 15 17 19 21 23 26 28 29 31 33 35 36 36 38 39 40 43 47 50 53 57 63 71 79 87 93 98 99 99 99 100 100 100 98 97
51 48 54 57 60 63 65 64 37 18 16 19 20 22 24 28 28 29 31 33 35 36 36 37 38 40 42 44 45 48 50 54 61 67 70 73 78 84 92 98 100 100 98 94
68 58 53 56 61 64 66 69 67 32 18 17 19 20 20 23 25 26 28 30 34 36 38 39 40 42 43 44 45 45 46 46 46 46 48 55 63 69 76 82 87 91 95 95

GFSNGP_850_rhum_084.txt.gz
RH
63 59 66 68 65 65 88 77 79 55 48 40 32 28 28 35 40 46 60 66 70 74 67 62 63 62 59 60 60 60 61 62 65 68 71 73 74 74 71 70 72 81 85 83
100 84 69 76 63 61 61 64 60 56 55 36 34 35 39 41 42 47 48 63 70 74 71 62 62 62 61 62 62 61 63 65 66 68 72 74 75 74 73 75 87 88 89 84
87 86 95 92 66 61 60 56 58 73 52 38 40 42 44 42 43 47 49 50 59 68 58 63 61 61 60 63 64 64 66 67 69 70 74 77 78 77 77 96 100 96 88 84
78 70 87 43 46 50 51 47 46 52 46 41 40 42 48 48 48 47 46 48 56 64 61 59 60 60 62 66 66 66 67 69 71 76 79 80 81 83 92 99 100 98 89 87
84 72 50 45 47 53 54 45 41 45 42 43 44 52 54 52 53 52 47 45 50 56 53 58 58 60 62 66 68 69 70 72 74 79 84 86 86 93 100 100 100 98 91 86
94 78 68 38 50 48 47 54 48 49 48 51 59 60 46 50 50 50 46 42 40 50 54 56 57 59 64 67 70 71 72 74 77 83 87 89 92 100 100 100 100 92 81 47
85 80 59 39 48 54 53 44 54 65 65 66 61 51 58 52 52 49 47 44 40 49 49 49 51 56 62 66 68 70 74 78 82 85 89 90 100 100 100 100 99 90 51 20
74 86 72 50 59 52 39 58 59 66 68 66 65 63 59 57 58 54 47 44 42 48 46 45 55 61 61 62 66 72 76 80 82 88 88 97 100 100 100 100 98 61 22 16
58 50 47 51 40 44 49 54 59 67 66 54 54 57 58 60 61 62 57 53 51 52 53 59 60 57 58 62 66 72 76 79 84 88 94 99 99 100 100 100 94 40 20 15
63 41 49 50 47 48 48 54 54 60 63 58 55 56 57 64 62 59 59 59 60 62 63 58 58 58 61 63 68 72 76 80 84 88 98 100 100 100 100 97 87 28 20 14
62 50 46 46 49 47 42 44 46 58 64 68 72 69 69 68 68 69 67 65 63 62 61 63 64 65 64 64 69 74 78 81 86 89 99 100 100 99 95 90 44 24 17 15
65 61 56 46 51 47 44 45 46 63 64 65 65 66 67 69 73 72 70 70 77 82 79 74 79 79 70 67 69 74 77 79 84 92 99 99 100 99 95 68 31 25 19 16
50 66 68 62 57 57 55 52 52 66 65 65 69 71 71 70 71 72 73 75 77 79 82 81 77 76 85 76 72 74 84 86 84 96 99 100 100 98 93 51 27 22 20 17
53 70 76 70 69 69 64 56 63 68 69 72 73 72 70 69 70 71 72 74 76 78 79 80 80 80 82 84 80 76 77 81 87 91 96 98 96 90 88 52 30 26 22 19
47 50 85 78 73 77 70 65 72 75 75 75 74 73 72 72 72 72 72 73 76 78 82 83 82 82 82 84 85 84 83 81 81 84 91 94 94 92 92 73 41 32 30 26
78 80 92 80 80 80 77 75 76 77 78 78 76 75 74 70 68 69 69 70 73 78 79 82 86 89 86 85 85 86 90 92 91 87 91 96 98 94 92 87 67 43 31 29
69 70 95 84 79 80 83 81 80 78 78 79 78 75 71 71 71 72 74 78 83 83 81 85 83 84 90 92 92 94 95 96 98 96 92 94 98 91 91 91 86 66 40 30
54 65 86 85 82 81 84 82 82 82 82 80 80 81 82 81 82 83 79 77 86 92 90 89 87 88 86 89 92 93 96 97 100 98 98 99 100 100 100 100 98 98 92 84
94 96 89 88 86 83 86 88 85 83 84 86 90 94 97 99 99 99 99 93 89 92 97 98 98 97 95 93 93 97 98 99 100 100 100 100 100 100 100 100 100 100 100 100
99 99 92 89 90 91 89 90 92 97 98 98 94 82 74 68 66 70 79 89 94 98 98 97 99 99 100 100 99 99 100 100 100 100 100 100 100 100 100 100 100 100 100 99
100 100 98 98 98 99 100 100 100 99 91 73 52 42 36 32 32 36 50 63 78 91 92 90 95 99 100 99 100 100 100 100 100 100 100 100 100 99 99 100 100 100 99 99
100 100 99 100 99 92 78 60 35 27 24 24 22 21 20 20 20 24 33 45 46 49 57 63 72 77 82 92 99 98 99 99 99 99 99 99 99 99 99 100 99 99 99 98
98 93 89 73 65 54 35 22 17 17 18 20 21 21 22 24 25 30 32 32 34 36 38 41 47 49 54 75 81 83 95 98 98 98 98 98 98 98 98 98 98 98 97 97
97 58 48 45 45 42 34 19 15 16 17 18 20 22 25 27 26 27 28 30 32 31 32 36 39 38 40 44 49 55 61 72 81 92 100 99 98 98 97 97 97 97 97 97
96 65 55 54 56 60 63 55 38 20 17 17 19 20 22 26 26 25 26 29 30 32 36 37 38 38 38 39 41 43 46 50 55 59 62 68 75 85 94 99 99 99 99 98
98 91 56 52 56 59 62 64 66 54 29 17 16 18 19 21 24 25 26 27 29 32 34 35 36 37 39 40 41 42 43 44 45 45 45 47 50 56 62 68 74 81 92 97
95 94 78 62 57 61 67 70 70 71 65 33 17 16 18 20 22 25 28 29 30 31 33 35 36 38 39 41 42 44 46 47 48 49 49 50 50 49 49 51 54 60 65 70

GFSNGP_850_rhum_087.txt.gz
RH
59 53 52 63 59 55 80 73 80 54 46 35 30 28 25 25 27 32 37 46 57 63 66 68 73 71 67 63 57 54 55 56 58 60 62 64 65 66 66 67 65 66 69 72
100 94 59 66 55 54 54 55 62 58 54 34 32 31 30 29 30 34 38 40 51 62 64 68 70 69 64 60 56 57 58 59 60 63 65 67 69 70 70 70 70 70 75 84
95 96 100 98 72 59 54 48 49 64 48 35 35 33 34 34 36 36 37 41 43 56 63 65 68 68 65 63 59 60 60 61 62 65 67 69 72 73 76 74 75 89 96 93
93 92 92 41 42 44 47 43 40 41 39 36 34 33 34 36 38 40 39 39 45 45 56 64 68 71 69 63 60 61 62 63 65 68 72 73 76 80 79 81 95 100 98 91
86 70 41 37 44 46 48 41 34 37 32 30 32 38 44 45 46 46 43 42 41 44 49 62 69 72 67 63 62 65 67 68 70 72 75 75 79 82 84 92 100 99 100 95
96 91 59 39 41 38 37 46 37 38 40 45 51 60 44 57 53 49 49 47 45 52 55 62 71 69 62 60 61 64 67 69 71 74 76 76 81 86 92 100 99 99 100 97
78 69 50 34 44 45 49 46 51 54 56 58 57 48 55 60 62 54 49 50 53 50 65 70 74 65 62 58 60 66 69 72 73 76 78 81 87 92 100 100 100 100 98 79
85 86 67 39 50 48 40 48 47 54 61 60 56 57 59 65 67 63 54 52 48 46 66 69 62 56 53 53 60 65 68 70 74 77 79 83 90 96 100 100 99 100 95 70
56 51 45 45 37 43 39 40 46 59 64 65 58 57 62 65 65 70 65 56 52 56 56 55 52 51 55 62 62 62 66 71 75 79 82 89 91 100 99 100 100 100 95 38
62 40 39 42 44 43 48 47 51 56 63 67 61 64 65 68 66 67 66 67 63 60 58 58 62 64 63 59 60 64 69 74 77 79 84 89 94 100 99 100 100 100 86 30
76 55 48 40 47 52 49 45 51 54 64 71 74 73 72 71 69 70 67 66 67 68 67 64 61 61 61 62 64 66 71 76 77 79 84 88 99 100 99 100 100 99 86 28
47 64 67 51 57 60 60 55 53 56 69 66 70 75 71 72 71 72 70 70 70 69 67 67 67 73 79 83 75 69 71 76 77 78 83 88 99 99 100 100 100 96 58 28
38 55 58 68 67 72 74 71 60 63 72 67 67 71 72 71 68 70 71 73 76 78 79 77 86 93 86 75 78 82 73 78 90 93 90 91 99 99 100 98 93 82 41 25
66 65 52 68 77 78 77 76 67 70 69 69 72 72 70 69 70 71 72 72 72 75 76 78 79 82 85 88 94 94 87 84 82 84 94 97 98 99 99 96 91 68 28 21
54 64 75 58 90 83 79 78 79 74 74 76 75 74 73 72 71 72 72 72 73 75 79 83 84 84 84 82 82 83 84 82 82 84 84 90 98 100 100 97 91 87 48 29
56 74 84 96 98 89 83 82 82 82 79 78 77 76 74 73 70 66 66 66 68 73 76 82 84 90 92 90 88 86 88 90 92 93 93 92 92 99 100 100 99 97 83 45
62 65 56 70 92 90 87 87 85 85 83 82 78 76 74 70 71 72 72 74 75 78 81 87 85 87 87 90 95 94 94 97 99 100 98 98 98 99 99 99 97 91 88 85
72 74 78 85 94 93 88 87 85 83 83 81 80 79 78 79 83 86 89 88 84 84 84 92 92 92 91 92 93 95 97 98 100 100 100 100 100 100 100 100 100 99 99 99
99 97 98 98 98 97 95 89 87 85 85 85 87 90 92 93 97 100 100 96 93 92 89 94 98 98 99 99 97 97 99 100 100 100 100 100 100 100 100 100 100 100 100 99
100 100 100 100 100 100 100 100 98 91 94 95 95 89 79 68 59 50 48 56 67 72 80 90 96 96 96 94 97 100 100 100 100 100 100 100 100 100 100 100 100 100 100 100
99 99 99 100 100 100 100 100 99 99 98 94 71 47 36 29 26 26 33 54 48 53 54 60 66 74 80 91 96 97 98 99 99 99 100 99 99 99 99 99 99 99 99 99
99 99 99 99 99 98 93 65 40 34 26 24 22 20 20 19 20 23 28 34 30 28 31 34 36 41 47 56 74 83 97 100 99 98 98 98 98 98 98 98 98 98 98 98
98 96 86 72 59 50 38 24 17 16 16 17 18 19 21 23 24 26 29 27 29 29 32 33 32 35 36 40 46 52 67 78 84 95 98 98 98 98 97 97 97 97 97 97
99 98 73 48 49 50 48 36 25 18 16 17 19 20 21 22 23 24 25 26 27 28 30 31 33 35 34 34 38 42 47 49 51 56 65 75 81 92 99 100 99 98 98 97
99 93 61 56 56 57 62 64 65 51 32 20 17 18 20 20 23 22 23 25 27 28 30 31 31 32 33 34 36 38 40 42 43 44 45 46 47 50 55 60 64 70 83 90
99 99 100 98 70 55 56 59 63 67 68 54 29 18 18 19 20 22 23 25 27 29 30 30 32 33 35 35 36 38 40 42 44 46 47 48 49 49 49 48 48 48 52 57
53 75 93 97 95 71 62 61 66 71 72 72 59 31 19 18 19 21 26 30 34 36 37 38 39 40 41 43 44 44 43 42 43 43 44 46 48 50 51 52 52 52 52 53

GFSNGP_850_rhum_090.txt.gz
RH
66 55 74 88 71 71 91 89 82 62 58 44 36 34 31 29 31 31 33 37 46 55 65 70 73 73 75 73 64 60 56 54 54 56 56 56 59 60 61 63 65 65 66 65
98 89 97 92 70 61 64 68 75 66 62 42 40 39 37 34 32 34 35 37 37 50 62 67 72 75 74 67 62 60 57 56 57 58 58 60 62 63 63 66 68 70 68 70
98 98 100 99 92 66 59 55 59 79 57 43 45 40 36 34 34 35 36 36 37 40 50 64 68 68 67 64 61 59 57 59 58 59 61 63 64 66 68 71 72 73 74 76
99 98 97 56 48 55 55 51 50 49 47 43 41 37 36 35 37 37 38 39 39 42 45 49 65 68 66 64 61 60 59 61 62 63 66 66 68 68 69 74 76 76 84 95
98 95 56 45 50 55 64 62 48 48 43 37 33 38 37 44 46 46 47 46 42 41 44 48 58 67 70 67 61 60 59 61 62 65 66 68 70 71 73 79 81 94 100 100
98 97 89 50 42 36 38 63 46 39 44 51 51 75 66 55 54 52 49 47 46 45 43 46 60 67 69 66 61 56 58 60 65 68 71 72 73 74 81 84 93 99 98 99
95 95 65 48 44 42 56 70 54 53 57 59 66 61 57 52 54 57 55 49 50 48 48 54 63 68 70 68 64 61 65 67 69 71 73 74 75 78 83 89 100 99 99 100
89 96 90 48 50 49 53 47 47 53 61 62 60 56 56 62 62 64 62 54 55 52 59 64 67 70 72 70 71 68 68 71 74 75 76 77 78 83 88 94 100 99 100 100
97 78 50 46 46 43 43 42 47 58 65 66 60 58 59 63 64 65 66 60 60 65 69 72 73 74 73 74 71 71 73 71 71 74 74 76 80 86 91 100 100 100 100 99
82 55 61 56 46 53 50 48 48 54 57 65 63 66 69 69 69 69 68 69 65 65 69 70 71 70 70 72 71 70 66 65 69 72 75 77 84 89 94 100 100 100 100 100
77 61 57 55 61 62 63 56 48 48 52 66 72 73 72 71 70 70 68 69 72 72 70 69 70 70 68 65 64 63 64 67 69 70 72 76 83 89 98 100 100 100 99 100
61 48 66 68 58 70 75 74 63 56 59 67 72 75 74 73 74 74 72 72 71 68 68 66 66 66 68 70 75 78 76 72 71 75 79 78 84 91 99 99 100 99 100 99
53 60 59 52 69 78 76 80 76 65 72 72 73 72 74 70 71 72 73 74 76 78 80 81 83 84 90 97 97 89 77 78 79 78 90 95 97 96 100 100 100 100 99 97
57 46 60 54 66 55 79 80 80 76 76 75 74 75 72 70 72 72 71 73 74 76 78 80 81 82 83 85 88 93 99 100 100 91 85 85 92 99 100 100 100 94 87 88
68 50 56 72 79 78 89 83 85 80 78 78 78 75 74 74 72 72 71 68 67 67 68 72 78 85 87 89 86 85 85 86 87 88 87 89 87 90 99 100 99 97 94 91
77 70 66 71 73 98 93 85 85 83 83 82 81 79 76 75 73 70 67 68 69 69 71 76 81 82 85 89 92 91 89 90 92 93 94 95 96 95 94 98 99 99 97 98
94 84 66 67 73 93 91 90 87 85 86 85 83 80 78 75 72 72 72 75 76 76 79 82 85 90 93 91 91 92 97 98 98 98 98 99 100 100 100 100 100 100 100 100
95 78 76 90 98 100 97 92 92 90 88 85 83 81 80 80 83 86 90 92 94 88 88 84 89 97 99 99 98 97 96 97 100 100 100 100 100 100 100 100 100 100 100 99
98 98 100 99 100 100 99 99 99 96 93 89 87 87 90 90 88 87 88 90 90 86 84 86 89 92 98 98 98 99 100 100 100 100 100 100 100 100 100 100 100 100 100 99
96 96 99 100 100 100 100 100 100 100 100 96 93 90 82 70 60 48 38 39 42 47 56 59 64 74 79 88 91 93 93 98 100 100 99 99 99 99 99 99 99 99 99 100
100 100 100 100 100 100 100 100 100 100 98 92 77 55 35 24 21 19 24 30 38 34 29 30 32 34 40 45 55 69 86 97 100 100 100 100 99 99 99 99 99 99 99 98
99 100 100 99 100 99 98 82 41 34 29 24 21 19 19 18 19 21 25 31 28 28 29 30 32 34 33 35 38 40 44 60 72 86 96 99 99 98 98 98 98 98 98 98
100 94 88 58 46 43 34 24 18 15 15 16 17 19 20 20 22 24 25 26 26 26 27 28 30 31 31 32 33 34 37 38 41 44 50 63 78 88 96 99 98 97 97 97
98 99 95 88 70 54 59 60 53 40 27 19 16 16 17 19 22 23 24 24 24 25 25 26 27 29 31 31 32 34 35 37 38 40 42 42 44 46 47 52 58 65 74 86
96 97 98 97 76 61 58 60 63 65 64 55 38 23 16 17 18 20 21 22 22 24 26 28 29 30 31 32 33 34 34 35 36 38 40 43 45 45 46 48 48 49 48 50
86 92 95 98 97 98 98 68 56 58 65 69 69 57 34 20 18 19 20 22 26 30 35 37 38 39 40 40 40 42 46 48 49 48 46 44 43 44 46 48 50 52 52 54
42 42 44 47 52 76 86 83 68 64 68 73 76 75 64 40 22 18 20 24 33 38 38 34 32 31 30 29 30 34 41 50 53 52 50 50 50 51 52 52 53 53 54 55

GFSNGP_850_rhum_093.txt.gz
RH
96 81 94 96 83 86 99 86 81 61 62 47 44 40 34 34 33 35 37 44 39 37 38 43 53 66 79 75 71 68 62 56 58 59 58 55 52 55 60 61 61 61 62 62
98 87 97 85 80 81 81 85 84 79 73 43 38 41 43 40 38 38 35 35 36 37 38 43 49 58 65 72 68 64 60 60 60 59 57 56 57 59 62 63 65 66 66 67
93 99 99 99 94 82 66 68 76 91 65 47 51 48 44 40 37 37 37 37 38 38 41 42 45 56 60 62 67 66 65 62 60 59 58 59 60 63 64 66 68 71 73 73
95 99 96 60 53 62 66 54 57 59 56 51 48 44 42 40 39 37 36 37 38 38 40 44 49 59 62 62 65 67 64 61 59 60 62 63 66 68 69 71 73 76 77 78
100 97 77 47 44 68 74 68 55 58 53 47 42 40 43 48 49 50 50 47 46 46 42 45 49 56 63 66 65 67 66 62 62 64 64 65 67 69 71 72 73 78 82 97
95 96 85 54 42 38 40 60 56 49 52 48 53 59 63 55 54 50 48 47 46 47 45 43 50 54 62 65 65 66 67 65 67 68 68 70 72 74 76 76 79 84 98 99
88 96 80 50 42 41 51 53 57 59 61 61 70 66 58 52 52 55 56 54 50 51 51 46 46 57 65 66 67 65 69 70 71 71 72 77 76 77 78 80 85 97 100 99
88 99 94 51 47 50 56 50 50 55 63 64 62 57 53 56 57 60 61 56 54 54 52 48 49 62 66 68 70 72 72 72 72 73 75 75 75 77 78 83 89 100 100 99
99 90 80 79 68 64 56 51 50 61 67 66 61 60 60 63 65 63 65 60 62 66 65 63 67 70 69 72 74 74 73 72 73 73 73 73 75 77 80 87 95 100 100 100
76 65 65 93 69 74 71 66 55 54 56 62 64 69 70 69 69 71 68 69 63 66 72 76 77 76 78 77 76 74 72 74 71 68 70 70 72 76 83 88 99 99 99 99
78 58 55 74 66 76 76 72 67 55 51 51 72 74 73 74 72 70 70 70 70 70 68 68 70 72 72 72 73 74 72 70 68 70 71 72 76 79 82 88 98 100 100 100
70 61 62 58 52 57 78 74 79 76 62 65 72 76 75 72 73 73 73 74 72 71 69 67 67 67 67 67 68 69 70 72 74 77 77 80 86 86 86 94 99 99 99 99
62 66 64 50 52 74 70 85 88 83 76 73 76 76 77 73 74 74 74 75 77 79 81 85 87 91 93 94 95 96 94 92 85 82 82 86 95 97 98 99 99 99 99 100
65 76 82 60 58 67 74 89 95 87 83 78 76 80 76 72 76 73 72 73 74 76 77 80 83 85 85 86 88 90 94 98 100 100 100 100 93 89 93 100 100 99 100 100
86 91 87 68 71 82 86 74 97 88 85 82 81 80 76 75 76 74 72 69 68 67 66 66 69 74 81 88 91 90 89 92 95 97 97 96 94 94 96 94 100 100 100 100
83 83 74 67 68 63 96 98 98 88 85 85 82 81 80 79 77 73 70 71 73 73 74 76 78 80 84 89 91 96 98 96 95 94 95 95 98 98 99 100 100 100 100 100
97 88 83 73 70 74 95 97 92 93 88 87 86 84 80 78 76 74 75 77 81 83 82 86 87 84 89 94 97 95 96 100 100 100 100 100 100 100 100 100 100 99 100 100
97 99 98 93 95 98 100 100 98 95 92 90 88 85 84 84 85 87 91 94 97 96 92 93 90 88 86 98 98 99 99 99 100 100 100 100 100 100 100 100 100 100 100 100
97 92 93 99 100 100 100 100 100 100 99 99 100 99 97 92 88 82 77 77 81 74 65 58 61 69 80 89 98 98 98 99 98 98 99 100 100 99 99 99 100 100 100 99
100 99 99 100 99 100 100 100 100 100 100 100 100 99 87 73 58 45 37 38 40 38 36 33 36 38 41 49 60 75 90 94 95 93 92 97 99 100 100 100 99 98 99 98
99 99 99 99 99 100 100 100 99 98 95 88 78 57 39 28 22 21 25 31 36 28 27 27 29 29 31 31 32 33 39 53 68 86 97 98 100 98 95 94 95 97 98 97
98 99 99 100 99 98 86 69 42 29 25 22 20 20 19 19 20 22 25 28 26 25 26 27 28 28 28 28 29 30 32 34 36 38 43 52 67 76 86 93 96 96 96 96
97 94 84 52 49 44 37 32 26 22 19 17 17 18 19 20 21 21 23 23 23 23 24 25 27 28 29 30 32 33 34 35 35 38 38 40 41 42 44 46 49 54 63 73
93 96 95 91 90 75 58 63 64 61 54 44 31 20 17 18 21 20 21 21 22 23 24 26 28 29 30 31 34 35 36 37 37 38 38 40 41 41 43 45 46 48 49 50
97 97 97 99 100 98 82 64 59 60 63 66 66 57 41 25 19 19 20 21 22 25 29 34 36 38 40 40 39 38 38 41 46 50 51 51 48 47 45 45 46 46 46 48
64 70 82 96 99 99 99 99 99 89 62 61 68 71 68 54 32 20 19 20 23 30 37 39 38 35 32 30 29 30 32 36 47 51 51 50 50 51 51 52 53 54 54 54
41 41 42 42 41 45 52 64 76 80 76 70 72 77 77 74 60 36 23 21 23 32 39 37 33 32 30 28 27 29 34 45 51 50 50 55 58 59 60 61 63 64 65 67

GFSNGP_850_rhum_096.txt.gz
RH
90 87 99 100 97 98 99 88 85 68 70 51 42 42 35 37 38 37 37 40 38 34 33 32 29 34 43 55 66 68 71 71 70 76 79 72 70 73 66 61 59 58 58 59
84 80 86 88 96 97 98 92 80 86 81 46 38 40 44 43 40 37 38 35 34 34 35 35 36 35 41 50 62 71 74 77 76 70 63 59 58 59 61 63 60 62 65 67
83 76 91 92 84 90 88 86 89 97 70 50 60 53 50 46 44 41 37 36 37 38 38 39 40 40 41 47 59 69 73 75 71 66 62 59 59 60 63 65 68 68 67 70
92 96 97 70 57 69 76 66 64 70 64 58 52 49 46 46 44 40 38 37 37 38 39 40 42 46 48 57 62 73 74 73 72 66 62 60 61 63 67 69 69 69 69 71
97 96 85 52 46 73 78 68 62 64 59 56 51 47 46 47 49 48 50 51 50 48 44 43 41 44 52 60 65 73 72 70 68 65 62 63 65 67 70 72 72 73 75 77
90 96 84 57 50 43 49 64 64 60 60 56 50 63 57 57 57 52 50 47 44 46 46 46 44 45 52 60 68 67 66 65 66 66 67 69 71 73 75 76 76 78 79 84
91 99 81 76 65 47 55 54 60 63 64 63 71 60 59 54 53 54 54 53 52 50 48 49 46 43 49 60 63 64 66 69 70 68 71 74 75 76 77 78 78 80 83 97
92 99 94 92 72 78 77 67 54 59 66 66 63 59 54 56 57 59 59 57 56 55 55 54 50 47 49 58 62 68 71 71 71 71 73 75 78 80 80 78 79 84 94 100
92 81 86 88 87 77 84 82 81 65 69 66 61 59 60 63 65 66 63 64 62 66 65 57 52 52 58 63 69 72 74 74 74 74 78 80 79 77 76 77 79 85 100 99
84 69 58 84 90 94 88 77 83 72 62 64 60 65 68 68 69 69 67 68 64 69 78 78 74 72 74 74 74 75 76 77 77 77 78 77 76 74 75 76 80 87 98 99
80 59 71 68 58 58 74 83 78 75 71 57 65 73 73 73 72 69 69 68 69 70 71 77 80 79 79 79 79 80 80 80 79 78 74 74 76 79 78 81 84 89 97 100
73 65 64 57 54 47 63 67 87 90 81 73 74 79 78 77 74 72 71 74 75 72 70 71 73 74 74 76 78 78 76 73 71 73 76 81 84 85 87 92 92 97 99 98
71 81 85 80 74 64 70 69 64 90 90 88 79 80 80 77 76 75 73 73 75 78 81 85 85 85 81 80 80 81 83 84 85 86 90 89 85 92 96 99 98 99 100 99
93 100 98 78 77 62 56 74 78 92 96 89 86 86 85 78 75 75 72 71 74 75 76 78 80 82 83 84 87 91 96 98 99 100 100 99 99 100 99 99 99 99 100 100
81 84 91 84 68 73 67 91 98 90 98 89 88 90 88 85 84 76 74 73 72 72 70 69 70 71 74 78 87 92 91 92 95 97 99 100 100 100 100 99 99 99 100 100
85 85 87 79 73 71 76 84 100 99 98 90 87 88 87 86 80 75 73 73 74 74 74 76 77 79 82 85 91 94 99 100 98 96 97 98 99 99 100 100 100 100 100 100
91 88 85 79 79 79 98 100 100 98 98 95 92 88 86 82 79 77 76 77 80 83 85 86 86 86 85 86 93 92 99 100 100 100 100 100 100 100 100 100 100 100 100 100
89 92 97 100 100 100 99 100 100 100 100 100 99 94 97 95 84 87 89 91 93 95 94 92 88 80 80 74 89 99 98 99 99 99 99 99 99 100 100 100 99 99 100 100
96 91 89 95 100 100 100 100 100 100 100 100 100 100 99 100 100 90 82 80 80 77 62 47 44 46 48 54 76 82 97 97 98 97 97 97 94 99 100 100 99 99 99 100
100 99 95 99 99 99 99 100 100 100 100 100 100 100 100 99 82 57 48 42 40 36 30 25 26 28 28 28 29 36 52 82 95 98 95 97 97 96 96 100 100 100 100 98
99 99 99 100 100 99 99 99 99 99 99 97 86 80 80 44 30 24 26 35 34 25 23 24 27 28 27 28 28 29 31 32 37 44 62 82 92 96 95 95 99 100 99 100
95 92 98 99 99 96 83 67 35 39 35 28 26 24 22 22 23 24 28 31 26 23 24 25 26 26 26 26 27 27 27 28 28 29 30 31 32 34 36 40 44 55 65 75
96 95 90 61 50 48 47 48 42 33 27 23 20 20 21 22 23 24 26 26 22 22 23 24 25 26 27 27 28 28 30 32 34 34 35 35 35 36 38 40 40 42 43 43
96 96 93 89 96 95 95 96 96 96 87 58 48 35 24 20 22 22 23 22 22 23 24 25 27 30 33 36 40 41 42 41 41 45 49 50 51 50 49 47 45 43 44 45
94 97 98 98 99 99 100 99 99 98 97 88 66 66 63 47 31 23 22 22 23 25 27 32 36 39 40 38 32 30 30 32 35 46 50 50 48 48 48 49 51 51 51 51
60 56 53 52 58 68 79 94 98 98 98 98 94 69 69 71 66 46 26 22 22 24 31 38 40 38 34 32 29 28 29 32 43 51 50 49 52 54 55 56 57 58 59 60
40 41 42 43 46 47 46 47 52 60 80 91 92 97 93 94 83 75 57 35 23 22 30 39 40 36 34 33 32 30 28 36 50 50 50 54 54 53 54 55 57 59 62 65

GFSNGP_850_rhum_102.txt.gz
RH
73 80 89 92 87 85 99 97 96 71 65 48 40 38 39 46 42 42 40 38 35 35 34 32 32 31 31 31 33 43 54 57 57 56 56 56 55 54 52 57 74 77 76 69
88 80 84 85 82 83 88 94 98 99 92 63 46 39 41 42 46 46 45 41 36 35 35 35 36 36 36 36 37 39 47 59 63 64 66 68 66 63 60 69 81 75 63 58
92 71 84 92 84 80 76 86 84 94 77 70 76 68 61 47 45 49 49 45 40 40 37 36 37 40 40 41 42 42 48 62 71 74 75 75 73 70 78 84 68 59 60 61
97 92 87 63 61 66 75 72 71 86 80 73 80 66 50 53 51 50 49 46 40 39 37 37 38 39 40 41 44 46 51 62 73 78 80 79 81 86 80 66 63 63 64 65
92 91 75 63 78 68 92 100 78 84 76 75 68 62 59 53 52 51 48 44 42 42 40 39 40 41 41 41 42 49 52 58 69 82 85 84 82 75 68 66 66 66 68 70
92 96 95 82 85 82 75 95 85 90 89 88 66 83 70 57 54 54 53 52 50 49 47 44 44 46 48 46 44 43 53 59 72 81 80 76 74 69 68 69 69 69 71 72
98 100 77 72 86 74 79 71 90 97 99 100 93 70 62 58 58 55 54 53 53 53 51 49 49 47 45 46 46 44 58 68 75 79 78 76 72 70 72 73 72 73 74 72
90 94 90 84 74 68 83 86 90 94 99 99 86 72 64 63 63 64 64 63 60 57 58 56 54 55 55 50 49 54 68 73 76 81 81 78 76 75 76 76 76 77 73 71
85 80 70 82 79 84 95 99 96 96 93 95 93 79 76 69 70 70 70 67 66 61 69 68 61 56 55 56 56 66 73 77 79 81 80 79 78 78 78 78 78 73 72 74
83 72 70 64 92 67 53 60 69 75 85 91 92 90 86 78 74 74 71 69 70 69 76 80 78 67 59 62 67 71 75 76 77 78 78 80 80 81 82 81 76 76 78 77
81 65 75 87 58 62 64 65 63 69 76 81 93 93 94 86 79 76 72 74 72 75 78 83 83 81 79 76 76 78 76 76 78 80 81 82 83 84 84 82 80 81 83 86
72 63 66 64 64 68 78 77 73 70 68 70 87 91 96 91 86 80 72 77 81 77 76 79 82 83 82 81 80 82 83 83 83 83 84 85 86 85 81 81 83 86 90 93
66 78 83 78 80 78 85 79 77 76 64 71 71 87 98 95 88 84 78 83 85 85 86 83 77 75 77 81 82 81 84 84 86 86 85 84 82 81 83 89 90 90 98 99
75 92 88 84 85 78 79 75 76 84 89 92 89 93 97 96 96 98 92 89 85 86 84 81 80 80 82 86 88 87 85 85 85 87 88 90 94 98 100 99 98 100 100 100
99 98 85 83 86 80 82 83 82 76 83 90 94 99 97 100 100 96 98 98 94 86 78 74 72 70 69 69 70 72 74 84 93 98 100 100 100 100 100 99 100 100 100 100
93 95 85 87 96 90 92 100 99 97 95 98 99 98 100 100 100 100 97 93 87 84 78 76 75 76 78 79 80 74 75 85 92 98 99 99 100 100 100 100 100 100 100 100
97 93 82 92 98 98 100 100 100 99 100 100 100 97 95 97 98 92 90 86 85 82 82 86 87 87 87 85 83 70 68 90 97 94 96 98 100 100 100 100 100 100 100 100
86 90 86 87 97 100 99 100 100 100 99 99 98 100 100 99 99 100 100 99 99 100 100 92 90 84 69 52 43 46 63 80 92 98 100 100 100 100 100 100 100 99 99 99
88 92 97 84 85 99 99 99 99 100 100 100 100 99 99 100 100 100 100 100 99 97 87 73 52 38 28 24 25 26 37 63 80 94 95 98 98 100 100 100 100 97 92 93
88 95 99 98 91 98 100 99 96 97 98 99 100 100 100 98 98 98 100 98 98 86 49 37 28 25 26 25 26 26 28 31 48 90 100 100 97 99 100 100 100 100 100 98
90 89 90 90 97 98 100 93 82 77 77 86 78 59 64 63 43 40 42 38 42 47 41 29 28 27 27 26 26 26 28 28 29 32 35 40 45 49 52 52 52 50 42 42
96 91 90 89 91 88 68 47 37 29 26 24 22 23 24 23 24 23 20 24 31 39 32 26 27 26 26 26 27 27 27 28 30 35 39 41 43 44 43 43 42 42 42 41
99 96 92 88 76 53 53 61 70 79 82 74 56 44 35 28 23 20 20 22 27 31 26 25 26 26 27 29 29 31 38 43 40 37 40 46 48 49 48 46 45 44 44 45
98 97 91 88 72 72 93 100 100 100 100 100 100 100 98 79 57 40 30 24 26 26 23 24 26 28 30 33 36 42 39 32 32 32 39 47 49 47 44 46 50 51 50 49
94 94 96 95 96 96 96 96 98 99 98 98 98 99 99 99 98 87 60 45 31 29 26 26 28 31 36 39 42 40 34 31 30 30 34 49 50 49 52 52 49 46 44 44
63 61 52 48 49 46 46 49 49 51 52 50 53 76 97 100 98 98 98 96 79 45 30 29 30 32 38 42 43 38 35 32 32 29 29 47 50 52 54 51 49 47 48 50
70 51 43 43 38 31 30 29 29 34 48 58 57 58 54 58 79 95 98 98 98 98 97 92 60 40 35 41 43 40 38 36 36 32 29 47 52 52 52 50 49 50 54 56

GFSNGP_850_rhum_105.txt.gz
RH
83 78 80 76 87 90 95 89 99 85 69 56 51 42 42 46 46 43 41 39 37 35 35 35 35 35 34 34 37 46 52 55 55 56 55 54 56 60 60 56 54 54 60 72
90 69 81 89 78 76 86 77 84 90 86 70 65 56 46 47 44 45 46 45 42 38 36 36 36 37 37 37 37 36 40 56 63 61 59 58 58 56 56 56 59 79 80 77
90 77 85 86 73 80 79 81 83 94 75 69 74 70 70 68 54 51 50 44 42 38 38 38 37 37 38 40 41 40 41 52 63 67 67 65 66 64 62 61 72 82 78 63
93 87 85 87 68 72 87 95 91 85 77 77 77 74 71 68 64 58 52 50 46 42 40 39 39 39 39 40 42 42 43 46 56 69 75 76 77 76 73 72 83 78 63 66
91 87 74 74 82 81 88 98 97 98 88 94 83 71 69 64 58 55 51 48 46 45 44 44 43 42 43 40 41 44 46 48 52 63 78 82 81 79 81 88 79 65 66 70
92 99 88 68 76 84 82 95 96 98 97 97 78 90 74 70 65 62 59 56 54 52 50 47 46 45 45 45 48 43 41 49 59 66 77 84 86 89 88 78 70 68 70 72
97 98 73 60 79 78 87 78 91 96 100 100 97 95 81 66 64 61 61 57 55 55 53 51 49 47 44 44 41 47 51 56 66 72 80 89 90 84 77 73 71 73 73 76
85 92 81 78 71 71 74 86 87 94 96 99 94 82 82 73 70 68 66 66 66 61 56 57 60 56 53 55 57 52 53 60 71 78 86 85 82 80 77 76 76 76 77 74
80 74 57 84 75 80 93 90 87 91 83 90 96 91 89 88 77 75 73 70 67 64 63 67 68 65 59 60 59 57 59 70 78 82 84 83 81 79 78 78 79 79 77 72
87 73 78 69 86 87 61 69 68 67 72 82 81 93 93 93 85 78 76 74 73 71 73 80 82 79 70 67 67 69 75 77 79 80 82 84 84 83 82 82 82 82 76 76
87 71 66 86 82 62 66 70 70 67 64 67 78 74 98 95 91 85 78 76 76 76 77 82 85 84 83 80 79 80 82 81 80 79 81 82 84 84 85 88 89 85 79 82
69 59 57 63 66 73 78 79 75 76 73 67 66 78 92 99 97 86 79 78 82 81 77 76 81 85 83 83 84 86 85 85 84 83 84 86 87 87 91 94 89 83 83 86
55 56 67 79 81 82 82 76 77 80 86 83 67 80 93 100 97 87 84 87 89 87 87 86 83 78 80 85 85 85 86 87 89 89 87 88 90 93 95 89 83 87 92 93
66 75 86 84 82 81 76 73 79 83 80 88 93 95 99 100 98 98 99 98 97 90 88 85 82 82 84 88 88 84 84 86 89 93 94 93 92 90 88 90 98 99 99 99
71 92 93 87 86 83 74 78 97 83 84 82 86 95 99 99 100 100 100 100 98 100 98 82 75 71 71 72 72 72 73 79 89 96 98 96 96 98 100 100 100 100 100 100
85 96 93 85 90 88 97 99 100 100 100 99 98 95 100 99 98 99 100 100 100 100 91 84 83 80 82 82 81 79 73 65 71 86 96 100 100 100 100 100 100 100 100 100
90 97 84 85 97 98 99 100 99 100 100 100 100 100 98 100 100 99 99 98 98 96 91 89 91 90 88 88 87 84 76 60 76 90 92 96 96 100 100 100 100 100 100 100
87 84 82 84 91 99 100 100 100 99 98 99 100 100 100 100 100 100 100 100 99 99 100 100 99 89 74 58 45 39 42 56 75 87 90 99 100 100 100 100 100 100 99 99
88 99 92 85 81 82 93 99 98 96 97 98 99 100 99 99 99 100 100 100 100 100 100 99 93 53 36 27 26 24 24 31 59 87 91 88 97 100 100 100 100 100 99 99
91 99 99 100 93 89 87 93 87 87 91 97 96 99 99 99 98 97 98 98 99 98 97 77 58 30 28 27 26 26 26 26 34 74 100 100 98 94 94 95 98 99 100 100
98 99 92 85 90 95 96 95 81 64 46 36 46 54 42 35 36 34 31 31 37 40 43 43 32 29 28 27 28 26 27 28 29 33 44 57 67 72 69 64 66 59 52 43
96 90 88 86 88 86 83 62 45 42 44 43 37 32 28 25 23 23 26 33 28 28 30 32 26 27 28 27 28 28 29 29 31 36 41 44 46 47 47 47 47 47 46 45
99 93 91 89 87 77 56 54 68 83 97 99 99 99 96 85 65 46 33 26 24 29 34 30 26 26 27 29 30 30 34 42 44 40 42 47 50 50 48 46 45 45 47 49
100 100 95 94 91 76 76 100 98 98 99 99 100 100 100 99 98 98 84 48 35 30 28 28 29 30 31 33 35 36 43 40 35 32 34 42 48 47 44 47 50 51 50 48
99 99 98 93 87 81 70 59 51 50 52 55 56 63 80 99 99 98 98 98 95 58 36 34 32 31 31 37 41 43 43 36 35 33 30 32 46 48 48 50 50 47 47 47
62 65 64 53 46 47 45 38 32 34 34 35 44 58 60 60 64 76 94 98 97 98 97 89 53 38 35 38 43 46 49 70 38 33 33 31 35 49 50 52 50 48 47 48
74 73 57 44 39 29 27 27 26 25 26 26 26 37 42 57 71 73 70 71 90 97 97 97 97 96 86 48 44 47 47 42 40 38 38 34 31 49 52 52 50 47 48 52

GFSNGP_850_rhum_108.txt.gz
RH
56 53 56 63 62 56 82 70 90 80 92 55 48 48 38 44 46 47 48 47 44 41 37 36 36 42 52 54 54 54 52 49 48 48 48 48 49 50 61 84 100 100 99 79
78 59 68 65 52 58 61 61 66 64 72 48 45 53 51 48 50 50 52 50 48 42 40 39 37 36 34 33 36 44 50 53 54 54 55 55 56 58 66 76 79 70 57 57
70 65 87 82 69 66 69 68 74 83 61 60 62 58 59 57 59 58 58 54 48 46 41 40 40 39 39 38 36 36 38 42 52 59 60 60 61 61 62 62 57 56 64 80
75 73 74 70 59 68 76 87 90 88 90 82 74 72 69 66 67 60 59 57 53 47 44 42 42 41 42 44 43 41 40 41 44 53 63 65 64 63 61 59 59 66 78 79
72 60 57 65 69 68 70 90 97 97 89 87 82 71 69 77 72 65 61 55 53 50 48 46 46 46 45 43 42 43 45 45 48 57 65 71 70 68 69 67 67 72 80 72
76 67 51 63 64 75 71 70 86 97 88 87 78 74 71 90 75 71 67 63 57 52 51 49 48 47 46 46 46 46 43 46 54 59 67 74 78 80 83 82 82 88 77 70
63 62 41 40 60 75 80 66 79 87 95 97 91 95 96 89 76 80 79 74 67 61 56 53 51 49 47 47 45 47 48 52 56 68 74 82 88 89 86 87 94 81 77 77
68 77 54 50 67 63 64 79 81 87 90 90 94 96 98 97 91 79 80 80 76 71 65 61 57 55 53 50 52 51 52 51 53 63 73 85 91 92 97 98 84 79 80 79
52 41 49 76 69 76 86 84 78 77 79 85 86 81 85 98 93 85 79 76 75 73 71 71 73 72 70 58 59 61 61 56 58 71 81 88 93 95 91 84 81 80 80 81
70 54 56 64 82 85 79 72 78 76 74 74 78 82 79 84 95 90 81 76 74 73 71 73 80 81 80 71 66 68 68 68 76 82 87 92 90 88 84 80 81 82 82 82
66 60 65 66 75 78 75 70 72 69 75 72 76 80 82 80 97 93 87 79 79 79 77 79 84 84 84 83 79 80 82 84 85 84 86 86 87 87 85 85 84 84 84 82
38 48 44 62 71 68 75 79 74 79 78 84 89 79 75 85 97 95 84 79 78 84 84 80 82 87 85 85 88 89 89 90 90 91 93 92 89 88 91 94 94 91 92 93
42 52 59 66 73 76 69 72 70 76 79 83 91 82 73 88 98 99 92 85 90 92 90 88 92 87 83 87 86 88 88 92 90 90 90 91 92 92 91 97 99 99 92 86
55 58 77 77 78 76 74 76 82 90 81 90 89 96 99 94 100 99 100 96 99 97 93 88 88 84 85 90 89 85 91 93 96 97 98 96 97 96 96 98 98 97 94 96
68 67 78 81 77 78 80 95 100 82 86 92 92 87 89 98 100 100 99 98 99 99 98 98 92 81 76 74 74 73 73 81 88 92 92 94 98 100 100 100 99 100 100 100
69 79 91 89 87 86 95 98 100 100 100 100 98 92 98 100 99 100 100 100 100 100 99 98 94 86 79 78 81 81 80 78 72 74 83 97 100 100 100 100 100 100 100 100
86 97 98 89 90 93 96 98 99 99 100 100 100 96 95 94 97 98 99 99 100 100 100 98 88 84 88 87 86 86 84 80 73 71 88 95 100 100 100 100 100 100 100 100
71 78 82 81 88 96 98 96 100 100 100 99 98 100 99 99 100 100 100 100 100 99 99 100 100 100 99 86 62 47 40 39 49 63 78 91 98 100 100 100 100 100 100 99
80 83 83 83 85 89 99 100 95 94 93 94 92 96 98 99 99 100 99 100 100 99 98 98 98 98 99 93 46 27 25 25 35 70 96 96 97 98 100 100 100 99 99 99
85 100 99 99 100 94 98 98 94 88 80 78 80 84 83 84 84 83 82 84 91 95 96 96 90 82 64 51 32 30 29 31 38 68 100 100 100 98 95 100 100 100 100 100
100 99 98 98 95 96 98 95 92 68 48 32 27 28 28 31 31 31 33 34 34 35 47 51 48 38 31 32 32 32 33 35 41 63 92 99 100 100 100 100 99 100 100 98
95 100 97 89 91 89 87 82 61 46 52 66 78 80 78 71 59 46 34 27 25 28 33 42 59 76 67 36 29 32 32 33 34 36 40 42 45 44 43 43 42 42 43 43
91 91 91 92 91 87 77 60 58 73 91 100 99 98 98 99 100 100 95 86 52 33 31 38 40 35 38 36 27 30 34 35 40 46 46 48 49 50 49 48 47 46 45 45
100 100 96 93 92 90 80 84 99 100 95 93 88 95 94 92 90 99 100 98 98 94 63 36 36 35 34 33 34 34 37 42 46 40 38 41 46 48 47 46 46 48 50 50
100 99 98 99 88 74 65 57 54 52 49 51 54 54 58 58 58 59 70 91 99 99 98 97 85 44 36 35 37 40 42 45 44 37 35 34 32 42 47 48 51 53 50 47
83 70 64 59 52 48 46 40 31 27 26 25 27 28 33 41 50 59 66 68 67 87 97 98 97 97 94 59 39 42 48 51 46 51 42 36 33 31 42 48 52 53 50 47
71 71 68 57 44 36 29 28 30 31 30 30 30 30 30 30 31 33 35 42 62 78 84 95 97 97 96 96 95 67 45 50 55 54 62 80 44 35 35 50 54 55 51 49

GFSNGP_850_rhum_111.txt.gz
RH
49 47 50 52 54 46 72 67 81 57 62 55 46 42 44 39 43 44 46 45 44 46 48 53 68 70 70 62 56 55 54 58 60 60 54 48 45 46 50 59 67 97 99 99
76 52 56 53 41 41 49 53 56 56 56 41 49 50 50 46 46 49 50 50 49 47 46 50 52 46 52 60 62 64 63 60 55 51 50 50 51 53 56 64 95 100 100 100
63 55 81 82 57 59 60 58 71 74 56 59 58 54 57 59 56 55 54 54 54 51 48 44 42 43 46 42 40 45 51 54 55 56 56 57 58 63 69 80 98 100 99 89
67 73 73 61 54 60 60 70 76 76 82 85 68 65 64 64 63 57 59 58 59 61 53 45 43 41 41 43 44 42 42 42 45 50 56 60 62 63 67 76 83 83 69 60
68 43 46 52 56 59 61 70 93 94 76 70 70 63 74 84 81 72 70 70 70 72 58 50 47 45 44 42 41 41 44 45 45 48 55 61 65 65 65 65 63 60 60 72
66 60 41 47 56 61 59 68 75 94 80 78 69 67 80 91 92 85 85 81 76 66 74 75 59 50 47 45 44 42 42 42 46 50 52 56 66 69 69 67 66 66 72 78
49 54 32 42 50 62 72 72 71 75 81 83 79 88 95 94 93 84 83 84 79 73 71 71 62 58 56 54 49 47 45 44 46 48 57 63 66 73 74 74 75 78 81 85
47 60 51 46 60 61 58 63 64 72 79 81 77 77 86 88 93 93 79 78 78 77 70 66 63 60 61 62 58 55 54 50 47 51 57 65 70 78 83 86 88 85 88 88
41 38 44 47 53 62 66 62 68 68 68 65 65 67 67 69 90 94 89 82 80 76 73 71 69 73 76 75 69 64 64 67 64 59 63 72 81 83 90 92 90 94 95 82
55 38 42 55 66 67 74 65 68 68 67 67 64 63 65 66 74 95 96 85 80 82 81 80 80 83 82 82 77 76 76 76 81 78 74 83 85 88 93 94 98 97 84 79
46 40 54 54 56 67 72 75 74 71 71 72 74 71 66 67 70 85 97 84 79 82 84 81 79 83 84 85 87 86 92 92 93 99 95 94 93 95 99 97 92 85 81 81
29 33 38 49 59 69 70 70 72 75 73 72 78 80 78 70 72 84 94 84 80 80 85 85 83 78 83 85 88 93 96 96 95 96 96 96 94 93 93 94 92 89 89 92
33 44 49 57 68 73 74 72 76 77 84 86 79 91 84 80 84 89 98 92 85 85 92 92 86 90 85 86 87 89 92 95 95 99 100 98 96 96 96 97 98 100 100 99
48 56 66 73 66 75 69 73 73 93 98 98 83 88 92 95 94 97 100 100 98 95 98 95 91 84 80 85 91 88 91 94 92 94 95 96 96 97 99 98 98 100 100 100
59 60 63 71 74 76 73 80 95 98 100 99 92 81 84 83 84 98 99 100 98 97 99 100 100 96 89 83 78 77 75 80 85 92 97 99 99 99 100 100 100 100 100 100
67 74 79 82 78 81 84 92 99 99 100 100 100 100 98 97 99 100 100 100 99 99 99 99 100 99 99 99 99 92 86 83 80 76 74 82 95 99 100 100 100 100 100 100
72 80 82 87 82 80 85 96 98 99 100 100 96 94 98 99 99 99 100 99 100 100 100 100 100 100 100 97 93 89 86 88 87 84 82 80 84 90 100 100 99 100 100 100
64 68 73 78 77 79 92 98 98 98 99 96 90 86 94 99 99 99 99 99 99 99 99 99 99 100 100 99 99 99 89 60 40 50 62 77 93 99 100 100 100 100 100 100
72 72 78 76 80 88 99 97 97 100 90 86 84 85 89 95 100 100 100 97 95 95 93 96 97 98 98 98 98 97 94 61 32 34 53 87 100 100 100 100 100 100 100 100
80 91 94 96 100 100 99 99 99 96 81 73 65 55 58 62 56 49 46 43 40 39 41 52 60 57 52 46 48 58 87 80 46 38 53 90 100 99 100 100 100 100 100 99
86 94 100 98 98 98 98 98 96 89 64 43 33 30 30 30 30 29 28 26 27 27 33 36 40 51 50 38 36 33 33 34 34 43 59 96 100 100 99 100 99 100 100 98
92 100 97 99 96 90 90 92 87 67 49 57 77 93 96 99 99 98 97 92 83 62 37 26 30 38 57 76 78 64 52 37 33 34 43 66 83 96 99 98 98 96 95 94
89 99 99 100 95 92 90 82 68 58 72 95 99 98 99 98 98 100 99 95 96 98 95 73 44 35 40 38 41 44 45 38 36 32 40 46 50 52 52 52 51 50 50 50
77 85 90 89 88 87 85 82 71 82 85 76 61 57 57 54 55 56 55 68 82 96 95 95 97 92 66 44 35 34 34 37 36 38 47 45 47 52 52 51 50 47 46 47
81 89 93 88 92 93 84 71 64 55 48 42 39 37 38 38 35 41 50 56 62 63 64 86 97 98 99 94 93 45 40 41 41 46 52 45 37 37 45 52 52 52 53 53
88 89 88 76 73 64 55 51 44 31 28 27 27 26 27 29 30 31 31 32 34 40 54 70 77 93 98 98 97 96 71 44 47 48 49 42 41 39 36 42 77 57 53 52
70 67 67 64 57 48 42 33 29 30 32 34 35 36 38 39 39 39 38 38 38 41 43 45 51 74 93 98 99 98 97 96 71 54 54 52 51 46 83 78 41 58 56 54

GFSNGP_850_rhum_114.txt.gz
RH
58 48 51 56 55 50 82 70 86 72 65 58 58 58 53 48 48 51 51 52 48 48 54 62 72 74 76 75 71 72 68 58 62 64 66 59 62 65 66 67 64 64 74 92
88 53 64 54 41 40 47 54 60 64 64 66 57 54 56 59 59 56 56 55 53 52 51 53 57 62 70 74 73 73 69 61 60 64 72 69 63 55 51 54 60 75 97 100
73 58 86 86 58 55 58 53 66 71 76 81 74 61 63 67 62 63 62 62 63 62 61 55 52 52 52 51 63 67 70 73 75 75 65 57 54 55 54 56 65 87 98 98
92 86 87 66 54 57 62 62 69 77 80 73 64 74 80 82 75 72 70 70 71 69 60 56 52 48 48 47 48 49 50 55 59 60 61 61 61 62 64 66 71 89 100 98
90 83 46 53 54 65 65 70 80 85 80 74 74 76 87 89 87 84 83 74 69 65 71 72 58 51 48 47 47 46 46 47 48 48 49 52 56 59 62 66 73 93 100 99
89 78 56 64 62 58 59 88 82 88 77 81 78 84 87 84 90 84 80 83 79 71 66 58 56 55 53 50 48 48 48 48 46 46 48 49 55 62 65 68 71 75 75 69
85 76 51 58 59 61 81 75 77 82 76 79 81 78 85 80 89 92 80 78 84 83 76 66 61 57 53 51 52 52 52 51 50 50 52 56 60 61 68 73 72 71 69 70
63 72 74 52 64 74 66 63 67 72 73 77 78 73 68 68 78 91 92 80 75 74 74 70 65 62 62 60 56 55 57 56 58 56 57 59 64 70 75 79 78 75 75 78
54 62 44 52 55 64 62 61 67 70 70 70 64 62 63 68 67 77 92 90 81 77 76 74 72 74 71 72 71 66 61 63 69 76 76 76 81 82 84 84 84 83 86 88
55 44 51 46 56 63 68 69 65 66 66 67 67 67 66 65 66 69 77 94 85 82 82 82 79 76 80 78 77 76 73 76 78 85 92 82 85 93 97 93 94 96 95 86
57 46 50 46 50 57 69 67 68 71 70 71 73 74 76 72 68 68 73 89 79 76 80 86 86 84 81 86 84 84 86 88 94 99 100 100 91 94 100 100 100 98 96 98
61 39 47 50 49 59 68 68 70 72 71 72 76 80 77 80 74 71 75 95 87 79 76 80 84 86 92 87 91 93 96 97 100 100 100 100 100 99 98 100 100 100 99 93
35 42 39 51 56 55 62 68 66 68 75 78 77 73 76 80 82 87 87 96 91 86 86 87 79 80 88 95 91 95 93 98 100 100 99 99 100 100 100 100 99 96 94 93
41 39 57 57 60 60 60 59 62 71 71 84 82 76 80 87 88 94 86 97 100 98 89 84 95 94 84 79 77 86 91 93 98 94 99 100 98 98 98 100 98 97 99 100
47 43 51 50 62 63 60 67 78 83 93 99 95 76 80 83 84 81 90 99 100 100 100 99 99 99 99 99 97 94 85 82 83 86 94 98 99 100 99 100 100 99 100 100
50 57 60 58 62 67 68 82 90 95 96 100 100 78 89 94 93 95 93 98 99 99 99 99 99 99 99 100 99 99 99 100 100 96 88 86 90 99 100 100 100 99 100 100
60 72 75 75 72 73 76 87 93 97 96 100 99 85 77 84 93 95 97 100 100 100 100 99 99 99 100 100 100 99 98 98 89 81 87 90 89 88 90 96 100 100 100 100
46 48 53 52 66 74 83 90 96 98 98 100 92 89 88 87 91 92 94 98 98 96 96 95 96 97 98 98 98 97 98 98 96 84 75 63 59 71 80 96 100 100 100 100
61 60 62 68 72 76 84 95 98 96 100 86 81 77 78 81 86 87 82 77 70 63 57 61 74 74 74 74 69 69 77 92 97 97 86 57 53 77 99 100 99 100 100 100
69 64 67 72 78 83 96 99 97 100 90 78 71 61 44 36 37 34 32 31 30 31 32 33 37 41 50 55 48 41 40 39 43 74 96 96 95 94 92 97 99 99 100 100
68 68 72 80 86 98 98 99 100 92 84 68 46 38 43 56 70 81 90 91 89 81 72 56 34 27 32 45 59 72 57 41 34 36 41 60 72 86 99 100 100 100 100 100
70 71 75 82 93 95 98 94 92 89 74 54 54 76 91 99 100 99 98 98 94 97 96 94 90 68 42 39 41 56 69 65 63 57 41 42 53 94 100 100 99 99 97 98
70 72 78 93 99 96 88 89 85 77 62 60 74 88 94 71 65 59 50 60 61 66 74 89 95 93 92 83 57 44 39 37 39 40 36 40 47 48 54 62 66 65 66 66
72 72 94 99 98 93 88 82 76 65 65 69 56 57 50 45 42 43 44 41 46 50 55 61 67 86 99 97 98 95 84 56 40 40 41 45 50 52 74 61 51 51 51 52
58 61 77 83 84 85 84 82 77 60 52 44 38 32 28 28 26 28 30 31 32 32 31 33 42 60 75 86 97 100 98 98 76 46 47 46 58 92 76 50 46 50 51 52
62 68 76 80 79 75 62 57 53 47 33 27 26 26 28 33 36 38 39 40 39 38 37 36 37 41 45 54 79 98 100 98 98 91 56 53 52 60 83 93 68 60 91 69
76 73 71 65 56 56 51 47 41 32 29 30 33 36 38 42 43 45 46 45 43 41 41 42 43 43 46 50 54 61 88 100 99 98 97 84 60 56 48 46 46 78 94 95

GFSNGP_850_rhum_120.txt.gz
RH
63 65 58 65 59 55 74 77 84 69 80 83 88 81 84 76 70 71 72 68 66 62 59 61 67 76 76 71 74 79 78 80 85 86 85 82 85 82 83 84 81 82 85 91
83 68 79 65 56 48 50 56 63 70 76 82 78 83 86 82 78 77 77 74 71 68 64 56 54 57 67 75 79 77 88 85 82 87 81 77 68 68 81 82 88 100 99 88
80 78 77 58 62 50 65 62 66 85 68 81 72 80 91 89 88 87 84 81 72 71 68 63 56 53 50 53 57 65 76 81 82 78 77 76 73 69 61 75 70 71 68 71
91 78 35 32 59 60 70 67 72 78 85 82 77 84 89 89 89 89 85 84 82 76 70 65 59 53 50 48 46 46 49 55 61 65 68 70 68 68 71 66 60 62 66 76
80 93 53 59 67 74 75 60 71 77 82 77 74 84 86 84 86 90 89 85 86 84 78 71 64 58 54 51 48 46 46 45 46 48 49 51 55 61 63 64 65 70 74 80
93 77 50 36 56 60 55 67 74 74 83 82 83 99 91 80 78 80 88 85 82 82 81 77 70 64 60 56 52 50 47 45 44 45 46 46 49 49 50 54 62 70 82 88
94 93 66 45 68 59 58 19 77 70 71 81 86 77 79 76 68 64 80 87 85 81 79 79 74 71 67 62 60 58 54 52 50 47 46 47 50 52 54 58 61 66 76 93
86 84 42 65 70 59 46 68 63 70 69 75 67 67 75 70 68 63 60 83 87 83 80 81 80 77 73 71 72 70 68 65 60 57 56 56 58 60 64 71 74 78 81 86
60 53 35 61 46 44 52 56 64 60 60 69 70 73 72 62 64 66 65 64 75 87 83 82 81 79 80 82 79 78 81 80 76 70 66 65 67 74 84 88 90 89 90 88
48 36 50 41 49 50 51 54 55 57 66 72 74 71 66 65 64 64 64 65 66 72 82 79 80 78 78 77 78 84 84 89 90 86 83 88 98 99 99 100 100 100 100 97
66 55 46 41 42 43 56 59 58 61 67 68 64 66 68 68 70 67 62 65 69 70 84 76 76 77 76 76 78 81 86 92 97 100 100 100 98 99 99 98 99 99 99 100
42 30 29 27 29 39 57 56 56 59 61 62 61 56 65 70 73 78 74 72 71 71 87 82 72 72 76 78 75 76 77 84 95 95 94 97 99 100 100 100 99 98 99 99
25 23 27 29 33 34 52 57 58 60 56 56 56 64 72 74 74 81 82 89 82 77 93 94 91 69 70 73 72 82 86 81 80 83 86 88 87 97 98 99 99 100 100 100
25 35 42 37 38 37 48 57 58 54 55 54 64 74 73 74 77 80 83 89 86 86 82 98 100 92 80 90 88 91 94 98 100 100 99 96 89 85 93 95 93 98 100 100
26 27 30 31 40 45 52 57 53 53 50 65 74 76 75 76 81 82 82 80 81 84 91 90 98 99 99 100 100 100 99 100 99 99 100 100 100 100 100 97 99 98 98 99
24 27 36 38 37 43 50 53 50 48 60 77 81 80 79 80 85 84 77 77 81 91 99 97 92 98 100 99 100 99 100 100 100 99 97 97 98 99 100 100 100 100 100 100
34 52 50 46 40 42 41 40 43 46 68 82 95 99 97 91 88 83 87 87 81 86 89 91 91 95 91 90 89 90 90 89 92 93 94 94 96 96 97 98 98 98 99 99
34 28 22 23 32 40 44 45 49 57 76 81 98 96 100 98 91 89 84 80 84 80 77 71 66 61 58 58 60 59 56 52 48 46 46 45 46 57 87 95 96 97 96 97
41 38 30 30 33 41 41 46 53 63 84 88 98 99 100 92 80 74 74 70 55 42 37 36 34 34 33 34 36 41 46 50 53 55 50 46 40 36 44 73 95 98 98 98
45 43 38 34 38 46 45 49 58 76 84 93 98 100 88 75 64 49 37 37 57 70 81 88 89 89 89 80 65 52 44 43 46 52 67 70 64 60 53 42 62 92 96 97
42 44 43 41 45 52 52 54 69 84 85 99 100 92 73 53 39 50 75 80 86 79 71 77 85 85 88 93 94 88 76 68 62 51 47 50 50 49 47 44 52 92 100 98
43 46 46 48 56 59 62 66 78 84 96 98 89 74 51 49 75 84 86 70 60 58 56 53 51 52 55 65 74 83 96 100 100 97 86 71 48 44 44 42 49 62 90 96
43 48 52 58 60 61 71 80 84 77 83 86 76 61 54 73 83 68 56 52 48 36 31 31 31 32 32 32 34 37 49 70 87 100 100 96 95 64 48 46 52 59 58 68
50 52 59 64 67 73 76 79 83 87 88 82 68 61 72 74 59 46 36 32 32 37 39 40 40 40 39 38 38 37 38 40 49 65 97 100 97 96 68 52 55 76 93 76
60 60 65 73 76 74 70 78 89 89 83 71 69 72 61 47 36 33 33 39 42 44 45 46 46 44 44 43 43 44 45 45 48 54 68 93 99 97 96 73 58 64 82 92
70 70 68 69 69 71 73 83 81 80 78 74 62 49 37 33 34 37 41 44 46 47 49 49 47 44 45 47 50 54 61 64 63 64 88 97 100 100 98 97 81 64 75 95
79 76 77 81 82 79 81 80 80 77 68 60 43 36 35 38 42 46 47 48 50 51 48 44 44 46 48 51 53 54 56 59 63 65 76 86 92 100 100 98 98 92 82 92

GFSNGP_850_rhum_126.txt.gz
RH
70 68 72 73 70 62 80 80 80 62 79 74 82 87 86 86 83 81 80 82 77 73 65 61 59 69 83 92 100 100 100 96 93 99 98 98 98 92 89 99 97 92 98 98
85 67 76 79 69 64 57 61 74 72 80 72 79 80 80 84 88 86 83 81 82 75 69 63 59 59 60 70 86 86 92 94 95 89 92 98 93 86 95 90 88 88 88 89
60 71 70 42 46 60 56 60 63 86 62 77 82 87 84 83 85 88 86 83 81 80 76 70 66 61 58 57 56 62 79 88 89 88 89 86 85 88 82 79 77 76 76 81
84 66 15 22 51 53 61 68 72 68 68 79 77 79 84 84 81 83 84 80 79 77 78 72 68 64 59 55 52 50 48 50 53 60 65 70 77 81 83 84 83 80 80 76
77 87 31 45 63 75 64 41 71 77 74 76 80 87 78 76 79 77 79 82 82 82 80 78 74 71 68 62 58 55 51 50 48 48 48 51 54 57 62 70 75 78 80 80
92 47 17 14 52 62 52 22 42 70 77 84 87 96 83 62 80 78 73 72 78 79 80 81 76 75 73 70 67 64 61 59 57 55 52 50 50 51 54 56 59 63 66 69
93 81 43 31 61 59 26 10 51 58 61 78 91 71 63 74 78 71 64 62 72 83 79 78 76 76 74 73 68 70 69 70 68 66 64 63 61 59 56 57 57 60 66 69
88 87 16 42 71 44 21 30 47 55 55 62 57 64 68 67 70 68 63 62 59 64 83 83 83 79 75 71 68 65 66 73 79 81 80 77 74 73 73 71 71 70 72 77
49 35 22 50 35 29 34 33 43 45 42 50 56 60 61 59 64 66 64 62 64 64 64 85 84 81 78 76 73 69 65 67 74 78 79 79 79 81 83 84 88 92 92 86
45 31 46 31 28 30 38 39 37 39 42 46 48 53 60 66 70 68 64 64 65 64 64 66 86 83 81 78 76 74 72 70 71 72 69 74 88 91 91 92 90 93 95 97
62 48 36 25 25 20 21 24 38 46 46 47 50 52 58 67 70 65 61 60 62 66 65 70 77 86 84 80 75 74 73 72 72 71 74 78 80 82 83 84 86 85 90 95
28 20 19 17 16 17 17 17 18 30 49 49 51 51 57 60 56 52 63 74 71 63 67 72 76 89 89 86 75 71 70 69 70 69 68 69 68 65 80 90 92 92 86 86
22 20 19 17 17 20 21 20 20 25 34 50 50 50 53 53 48 60 70 78 75 80 80 76 76 90 100 100 97 91 90 89 87 90 91 92 98 99 97 71 80 80 86 92
21 23 26 21 21 20 22 22 25 28 38 52 56 54 50 46 55 68 74 78 83 86 86 88 92 87 93 98 96 98 99 99 99 100 97 90 88 89 86 88 89 81 77 85
29 24 20 21 22 23 24 27 29 29 37 56 60 58 49 44 54 65 77 80 80 83 85 86 85 84 86 84 82 82 87 99 96 80 81 78 74 70 68 60 53 49 47 54
25 30 29 26 24 26 27 31 32 31 38 48 58 56 45 48 62 69 72 77 80 80 80 79 82 91 93 90 89 87 86 84 77 68 60 50 46 44 42 42 42 43 42 39
34 32 28 29 24 21 22 25 28 30 32 44 51 53 49 56 70 74 75 80 83 82 80 79 78 80 81 81 79 70 58 49 46 47 50 48 47 48 52 53 55 54 52 52
40 35 32 30 30 29 28 28 28 33 37 35 49 53 53 66 70 73 79 88 89 78 75 76 73 69 62 54 44 39 46 56 59 58 57 55 54 53 54 54 57 60 57 55
32 28 26 30 34 36 37 38 37 34 39 43 54 53 50 65 75 86 99 98 82 77 71 64 54 45 46 57 74 84 85 84 83 83 82 78 74 73 73 69 65 59 51 51
27 28 28 28 33 36 39 44 44 40 43 49 55 54 59 76 86 100 99 92 76 63 51 51 62 76 77 74 74 67 58 58 60 64 73 81 88 95 98 96 89 86 77 52
29 30 31 32 33 34 40 48 47 44 44 55 53 53 61 79 94 100 99 78 60 47 63 78 72 57 57 50 37 31 31 32 34 36 39 41 40 42 56 86 95 95 94 81
32 32 33 36 36 39 43 46 47 46 51 57 58 62 78 86 94 98 84 55 58 81 80 63 54 43 30 31 35 38 40 42 43 43 43 44 44 44 56 63 82 94 96 95
32 33 33 36 40 43 49 50 48 49 56 59 64 75 81 76 87 83 57 58 82 75 57 51 34 33 39 40 41 43 46 47 45 43 44 47 48 62 73 79 87 92 98 98
37 35 35 36 39 45 51 51 54 61 63 65 78 84 81 84 90 55 59 81 73 56 42 33 37 41 42 43 47 49 43 40 42 45 49 53 54 63 62 74 91 88 94 99
38 38 38 40 43 48 53 57 60 68 76 83 91 92 90 87 58 61 78 72 52 40 36 40 43 44 48 50 42 38 39 42 46 47 50 53 55 60 64 71 76 84 94 97
39 44 47 49 51 56 58 65 68 76 85 92 94 94 85 64 63 73 61 46 38 37 42 45 47 51 43 38 38 40 42 44 46 48 50 52 53 56 59 64 69 74 82 96
42 45 48 57 60 65 71 74 74 83 91 90 91 87 71 71 75 56 41 37 40 44 47 52 46 38 38 40 42 44 47 49 52 53 54 56 60 64 67 70 70 72 83 85

GFSNGP_850_rhum_129.txt.gz
RH
69 64 70 77 70 66 83 77 79 55 80 66 70 80 83 84 84 82 79 79 80 72 65 59 58 65 86 97 99 93 92 96 100 100 98 93 93 98 100 100 100 100 100 100
92 69 77 82 71 72 63 65 80 77 77 63 63 80 77 81 87 88 85 82 80 77 68 62 59 58 58 64 79 85 84 91 98 98 96 95 100 99 100 94 94 91 84 87
61 66 70 46 48 67 53 58 63 82 58 75 82 83 79 75 83 87 86 84 81 79 76 71 66 63 58 54 52 52 67 79 80 80 82 86 90 91 86 85 83 77 74 81
85 64 18 22 53 53 53 56 67 70 63 76 74 71 73 71 73 77 81 81 81 80 79 75 73 69 67 62 56 52 49 49 50 51 54 60 68 74 78 78 79 80 79 80
76 80 29 34 49 72 67 40 67 69 70 68 78 85 74 63 71 76 76 75 80 79 81 79 75 72 71 67 64 59 54 52 51 50 49 49 49 50 52 54 61 68 74 78
89 42 15 9 47 64 48 25 41 65 70 71 85 85 73 50 64 69 69 66 71 80 80 80 78 76 72 66 64 62 65 66 64 60 56 53 52 49 50 50 51 53 58 63
86 74 38 25 59 57 20 11 34 52 53 71 90 64 49 49 59 74 69 60 58 66 78 80 81 78 74 69 62 60 64 66 64 63 64 62 60 57 57 57 56 55 54 55
84 83 24 36 76 43 17 17 34 43 45 57 47 52 59 58 52 53 56 56 54 54 58 76 82 81 75 71 68 66 67 73 72 69 67 69 70 66 64 64 65 66 68 69
45 32 17 42 24 22 27 23 28 32 33 40 47 54 57 58 57 55 59 61 61 59 58 57 80 82 78 75 73 71 69 69 70 70 68 66 73 78 78 78 78 77 77 76
43 29 37 23 20 19 24 23 26 31 32 37 39 40 49 52 57 62 65 64 61 61 60 60 59 80 80 78 75 72 71 71 70 69 69 71 72 71 72 74 76 79 79 76
61 45 37 25 23 16 19 20 22 28 38 42 42 43 46 50 55 61 67 67 64 64 65 64 66 71 84 82 79 74 69 70 71 70 68 67 68 69 69 72 77 82 86 87
30 22 19 18 16 16 16 17 17 18 22 26 45 48 48 50 54 62 60 54 54 60 60 65 72 72 86 89 87 79 77 77 78 78 76 73 72 72 76 71 70 77 84 87
24 22 22 21 21 21 21 18 18 20 20 23 27 43 52 52 52 54 49 55 66 68 67 72 80 81 97 100 100 100 99 99 98 99 97 82 75 80 70 62 61 60 57 53
26 26 28 24 25 22 20 20 22 23 24 24 28 43 53 53 54 50 44 54 66 78 85 89 89 92 94 88 97 98 98 98 96 98 99 85 83 72 58 46 40 41 42 41
33 30 30 28 29 28 26 24 26 25 23 24 26 36 57 56 52 43 47 62 72 79 80 82 83 97 90 86 90 87 86 88 93 95 84 73 58 47 45 45 47 49 50 50
31 31 34 34 29 33 35 34 31 26 27 27 29 34 44 55 55 47 55 65 73 74 78 80 89 98 94 94 98 95 90 87 82 71 58 48 47 48 50 51 52 53 55 57
42 42 37 35 32 28 29 26 25 24 24 28 29 34 51 58 57 52 59 67 72 80 87 82 86 86 86 87 87 84 71 50 41 41 46 57 63 63 64 63 62 64 66 64
42 41 41 41 39 37 34 31 31 31 30 27 32 37 55 64 54 45 56 69 78 88 84 81 83 81 76 71 63 50 43 59 78 80 80 77 76 75 74 75 79 82 80 76
31 30 34 34 35 36 36 35 37 37 38 37 38 40 47 60 56 50 62 75 85 94 84 85 76 66 55 47 50 72 84 82 74 66 65 62 60 64 64 62 59 67 83 81
28 29 32 32 35 35 34 36 39 41 44 44 44 53 55 61 57 62 77 80 77 83 91 72 59 55 64 78 74 66 60 44 39 36 36 38 40 41 43 43 43 43 56 81
30 30 32 32 32 33 34 34 38 44 47 48 48 53 53 58 59 73 85 83 88 93 72 54 56 77 73 61 55 36 31 35 39 42 44 45 45 45 45 44 42 46 58 73
33 33 33 33 33 33 33 34 39 48 50 52 58 64 63 63 71 82 89 83 99 75 52 64 80 65 55 36 30 37 40 43 45 48 46 42 43 44 44 44 58 57 57 68
35 35 34 35 35 35 35 36 38 42 48 48 53 62 67 63 71 82 81 92 76 53 75 80 60 51 32 34 39 42 44 48 46 39 40 42 44 47 51 54 61 70 68 71
34 36 37 38 38 37 37 40 42 46 51 57 58 67 66 79 89 89 90 78 55 76 80 62 46 34 38 42 43 47 48 37 38 38 40 44 46 48 51 56 59 62 73 78
35 36 38 40 40 44 45 47 50 55 61 68 72 78 85 90 86 88 80 58 78 78 59 41 37 41 44 46 49 39 36 37 38 40 42 45 47 50 53 56 58 62 67 70
38 37 38 41 43 44 46 53 60 64 70 80 91 96 96 94 93 70 58 78 78 57 40 38 42 46 50 43 37 37 38 40 42 45 48 50 53 57 60 63 67 71 73 74
41 41 39 38 39 47 50 51 64 72 77 86 88 97 96 96 73 63 76 71 52 40 40 45 50 48 37 38 38 40 42 45 47 50 53 57 62 66 70 74 78 82 84 83

GFSNGP_850_rhum_132.txt.gz
RH
47 41 47 56 55 50 77 57 68 38 55 33 32 44 58 68 74 76 76 81 84 78 75 65 61 65 86 99 100 100 100 100 98 100 100 100 100 99 95 96 93 98 96 88
81 53 52 61 49 52 53 49 52 50 50 34 41 50 61 65 76 76 80 82 82 75 66 64 62 59 54 59 77 84 86 90 97 89 94 99 99 97 100 99 100 100 95 94
45 52 58 63 36 36 41 40 41 55 30 42 51 55 55 60 74 77 84 81 80 75 72 67 62 60 57 53 50 49 58 65 70 79 85 89 89 88 86 86 85 85 88 92
58 57 37 21 44 40 39 33 38 40 40 43 46 53 63 68 69 74 78 76 73 75 75 71 67 64 60 58 55 52 49 48 48 48 53 65 76 81 82 81 83 83 81 81
54 34 22 24 23 42 51 23 34 38 34 42 55 72 58 62 70 73 79 70 70 70 72 71 70 66 63 61 59 58 56 56 54 53 52 50 51 52 54 56 60 66 72 74
62 44 22 10 40 54 48 25 27 39 33 43 63 55 34 37 47 60 71 73 67 73 74 74 72 70 67 64 62 58 58 57 57 56 56 53 52 50 49 48 49 49 48 48
43 42 21 16 51 53 22 11 20 37 35 50 57 38 39 40 43 50 70 69 64 63 74 80 78 74 70 65 61 59 61 66 65 62 61 60 61 62 59 58 60 61 57 56
44 50 37 35 65 38 14 13 22 31 38 47 44 44 40 41 47 52 55 56 56 57 60 74 83 81 76 71 66 63 64 66 65 63 59 59 65 69 71 72 69 67 67 68
27 23 21 46 30 30 17 18 19 27 21 24 31 34 35 40 48 47 45 52 58 59 59 59 68 85 81 76 72 68 66 65 64 65 65 64 62 63 63 63 66 68 67 66
28 19 25 26 20 27 24 22 23 22 25 26 27 28 33 38 45 48 49 49 53 59 59 58 60 67 86 81 77 74 70 70 69 68 67 66 65 65 67 68 66 66 69 68
31 24 28 27 22 17 18 18 21 21 26 31 34 34 33 36 40 43 46 52 58 60 58 58 61 64 74 87 83 79 76 73 73 73 75 75 74 74 76 77 73 73 72 69
26 18 20 18 18 18 18 19 18 18 20 21 29 34 42 42 42 46 48 51 60 62 60 55 60 65 69 82 90 89 83 81 84 88 87 79 76 75 75 75 74 68 59 51
24 23 23 23 22 23 24 22 22 22 21 20 20 23 29 38 48 49 53 57 58 50 48 57 57 63 72 80 95 99 99 100 100 100 99 99 83 73 68 60 45 42 42 44
28 28 29 29 30 26 26 25 24 23 23 22 23 25 26 29 43 56 55 49 47 48 58 61 62 68 80 92 93 90 93 96 98 97 97 93 84 73 58 44 44 49 51 52
34 32 31 29 29 30 32 32 31 30 27 24 23 24 26 29 33 47 55 54 46 54 60 72 80 86 92 98 94 90 90 93 92 95 96 86 74 55 48 49 54 56 56 55
34 33 36 38 32 28 32 38 36 31 32 31 27 27 27 28 36 49 56 52 46 51 60 70 78 82 99 100 98 95 99 99 95 86 75 64 52 51 58 62 63 63 62 65
46 46 44 42 38 34 35 33 37 34 30 30 27 27 30 34 42 55 61 54 46 55 67 73 77 93 98 98 96 96 94 90 65 45 44 54 68 73 72 69 66 63 58 58
44 41 44 44 43 42 38 38 37 35 33 31 33 33 32 35 36 50 60 55 56 68 72 75 77 81 85 88 84 83 71 54 49 73 81 79 72 66 58 50 46 44 39 38
35 30 35 35 35 37 37 38 36 35 34 36 37 35 34 35 41 54 61 57 56 67 73 73 76 82 82 75 67 56 49 73 81 70 54 44 38 38 40 43 44 45 47 43
28 28 29 30 32 32 31 32 35 37 37 39 41 44 43 45 52 59 64 59 52 60 77 84 87 80 68 57 55 74 79 66 52 35 34 38 41 44 46 44 42 43 49 47
30 30 30 31 33 33 33 32 31 31 34 37 42 46 47 50 55 66 70 67 70 85 92 90 86 63 60 70 77 64 57 35 34 40 42 45 47 43 38 40 43 49 51 52
32 31 34 34 33 33 32 32 31 32 33 35 42 49 55 59 67 74 72 65 72 86 88 88 63 63 80 74 60 41 32 40 43 44 47 43 37 38 39 42 49 63 76 80
36 36 36 35 35 35 35 35 35 36 37 42 42 44 54 59 66 74 76 82 88 88 92 66 59 82 70 56 35 36 41 43 47 45 35 36 38 40 42 44 47 50 52 55
35 34 34 35 35 35 36 37 38 39 43 49 49 52 62 71 78 80 77 81 82 92 62 67 84 67 50 35 39 43 46 47 36 34 36 39 41 44 46 49 52 55 58 58
35 35 35 35 36 38 40 41 42 43 49 56 60 64 73 81 78 82 92 89 94 65 70 85 69 47 38 41 44 47 42 34 34 37 40 43 46 49 53 56 59 64 66 69
33 33 32 33 34 36 38 42 46 50 55 59 64 72 81 92 94 92 93 92 65 75 87 67 46 41 44 47 47 36 34 36 39 42 46 50 53 56 59 64 69 73 77 80
40 38 38 36 34 35 38 43 47 52 59 66 70 82 98 100 99 95 94 67 81 84 65 44 42 47 50 42 35 35 39 41 43 48 52 56 60 63 69 76 80 84 88 90

GFSNGP_850_rhum_138.txt.gz
RH
64 49 45 49 52 50 65 66 79 52 54 40 33 28 27 39 46 52 56 62 65 62 59 56 54 52 54 68 84 95 92 98 100 99 100 100 100 100 100 100 100 100 100 99
86 50 46 56 44 44 48 55 59 55 57 39 33 32 31 40 44 54 57 61 66 67 65 58 55 54 52 50 52 69 83 86 91 90 100 100 100 100 100 100 98 99 100 100
84 45 66 68 59 46 42 43 47 65 46 26 30 36 38 39 43 52 56 61 67 67 66 64 59 57 55 52 52 49 50 66 80 89 89 92 97 96 98 99 98 98 98 100
91 79 67 38 30 34 38 34 37 38 34 30 30 28 28 37 42 46 53 59 64 65 67 64 63 62 61 60 54 54 53 50 50 53 65 75 80 81 85 86 86 83 85 86
92 79 43 26 34 43 36 28 30 28 28 25 22 32 35 33 41 48 50 54 64 65 58 61 63 64 65 65 60 56 54 56 55 55 51 51 50 51 56 59 64 69 74 74
88 75 48 20 20 30 24 29 24 29 32 25 38 58 49 31 31 43 52 57 63 58 54 54 62 66 67 69 65 62 60 58 59 60 58 57 57 57 58 58 59 59 55 57
86 82 56 27 34 34 24 25 22 18 20 23 45 44 35 32 33 45 50 58 60 59 55 56 54 63 68 68 66 64 65 66 62 59 56 58 62 63 67 66 64 68 69 67
69 78 65 37 45 33 24 15 15 10 13 21 21 22 32 35 35 30 39 50 49 44 44 47 44 54 69 69 69 66 65 66 64 62 61 59 60 57 60 62 61 63 65 63
50 48 29 36 21 19 21 22 18 17 16 16 18 20 23 29 32 33 34 36 40 41 44 43 41 43 52 68 74 72 69 66 65 64 63 63 61 59 58 58 57 60 61 59
27 21 21 20 21 18 20 31 28 27 22 25 23 20 21 24 30 33 34 39 41 45 43 43 43 44 44 54 61 76 74 72 72 71 69 67 62 64 69 72 74 71 66 62
36 25 22 20 18 19 20 20 21 21 27 27 29 29 29 26 26 28 29 32 37 39 43 43 47 46 46 48 48 64 77 75 73 69 68 68 68 68 68 67 65 61 58 51
36 22 24 22 20 19 20 19 20 22 22 23 23 24 22 24 23 28 31 35 41 41 39 38 45 54 56 54 51 57 77 81 80 79 78 78 76 74 68 66 63 57 51 41
28 26 25 26 25 23 23 21 22 24 24 23 23 24 25 25 23 24 32 38 41 39 40 43 46 48 54 56 56 60 72 83 86 87 86 90 84 78 70 69 65 57 44 42
39 35 30 28 27 25 24 24 25 25 26 27 27 28 27 27 28 34 35 25 30 40 45 49 49 46 47 49 47 54 71 84 90 90 91 91 95 95 82 74 63 47 43 49
44 47 42 35 32 32 29 28 28 28 28 30 29 28 27 28 26 25 26 26 31 40 49 53 55 54 51 49 55 59 70 80 84 88 89 81 95 86 86 76 57 46 57 58
46 42 42 42 39 37 36 34 35 33 32 34 34 34 32 30 31 29 27 27 34 34 37 53 56 54 47 53 60 68 84 88 92 86 82 88 96 89 79 62 50 64 64 51
50 51 50 50 47 43 40 38 38 37 36 38 38 37 37 36 36 36 35 34 34 34 38 48 55 54 45 49 58 69 86 100 97 99 97 95 95 68 55 57 72 65 45 40
51 49 49 49 48 46 44 44 43 41 42 41 41 41 42 42 41 38 38 40 41 44 45 56 62 52 45 54 66 79 94 99 98 100 100 96 60 58 74 74 54 36 38 44
40 44 41 46 46 47 46 44 43 42 42 41 41 39 38 41 43 43 43 46 46 48 45 60 65 54 52 63 74 89 100 99 100 100 93 60 71 81 66 41 38 41 43 37
38 40 34 36 40 43 44 41 39 38 40 40 41 39 39 40 41 44 48 48 43 44 54 64 65 59 64 74 78 87 98 99 94 80 57 77 76 47 35 38 42 41 31 32
42 38 39 37 36 36 35 34 34 36 38 39 41 40 40 42 44 48 54 58 61 70 70 73 71 66 70 74 76 84 91 82 69 59 79 68 38 38 41 45 35 31 32 35
39 39 37 36 36 36 36 36 36 36 37 38 39 39 39 43 46 51 59 66 73 75 80 85 77 75 78 83 88 92 78 63 72 79 57 36 41 44 42 31 31 34 38 42
62 64 47 41 41 42 41 39 38 37 38 38 40 41 42 46 51 58 60 69 85 88 91 86 80 87 91 90 93 69 67 81 76 46 39 42 45 34 31 33 37 40 44 46
44 60 54 45 46 45 40 37 36 37 36 38 42 46 52 56 61 64 72 85 92 96 96 92 96 99 92 85 69 78 84 68 41 41 45 43 31 32 36 39 43 47 50 56
42 38 46 43 45 48 46 41 38 32 30 33 40 45 51 57 66 72 76 92 98 97 99 100 100 96 85 76 85 81 56 42 44 47 36 32 35 39 43 47 51 55 58 64
45 45 48 51 48 48 44 39 36 34 37 43 47 52 58 69 77 85 96 100 99 100 100 100 98 92 76 86 74 50 44 46 45 34 34 38 43 46 51 55 60 64 66 66
53 64 67 57 51 57 45 42 51 51 45 51 56 62 68 77 87 93 100 100 100 100 100 100 91 85 89 66 46 44 47 39 33 36 40 45 49 53 57 63 68 72 75 74

GFSNGP_850_rhum_141.txt.gz
RH
77 68 65 66 60 55 78 66 73 44 63 46 43 40 35 28 34 48 47 53 59 58 58 59 54 53 51 53 71 86 86 87 93 99 100 100 99 97 99 99 99 98 100 100
88 62 63 62 55 52 48 54 57 50 50 35 34 37 39 39 47 47 49 53 61 61 57 56 52 51 54 53 49 56 77 88 95 94 98 100 100 98 100 98 100 100 100 100
72 59 77 54 53 55 51 50 46 61 42 42 40 39 36 33 35 41 47 50 59 61 58 57 56 53 50 52 54 49 48 57 75 88 89 92 94 99 99 99 100 99 99 100
89 78 46 30 38 40 43 35 46 46 46 42 34 28 27 27 33 40 44 49 55 57 58 58 58 59 56 55 54 53 52 50 52 56 65 71 78 84 90 94 94 97 95 97
91 91 47 32 39 40 41 23 35 38 35 33 31 32 31 25 29 32 37 46 52 55 58 58 58 61 58 56 56 58 55 55 56 58 57 58 56 55 58 68 75 79 82 83
93 79 39 23 18 29 25 22 20 35 33 32 36 40 40 21 27 22 35 44 51 54 58 57 58 66 64 57 55 56 59 57 58 59 58 60 63 64 63 58 57 58 54 56
92 85 56 39 28 32 16 17 21 25 22 28 41 29 17 23 26 25 24 39 51 56 53 46 50 58 67 66 62 58 56 60 58 56 57 60 64 64 71 64 59 61 59 58
84 84 61 36 42 19 16 14 16 17 16 19 13 14 18 22 31 31 28 38 40 40 37 38 44 45 50 58 66 64 60 58 57 56 55 53 55 57 62 64 60 60 62 60
55 54 31 32 18 13 17 20 17 15 14 16 18 17 16 18 23 26 29 27 29 30 32 35 35 38 42 44 60 69 66 63 60 57 57 57 56 53 50 50 51 53 53 52
30 29 29 26 24 21 21 22 20 20 20 23 23 21 21 21 23 26 26 32 32 35 37 35 36 36 38 46 53 68 73 71 68 65 62 59 53 50 53 54 56 53 50 49
32 24 24 23 20 21 20 21 20 20 20 22 23 24 24 25 24 25 25 27 32 38 38 35 37 38 41 45 47 56 74 78 76 74 70 66 66 65 64 64 64 62 58 52
38 30 29 33 31 29 26 23 24 24 24 22 21 21 21 21 21 22 24 26 31 34 36 37 42 42 44 50 50 52 63 75 80 80 79 79 79 78 77 74 71 67 56 45
35 33 32 32 31 32 35 33 31 28 25 24 23 23 24 23 22 23 26 27 31 32 31 36 44 49 47 50 55 57 58 67 82 85 84 84 85 86 87 85 77 70 53 45
38 38 37 35 34 33 40 36 32 29 28 28 26 26 26 27 27 27 27 26 29 31 33 38 46 49 48 53 57 60 60 65 78 84 89 92 91 91 81 88 83 70 51 48
48 43 40 40 40 41 44 48 48 43 40 37 32 29 28 29 28 27 26 26 27 35 42 44 48 48 53 55 57 58 60 65 77 90 97 94 92 88 87 89 84 69 50 58
50 49 49 49 51 49 50 46 46 44 42 38 35 34 35 33 32 32 31 32 32 30 35 38 37 37 53 56 57 56 58 69 80 94 100 96 92 92 90 88 78 54 56 63
57 60 56 57 57 56 54 52 50 48 46 43 42 41 39 38 38 38 36 35 36 35 34 35 34 38 52 59 59 50 60 71 93 100 100 98 92 90 91 73 54 61 70 51
56 57 57 57 57 56 55 53 52 50 48 44 43 42 43 42 42 41 39 38 40 39 39 37 38 42 57 64 58 54 64 69 86 99 98 100 100 98 68 58 70 70 44 38
48 50 51 50 51 54 53 50 49 49 48 45 44 42 41 42 42 43 43 45 45 42 37 44 49 53 64 67 57 62 74 88 99 99 99 98 99 79 68 80 65 37 39 43
44 44 44 46 44 47 45 46 48 48 47 44 42 42 41 41 42 42 43 44 43 44 46 53 59 62 73 68 65 74 87 100 97 97 98 99 81 70 80 51 38 41 42 30
47 60 68 69 46 46 43 43 45 41 41 43 42 42 44 44 45 45 46 47 45 52 60 68 66 70 77 75 79 84 98 100 100 100 100 77 74 75 40 40 44 38 29 30
44 61 80 65 73 53 47 46 46 45 44 42 40 39 40 43 45 46 50 52 56 61 70 74 81 88 84 85 89 93 95 100 100 96 68 80 65 40 44 44 31 30 32 36
50 45 62 77 74 72 62 58 51 46 44 42 40 38 39 43 45 47 51 56 60 66 77 82 90 98 100 97 98 94 100 100 83 72 84 53 43 46 40 30 31 35 39 41
50 50 48 60 67 58 61 56 48 48 49 50 47 44 44 47 51 54 56 63 76 81 89 96 99 100 99 100 99 100 95 72 79 79 45 45 46 35 30 34 38 41 44 47
48 50 46 56 56 52 63 70 58 49 45 51 53 49 50 48 53 63 71 76 84 95 99 100 100 100 100 100 99 80 79 88 66 48 48 44 33 34 39 42 45 48 50 50
54 52 50 50 70 82 72 86 73 49 51 53 47 48 50 56 64 74 82 92 99 100 100 100 100 100 98 92 84 90 83 54 46 47 40 32 35 40 44 47 50 53 56 57
57 57 57 55 59 77 83 85 84 56 66 67 58 51 57 65 71 82 95 100 100 100 100 100 99 97 95 92 92 69 48 46 45 35 35 40 44 47 51 55 59 62 65 67

GFSNGP_850_rhum_144.txt.gz
RH
70 62 60 62 58 54 84 59 64 36 70 42 49 47 36 32 32 34 29 46 50 53 55 54 53 52 52 54 50 60 84 92 96 99 100 100 100 100 98 93 100 100 96 90
90 60 64 68 62 60 58 54 57 49 47 32 31 33 38 34 35 40 34 47 48 53 55 53 53 54 51 54 54 55 52 74 90 93 97 96 100 99 100 100 100 100 98 100
68 56 74 69 69 58 56 53 52 63 44 35 39 39 36 31 29 30 33 37 45 47 50 51 51 53 52 52 53 58 56 52 61 76 84 88 98 100 100 100 100 98 99 100
87 80 45 33 37 46 48 47 48 46 40 43 40 31 30 29 28 28 29 32 43 48 49 48 48 50 50 50 51 51 52 56 54 53 56 62 73 87 99 95 92 90 94 91
92 94 50 26 48 48 43 24 38 40 33 32 33 34 28 16 20 20 22 29 35 43 50 51 47 48 51 53 55 57 52 50 53 58 57 57 51 53 66 77 85 91 95 96
94 94 43 19 18 30 28 21 17 37 35 36 35 37 36 14 14 23 23 23 37 40 51 54 50 51 51 54 56 56 56 53 56 53 54 55 56 56 58 56 57 58 56 57
93 95 65 37 26 32 16 18 17 26 23 32 42 27 14 15 16 21 22 18 26 42 46 48 54 50 49 54 57 60 60 55 55 56 52 48 48 50 50 53 54 54 51 52
90 97 67 34 39 19 17 15 14 16 14 21 19 17 17 16 18 20 24 25 25 36 40 48 56 50 47 47 52 63 63 62 58 55 55 55 52 47 49 46 43 45 47 45
62 58 31 32 22 17 18 20 18 20 20 19 17 17 16 16 16 18 20 27 31 33 35 41 50 46 45 36 49 60 68 67 65 61 60 60 59 56 52 49 48 46 47 46
46 35 35 28 24 22 20 27 21 22 23 23 26 24 24 25 23 22 23 22 28 37 39 40 38 38 34 43 47 54 64 71 69 66 66 66 67 63 61 60 61 58 54 50
35 29 26 25 23 23 25 24 25 28 42 34 28 26 26 25 22 21 21 24 23 30 38 34 37 41 39 43 50 50 56 67 74 73 71 68 64 63 66 67 66 65 63 59
51 36 34 33 32 36 37 35 33 32 34 33 43 38 32 27 24 23 22 22 24 24 29 31 35 42 45 46 48 52 57 64 71 76 75 73 69 66 64 65 66 66 64 55
45 43 41 38 37 38 38 36 35 34 34 38 40 38 32 30 28 25 25 25 24 25 25 27 32 38 47 51 51 52 54 58 70 80 83 81 79 78 79 80 76 73 64 51
51 49 48 46 44 40 38 37 39 40 40 42 44 46 43 41 37 30 28 28 27 27 28 29 31 36 41 51 55 55 58 62 68 77 87 88 90 91 94 88 89 80 67 52
57 56 55 52 52 52 50 49 50 49 49 50 53 52 48 45 41 37 31 29 29 28 28 29 29 34 44 51 58 58 60 66 68 73 86 93 98 100 99 97 99 97 74 57
52 54 55 56 56 55 56 57 58 58 56 55 53 50 48 50 45 42 39 36 32 31 31 30 30 32 44 51 58 62 63 67 71 73 90 99 99 100 100 94 98 97 72 61
59 60 58 59 61 62 61 59 60 59 57 57 55 52 50 49 48 48 41 40 38 36 36 36 33 35 43 48 57 61 63 71 76 79 95 99 99 100 100 100 100 86 64 74
59 61 60 60 60 62 62 62 63 63 61 56 52 54 52 48 45 43 44 44 42 41 39 37 38 43 48 52 58 63 67 72 73 84 97 100 100 100 100 100 92 67 76 67
74 80 63 62 52 49 48 48 51 54 51 52 53 51 51 52 52 45 45 47 45 44 42 44 45 49 54 57 61 68 72 68 79 91 97 99 100 100 98 92 72 81 66 38
70 82 76 76 75 65 57 47 45 52 54 52 52 48 47 47 51 51 49 46 45 48 50 50 50 54 61 64 70 74 72 74 92 91 95 98 99 100 99 79 86 58 37 39
62 55 78 76 72 87 78 70 55 54 55 52 51 49 47 47 47 47 45 45 48 50 51 54 59 62 69 72 77 78 76 90 97 99 100 97 100 99 78 84 48 39 42 32
44 48 36 53 62 88 94 84 81 88 71 60 54 50 50 50 48 48 48 51 53 52 54 61 65 67 72 78 82 83 98 99 99 100 100 99 97 78 79 46 45 42 30 30
32 32 33 51 57 68 80 86 71 60 66 65 62 58 53 52 53 54 52 50 53 61 76 81 80 85 89 93 96 100 100 100 99 99 99 88 82 70 47 46 37 31 34 37
30 26 32 48 53 61 70 78 90 78 55 52 54 54 57 56 55 54 54 60 67 71 74 83 93 100 100 100 100 100 100 100 100 97 80 85 56 46 45 33 33 38 40 42
41 36 39 51 57 52 58 74 75 76 76 53 52 56 59 59 61 66 64 64 79 88 93 100 100 99 100 100 100 100 100 98 83 84 79 50 48 42 32 35 40 44 45 45
46 49 52 50 59 59 57 61 79 79 84 59 55 61 66 59 66 75 72 74 87 100 100 99 99 99 100 99 98 96 85 84 86 60 48 46 36 32 36 42 46 49 51 54
51 51 54 51 44 59 61 63 66 87 95 74 70 68 68 66 69 76 87 90 98 100 100 100 100 100 98 95 90 90 91 70 50 48 44 33 33 39 44 49 52 55 59 63